GFSMW_700_rhum_000.txt.gz
RH
27 22 20 19 22 25 26 26 25 25 25 23 16 18 19 21 28 38 42 45 47 47 49 52 51 46 48 51 46 44 42 39 37 42 42 40 40 34 29 29 32 31 34
24 23 22 24 26 27 27 26 26 25 24 23 20 19 22 26 28 31 36 45 46 44 44 46 44 44 46 47 42 42 41 41 39 38 42 41 34 32 32 29 33 32 33
22 24 26 29 29 28 27 26 25 25 26 26 24 24 26 28 33 35 36 41 44 44 43 43 41 38 39 44 44 44 42 40 35 36 39 42 41 40 28 24 32 33 33
26 30 30 28 28 27 27 28 32 35 33 30 33 36 36 30 26 26 30 34 37 35 33 31 30 29 30 31 33 32 31 30 31 34 33 35 38 52 43 22 30 34 35
30 28 28 29 30 30 30 33 36 32 29 25 23 23 27 33 37 33 28 27 26 27 26 26 25 26 26 27 27 29 33 36 38 38 36 30 29 34 51 54 30 33 34
30 30 32 32 33 33 34 36 35 33 32 29 24 25 33 40 40 38 36 35 36 36 37 37 37 37 37 36 34 34 34 46 77 77 78 70 65 47 48 55 73 58 38
30 32 33 35 35 35 36 35 33 29 29 29 28 31 32 32 34 38 42 45 46 47 48 50 52 53 52 51 48 46 46 45 54 77 85 84 82 92 88 85 71 74 66
32 34 37 37 38 37 33 32 40 40 38 37 38 39 40 41 42 42 43 43 43 43 44 44 44 45 46 48 51 57 62 62 60 58 58 67 76 82 90 90 97 96 79
35 38 38 37 36 34 39 43 44 43 42 43 45 44 45 47 48 48 48 47 46 44 42 40 39 39 38 37 40 46 49 49 49 49 54 64 68 67 64 65 79 82 79
36 41 44 42 39 42 45 48 46 49 50 49 51 51 53 56 58 59 58 55 52 50 49 48 46 45 43 40 37 34 34 39 40 40 41 46 51 54 58 65 69 73 79
44 46 44 42 44 53 54 51 51 54 54 56 57 59 61 62 63 62 59 57 57 56 53 50 47 45 43 40 37 37 38 38 34 32 29 27 26 28 31 44 55 58 67
49 45 42 49 58 56 53 54 54 57 61 63 64 62 64 65 66 66 63 60 58 56 52 47 44 41 39 36 33 32 33 36 35 33 32 30 29 28 26 31 38 45 55
46 50 57 60 55 54 54 56 59 64 67 66 67 70 71 69 68 63 58 56 54 50 46 41 37 31 22 15 15 19 20 22 21 23 25 25 27 29 33 36 35 35 36
54 59 58 57 56 56 64 71 76 75 73 73 73 74 77 75 71 63 59 55 48 38 27 14 6 4 2 1 1 1 2 2 3 10 18 21 28 33 36 42 40 42 46
57 58 61 61 65 65 67 70 67 70 76 82 82 80 76 75 67 62 55 41 22 12 10 9 8 7 6 6 5 4 4 3 3 3 3 7 24 42 52 58 50 55 55
59 61 64 68 71 67 73 86 85 88 89 89 86 81 77 73 68 48 25 14 12 12 11 10 9 8 8 6 6 5 5 4 4 4 5 5 12 42 58 66 71 69 67
66 68 72 74 72 81 84 85 75 71 74 91 89 83 80 70 47 24 15 13 13 13 13 12 11 10 9 8 7 6 5 7 8 8 8 14 33 48 91 88 81 74 72
73 70 77 77 79 81 86 90 77 77 90 90 83 82 74 51 28 15 14 16 16 16 17 16 15 12 10 9 8 7 6 7 10 14 22 36 38 52 100 91 86 83 77
69 80 83 86 93 99 98 86 79 89 94 90 84 66 38 19 14 16 17 20 21 22 23 21 18 15 12 10 9 9 8 8 9 9 9 18 27 34 71 94 92 86 81
87 90 98 100 100 96 90 91 89 90 90 82 58 28 13 14 16 16 20 25 28 28 28 25 21 17 14 11 10 13 14 14 13 11 9 9 15 24 31 62 93 90 86
97 98 98 98 93 87 90 93 94 93 82 46 16 10 13 14 14 18 28 32 32 33 32 27 21 17 13 11 14 19 23 20 17 13 12 10 13 20 24 41 92 95 94
95 98 100 93 91 85 89 95 93 88 74 29 7 11 12 13 20 32 37 37 37 36 30 23 19 15 12 12 16 24 28 26 23 18 14 13 15 20 23 37 82 96 95
96 100 100 100 91 89 98 94 88 74 41 8 11 13 13 26 41 43 43 42 40 30 23 18 15 13 11 14 20 28 31 29 29 24 16 13 13 18 22 41 82 95 94
84 92 95 89 90 98 95 70 25 6 8 11 13 20 38 46 47 46 47 44 32 24 18 16 16 16 18 23 31 35 32 32 30 26 18 13 12 16 24 40 89 81 96
67 73 80 92 97 75 24 9 10 11 14 21 38 46 46 47 48 49 47 37 29 22 20 21 25 30 28 32 39 42 43 47 38 32 24 14 12 15 24 38 78 47 93
73 78 86 81 40 16 13 13 15 26 43 44 43 47 51 51 52 49 43 35 28 22 24 28 33 35 43 40 41 42 51 43 42 37 29 15 14 16 22 33 37 45 92

GFSMW_700_rhum_003.txt.gz
RH
30 30 28 22 22 25 27 27 27 26 25 24 23 22 23 25 30 32 30 30 35 41 45 45 43 43 43 43 41 40 46 46 42 42 41 41 38 33 32 39 37 36 34
31 30 24 24 26 28 28 28 27 26 26 28 30 30 31 31 30 29 29 30 31 35 38 40 39 39 40 41 42 40 38 41 44 44 44 38 30 26 30 33 36 37 40
30 24 26 29 30 30 28 27 27 28 30 28 24 25 24 22 23 25 28 30 29 29 34 37 36 34 34 32 31 31 32 34 35 37 47 43 39 37 29 24 26 28 33
26 27 31 31 30 30 30 30 31 32 30 28 27 22 22 22 23 27 32 34 33 32 31 30 31 32 32 32 32 32 32 31 30 32 40 66 81 88 75 61 42 24 24
27 31 30 31 34 34 34 33 34 34 33 31 29 29 28 28 30 35 40 41 42 42 42 43 44 45 46 47 47 46 45 44 43 52 66 77 75 76 93 98 87 61 50
29 31 32 34 34 34 34 36 35 32 36 39 38 36 35 35 36 38 39 41 41 42 44 45 47 48 48 47 47 47 49 53 57 60 60 58 62 82 89 89 90 78 66
32 33 34 34 36 36 36 36 39 42 43 42 43 41 41 42 43 44 45 46 47 48 48 48 47 46 44 42 41 40 41 42 44 46 47 55 68 72 75 85 84 92 75
35 35 37 38 37 37 39 43 48 50 48 48 49 50 51 52 52 54 56 58 58 57 56 54 52 50 49 48 48 47 45 43 40 42 48 52 52 51 53 59 67 68 67
40 36 38 40 40 41 49 56 56 51 50 52 56 58 59 60 61 62 62 61 60 59 58 56 53 51 51 51 49 48 46 46 44 43 41 42 42 43 43 44 52 75 73
36 39 41 42 43 51 58 56 54 54 55 58 60 63 65 65 64 66 66 65 62 61 57 53 50 49 49 49 47 45 44 43 42 40 39 41 43 42 38 35 32 33 57
39 42 44 44 51 60 57 54 52 55 60 66 70 71 69 69 69 68 66 64 64 61 56 53 52 49 45 41 37 34 30 29 28 29 30 30 34 35 36 36 38 38 39
45 46 45 51 61 61 59 58 58 60 65 67 65 66 70 76 78 75 67 64 63 60 55 49 41 30 18 11 7 7 5 4 3 2 2 4 10 13 15 16 18 24 31
41 38 55 62 65 66 65 67 67 68 72 70 69 71 72 72 69 66 67 67 63 58 49 35 22 15 13 12 11 10 9 8 7 6 5 4 3 2 2 2 2 3 6
47 60 59 67 72 70 72 73 72 75 78 72 70 69 67 58 60 68 70 66 62 54 39 21 14 14 14 13 12 11 10 9 7 6 6 5 5 4 4 5 5 5 6
57 59 63 70 70 71 71 72 79 80 67 74 80 72 62 68 73 72 71 65 50 32 18 15 16 16 16 16 15 13 11 9 8 7 6 5 5 5 5 6 5 13 28
58 64 68 71 72 74 75 70 66 68 71 90 85 67 72 78 79 77 65 45 26 15 16 15 16 17 20 22 21 18 15 12 9 8 6 5 4 4 5 4 8 37 90
64 69 72 76 78 71 67 69 75 89 99 88 68 78 82 84 80 64 41 21 15 14 13 16 23 26 27 27 25 22 18 14 11 9 8 7 6 7 7 7 7 12 33
68 68 67 59 62 80 88 92 100 100 84 69 83 87 86 84 60 34 14 12 12 12 16 24 32 32 31 32 29 22 18 14 11 10 10 10 10 12 12 10 8 8 17
56 60 60 73 87 93 97 100 98 73 74 85 90 92 87 51 22 12 11 11 12 15 28 36 35 35 36 35 26 18 15 12 11 13 15 17 17 16 14 12 9 10 17
56 71 85 99 100 100 99 87 79 79 80 88 92 85 62 37 18 11 11 12 25 37 38 32 38 40 38 31 21 15 13 14 17 22 19 19 24 22 18 13 15 31 36
52 73 84 88 100 99 89 95 88 81 89 93 77 46 12 8 10 11 20 34 36 34 38 39 41 40 31 24 18 15 17 22 45 38 30 31 27 26 21 14 17 25 31
46 55 67 70 80 88 84 88 81 80 82 65 24 9 10 11 17 30 34 32 38 43 44 43 39 32 24 18 16 20 27 41 92 39 36 29 31 32 23 16 18 25 32
46 56 57 56 62 76 74 75 76 66 33 11 11 12 16 31 36 27 29 35 41 45 44 39 30 22 19 17 21 28 32 34 36 40 34 33 38 34 25 18 20 26 34
44 46 50 60 71 75 77 70 43 21 13 12 15 30 37 33 24 27 32 39 45 42 35 29 25 21 21 25 32 37 41 39 43 62 31 39 40 43 30 20 21 24 24
46 50 59 67 73 77 56 32 21 15 14 26 40 42 32 26 23 24 32 38 37 36 33 28 24 26 27 36 49 53 48 51 97 80 40 38 43 40 26 19 20 18 30
42 50 62 73 75 56 34 22 16 20 38 45 43 30 24 23 26 27 24 29 33 29 24 25 30 33 42 47 52 51 49 57 73 46 44 44 49 45 26 19 16 13 20

GFSMW_700_rhum_006.txt.gz
RH
31 30 28 29 24 24 27 28 28 27 26 26 28 30 31 32 31 31 31 32 34 36 38 38 40 45 46 46 46 45 44 43 44 42 36 35 35 36 38 40 38 38 38
31 31 32 26 28 28 30 29 28 28 31 30 28 27 25 24 24 24 26 28 31 33 33 32 33 33 33 31 31 31 31 31 32 32 33 31 31 30 29 29 29 32 33
32 32 28 28 30 31 30 30 30 31 32 30 29 28 26 25 24 24 26 30 32 35 37 37 38 38 39 40 40 42 43 43 44 45 47 48 47 55 50 54 50 46 49
33 28 28 31 32 34 32 32 32 33 31 28 25 28 34 33 32 31 32 33 34 34 35 36 38 38 39 40 40 40 41 41 41 42 45 50 55 83 60 63 62 61 52
32 31 32 33 36 34 35 36 34 32 30 31 36 39 40 40 38 38 39 40 42 43 44 46 48 50 51 51 50 49 47 46 44 42 41 42 44 50 63 49 50 56 67
32 35 35 35 34 37 37 36 36 36 37 41 43 44 45 46 47 47 48 49 51 54 57 58 58 57 56 54 53 52 52 52 52 52 50 47 44 43 45 49 45 47 46
34 36 35 34 38 37 40 41 42 47 49 47 48 50 52 53 54 56 57 58 59 59 58 58 56 55 55 54 52 50 50 51 53 54 54 53 52 50 49 48 46 46 41
35 36 34 38 39 42 44 48 53 53 52 51 51 52 54 57 59 62 63 64 64 63 61 59 57 56 54 51 48 47 47 49 50 50 49 47 46 46 48 52 53 48 44
39 38 37 39 44 45 50 58 56 54 51 50 52 54 57 64 69 70 71 70 66 61 56 55 55 54 53 51 48 46 44 41 38 34 29 25 25 22 27 36 43 54 52
42 38 39 43 44 48 61 62 58 57 56 56 57 58 59 62 66 66 65 62 53 48 51 52 52 52 52 48 40 30 22 16 13 12 10 8 6 4 3 4 14 32 52
40 40 43 45 48 57 66 63 62 62 62 63 63 65 67 67 60 58 55 45 43 46 47 50 54 54 51 40 26 17 15 15 15 14 12 11 9 7 6 5 5 4 16
44 45 44 44 54 64 70 66 65 65 65 64 68 66 60 63 67 58 50 42 50 52 55 57 57 52 41 27 18 17 17 16 15 14 13 12 10 8 7 6 6 6 9
47 47 41 58 62 67 73 69 67 68 69 72 70 69 69 70 79 77 48 55 58 60 60 57 53 42 26 18 17 16 16 15 15 14 14 13 12 10 8 7 6 6 6
48 44 58 63 65 72 73 71 72 74 70 62 67 66 61 85 82 52 58 64 65 64 60 49 32 20 16 16 15 15 17 18 18 17 18 17 16 13 10 8 7 6 6
45 56 60 63 66 71 74 75 80 83 70 70 81 81 93 74 49 60 65 63 66 62 46 26 16 15 13 13 20 22 21 20 18 20 25 23 19 15 11 10 8 8 8
54 55 61 68 71 71 77 78 74 73 74 85 93 96 85 51 61 66 67 69 62 45 24 18 13 10 17 26 25 27 26 27 30 29 25 20 15 12 11 10 12 17 18
56 62 66 66 67 68 65 62 70 82 91 97 98 86 53 64 64 66 69 63 44 18 8 9 18 23 21 22 26 36 38 34 28 23 18 15 12 12 13 18 25 25 21
55 51 52 52 55 56 66 81 93 98 100 95 62 54 65 65 66 61 35 11 8 11 19 21 17 14 18 28 35 36 32 25 19 17 14 14 12 16 26 31 36 31 27
38 36 37 44 47 65 76 85 96 95 69 45 59 66 67 64 40 12 9 13 19 19 12 12 14 18 19 27 32 29 23 19 16 15 16 20 24 23 34 78 45 34 25
22 23 30 35 43 51 50 47 64 59 52 60 66 66 53 23 10 12 21 23 16 10 12 14 19 26 27 25 24 22 20 19 17 17 20 27 37 32 42 50 49 40 24
18 21 25 29 33 43 46 47 47 50 58 62 60 36 15 12 17 25 26 13 11 13 17 18 21 23 24 23 19 19 23 25 28 30 30 34 41 36 48 53 49 43 23
21 23 27 32 39 45 47 46 47 53 57 54 29 16 15 22 32 26 14 13 15 17 18 17 17 19 18 16 19 24 28 33 41 38 41 63 95 55 55 47 47 36 23
26 30 34 40 43 43 42 44 52 58 51 28 18 18 25 34 27 16 13 14 16 15 14 15 14 12 13 17 24 28 28 33 43 45 63 76 54 49 45 46 47 31 25
32 37 40 39 36 37 45 54 59 49 30 20 20 30 33 21 15 16 17 16 12 10 13 13 13 14 18 22 28 29 38 46 50 64 95 43 43 45 46 47 40 26 24
35 38 36 33 37 48 59 59 47 31 21 23 33 34 22 15 14 14 16 11 10 14 16 17 20 24 24 30 45 51 53 52 65 66 48 40 40 40 42 42 30 23 18
35 35 34 36 45 59 58 44 30 22 29 36 31 21 16 16 15 15 10 10 12 15 16 20 24 29 39 46 52 52 51 51 56 52 50 44 45 45 47 40 24 20 10

GFSMW_700_rhum_009.txt.gz
RH
37 35 32 27 28 24 26 28 29 28 28 29 30 29 27 26 27 28 31 33 35 37 38 37 36 36 36 37 38 38 38 39 40 38 36 35 35 36 37 36 36 35 35
35 35 31 32 27 29 30 30 29 30 31 31 28 27 27 26 26 26 27 30 32 33 35 36 37 37 38 38 38 38 38 38 40 40 39 38 35 36 35 36 35 36 38
35 35 32 30 31 32 32 32 31 32 32 31 28 24 26 30 33 33 32 33 34 36 37 40 42 43 45 46 47 48 49 48 48 50 50 47 44 41 40 40 40 40 40
36 34 32 32 34 37 34 33 33 32 30 25 26 32 36 39 40 40 40 41 42 44 47 49 52 54 56 57 57 57 57 56 55 55 55 55 56 55 42 44 45 46 45
32 34 34 36 38 36 37 36 34 29 26 30 38 41 42 44 46 47 48 50 52 54 56 59 60 60 58 56 55 54 53 52 52 51 50 50 50 54 55 44 49 50 50
34 34 37 39 38 38 38 38 35 34 36 42 47 47 47 47 48 52 54 56 59 60 60 59 56 50 45 42 42 46 48 48 47 48 48 48 47 46 39 39 44 44 44
33 36 38 40 40 41 43 41 39 42 47 50 48 46 44 43 44 46 50 56 57 53 46 42 36 32 34 39 43 44 46 47 46 43 38 29 18 13 9 7 7 8 14
36 36 39 41 41 44 44 42 48 51 52 53 53 53 52 52 51 50 52 51 45 38 26 25 32 38 39 40 42 43 43 44 44 39 29 21 16 15 13 11 8 9 8
38 39 41 41 43 45 43 47 55 57 58 59 59 58 55 53 55 52 50 47 48 56 34 35 40 41 41 42 44 45 45 42 34 24 19 17 17 16 15 14 11 10 29
41 42 43 43 45 46 47 54 63 62 63 63 61 56 50 49 55 58 62 65 68 64 39 44 45 44 46 47 46 44 39 33 28 25 24 20 17 16 16 16 15 12 11
45 46 43 45 46 46 52 63 67 67 67 64 62 53 45 59 60 51 48 49 38 40 42 44 47 52 54 52 48 42 39 37 32 23 15 13 14 14 15 16 17 17 14
51 45 48 49 44 49 63 67 71 73 69 66 59 55 67 74 76 69 73 45 40 42 46 50 52 54 51 46 38 27 14 11 12 14 15 14 14 14 17 19 20 20 18
48 49 49 48 46 60 65 69 76 73 69 62 68 76 79 79 70 78 71 39 42 46 48 50 48 41 27 13 10 12 12 11 10 12 14 15 18 20 24 24 22 20 17
48 48 49 48 56 64 68 71 72 71 68 71 81 86 90 79 80 73 42 43 45 46 44 33 16 10 11 12 8 6 7 8 10 12 16 19 23 21 19 18 17 15 14
47 49 48 56 62 67 68 70 68 70 79 78 91 93 75 78 75 44 43 46 44 34 15 9 11 12 7 6 6 8 10 11 11 14 17 18 18 17 16 15 14 15 23
48 50 57 59 62 66 67 64 69 74 87 89 89 53 54 49 39 40 44 40 24 10 11 11 6 6 6 7 9 12 12 13 14 16 16 16 16 15 16 18 23 28 100
53 55 54 53 51 52 64 70 70 76 86 66 39 40 38 39 41 42 36 17 11 12 9 6 6 6 7 8 9 11 13 15 17 16 14 15 17 20 23 24 40 93 48
59 55 45 33 40 57 66 68 74 62 56 44 37 38 39 42 41 30 14 13 13 9 5 6 7 6 7 7 8 11 12 12 12 15 18 19 22 31 36 56 100 59 50
52 37 22 22 31 42 51 56 49 40 39 36 41 42 43 39 24 16 16 15 11 5 6 7 8 7 7 7 8 10 10 10 14 20 22 25 34 41 59 100 68 48 33
32 18 17 19 24 30 34 36 35 36 38 42 46 45 39 23 18 18 19 15 7 6 7 8 8 7 8 9 10 12 15 18 21 22 26 33 41 52 98 82 70 45 38
20 19 20 22 26 30 35 36 36 40 44 49 49 40 26 21 20 21 19 9 8 9 9 9 8 8 11 11 12 16 22 26 26 28 33 37 44 100 70 53 46 46 46
21 23 24 26 29 34 37 37 40 43 48 50 40 28 24 23 25 21 12 10 11 11 10 8 8 10 10 10 15 19 25 32 42 42 40 39 65 42 41 43 43 48 51
26 24 24 28 33 37 37 36 38 44 48 41 31 26 26 29 25 15 13 12 13 12 10 9 9 8 8 12 17 25 32 39 44 46 40 43 42 40 42 43 48 56 46
24 22 26 32 36 36 36 39 44 46 41 31 28 29 28 23 17 17 17 15 14 11 11 11 10 10 11 18 26 34 40 42 45 48 46 48 47 45 46 45 50 47 34
17 21 30 36 38 39 40 43 44 37 31 31 30 29 24 20 19 18 17 16 13 12 13 12 12 15 21 31 40 44 43 49 54 52 52 52 50 46 43 47 48 35 28
22 29 36 41 42 43 44 40 33 34 34 32 29 25 23 22 20 19 17 15 13 14 15 16 21 28 38 42 43 44 48 52 56 56 64 61 58 52 51 48 35 28 22

GFSMW_700_rhum_012.txt.gz
RH
38 37 36 34 30 29 26 28 28 28 28 28 29 30 30 27 25 25 27 31 34 35 36 37 38 38 37 38 39 41 42 44 46 45 42 41 37 32 36 32 34 34 34
34 37 35 32 32 29 30 30 30 30 32 32 31 30 29 27 28 30 32 33 34 35 36 37 39 41 44 46 47 48 47 46 45 44 39 32 25 29 35 35 30 31 34
31 35 36 33 31 32 32 32 32 33 33 32 29 27 27 32 36 38 38 39 40 41 42 44 45 47 49 50 49 48 47 44 42 43 47 44 38 28 27 24 27 27 33
32 36 35 33 33 35 36 34 34 34 32 26 23 26 34 39 40 43 44 45 44 44 45 48 52 52 52 48 44 39 33 29 29 29 30 32 36 38 26 28 27 29 32
36 37 35 34 36 38 36 36 35 31 27 27 31 40 44 44 42 39 38 40 44 51 55 55 49 37 24 20 20 22 24 25 27 31 34 38 39 38 37 26 30 31 26
36 36 35 36 40 38 38 36 34 28 25 30 39 47 47 46 46 47 47 47 47 45 42 36 30 27 19 22 24 26 27 30 35 38 40 40 38 36 33 32 30 29 26
34 36 36 38 39 39 39 37 32 30 35 43 50 54 55 54 50 42 39 42 41 38 37 40 36 23 22 24 27 29 32 34 36 37 37 37 36 33 31 28 30 29 29
38 35 38 40 40 40 41 38 35 35 42 52 57 58 57 53 44 32 34 35 35 36 27 23 22 24 25 28 29 31 32 36 39 41 42 39 35 31 25 20 17 17 20
39 36 39 40 41 42 43 40 42 44 53 59 62 62 58 53 40 36 42 49 52 46 26 26 28 28 28 29 31 31 31 27 19 11 8 8 8 8 8 9 12 21 21
40 38 41 43 43 43 45 44 47 51 62 66 67 64 62 52 43 50 58 56 52 37 29 30 30 29 30 30 24 14 9 7 6 5 4 5 5 6 7 9 12 20 29
42 42 46 46 44 46 48 46 52 62 67 70 73 67 61 54 62 73 72 68 58 35 32 32 32 31 24 13 9 7 5 4 4 4 5 6 8 8 10 12 16 18 22
45 48 51 48 49 50 47 50 61 67 70 74 74 71 66 65 82 80 69 64 38 37 37 34 30 19 10 9 6 4 4 4 5 5 6 7 9 11 14 16 16 16 18
49 52 51 51 51 50 49 56 65 68 70 75 74 76 81 79 90 79 50 34 38 39 36 30 15 11 9 5 5 5 4 5 5 5 4 6 11 13 15 15 15 17 40
50 53 53 53 51 50 53 61 66 68 72 75 73 78 82 89 60 35 34 36 39 38 28 14 12 10 5 5 5 5 5 5 5 4 4 7 10 11 11 12 15 35 94
45 52 54 51 50 52 60 63 67 72 75 72 68 77 89 49 39 35 37 41 38 26 14 14 11 6 5 6 6 5 5 5 5 5 5 7 8 10 13 17 19 48 66
51 54 50 50 53 58 58 61 66 69 76 76 75 80 62 40 36 40 40 36 24 16 16 13 9 5 6 6 6 6 6 6 6 6 6 8 10 15 18 21 33 37 93
52 50 50 56 57 54 50 54 62 77 79 80 83 70 44 36 40 40 35 24 18 19 16 11 6 6 6 7 7 6 6 6 7 8 11 13 17 21 23 26 34 89 100
47 53 59 59 51 38 38 51 63 74 78 64 56 48 37 38 41 36 24 20 22 18 13 7 6 7 7 8 7 7 7 6 7 12 16 17 21 26 32 39 64 100 58
58 62 57 45 28 20 25 37 56 61 49 43 43 37 37 42 38 25 24 25 20 15 9 8 8 8 8 8 8 7 7 6 7 14 18 28 33 34 38 98 100 91 44
63 53 39 21 17 19 23 29 38 41 37 41 41 42 46 39 28 27 28 22 17 11 10 10 9 9 9 8 8 8 7 8 12 18 26 33 35 37 49 93 98 62 40
50 32 20 18 20 22 26 33 39 40 46 46 46 49 41 30 29 29 26 19 14 12 11 11 10 10 9 9 9 9 11 18 22 26 29 33 39 46 43 51 76 59 48
30 21 20 21 22 25 32 39 41 43 43 44 48 42 32 31 30 27 21 17 15 14 12 11 11 10 10 11 10 12 19 28 35 34 36 39 46 50 55 55 57 51 51
23 22 20 19 22 30 38 39 38 41 45 47 40 32 34 33 30 22 19 18 17 14 12 12 11 11 11 12 12 17 25 29 38 45 50 48 54 62 58 56 54 58 59
23 19 17 20 26 32 35 39 42 45 44 35 35 38 37 32 26 23 22 20 16 15 14 13 13 13 13 14 17 24 29 34 42 64 53 56 63 62 60 55 58 60 52
19 17 18 22 29 34 38 42 43 39 35 42 47 46 37 29 25 25 22 18 18 17 16 16 16 16 16 17 25 35 36 39 56 60 54 60 64 60 55 56 57 48 47
15 17 22 26 31 36 41 40 36 41 50 58 58 49 36 30 29 24 19 19 18 17 17 19 20 20 23 27 33 38 40 46 58 56 64 68 65 59 56 54 43 46 90

GFSMW_700_rhum_018.txt.gz
RH
30 34 32 28 32 36 36 34 31 27 26 27 28 27 28 30 31 30 29 29 29 30 33 36 38 40 41 41 39 31 24 21 14 9 7 7 7 8 9 10 9 12 14
29 36 38 34 34 36 34 30 27 27 29 30 30 31 31 32 31 29 28 32 36 39 41 42 41 38 33 29 25 18 12 10 10 7 6 6 6 7 7 7 6 6 6
32 36 37 39 38 36 33 30 30 31 32 32 33 33 31 27 28 33 39 42 42 41 39 37 33 24 15 12 10 9 8 7 8 8 10 9 8 6 5 5 6 5 5
31 38 37 35 37 35 32 32 32 33 33 33 32 28 25 27 33 40 44 45 44 40 33 22 14 12 12 12 10 9 9 9 9 10 12 13 13 10 7 6 5 5 5
31 36 37 35 37 34 33 34 35 35 35 32 27 25 27 32 41 48 50 44 38 32 20 14 13 12 12 10 9 9 10 11 12 12 11 11 11 10 7 6 6 6 7
36 32 37 37 37 35 35 36 37 36 34 30 30 30 32 39 49 52 50 46 39 31 16 14 13 12 11 10 10 11 12 12 12 12 12 11 10 7 6 7 8 8 8
36 32 37 38 37 36 37 39 38 37 35 34 35 37 39 46 53 55 53 47 41 31 16 14 13 12 10 10 11 13 14 13 13 13 11 9 8 6 7 7 8 9 10
36 38 40 39 37 38 39 40 39 39 38 39 40 41 45 52 56 55 52 49 45 30 18 16 13 11 11 13 15 15 14 14 14 13 9 8 7 7 7 7 7 9 10
38 41 40 39 39 38 42 41 41 42 42 42 43 44 50 56 58 59 59 55 48 30 22 16 13 13 14 16 16 14 14 16 15 11 8 6 6 7 7 7 7 6 7
38 39 39 38 39 39 44 42 42 44 46 45 46 49 54 59 61 61 60 59 47 29 20 16 15 16 17 17 16 16 18 18 13 9 7 6 7 7 7 7 6 6 7
35 37 37 38 38 40 44 44 46 47 49 48 49 51 57 63 63 63 65 59 44 29 20 17 17 19 19 17 18 20 20 15 10 8 6 7 7 8 7 6 6 5 7
35 37 39 38 38 41 45 48 49 50 50 50 51 53 61 64 65 66 64 58 44 28 20 20 21 21 19 21 23 21 15 11 9 8 8 8 8 8 7 6 5 6 9
39 38 39 40 40 42 47 51 52 52 52 51 52 58 64 65 66 68 65 63 42 25 23 23 23 21 23 25 21 16 12 10 9 9 9 9 8 8 7 6 7 9 13
38 38 40 42 41 43 50 55 55 55 52 52 58 62 63 67 68 68 73 61 31 26 25 25 23 26 27 22 16 13 12 12 12 11 10 9 9 8 8 9 13 32 52
38 39 39 43 46 48 54 58 58 54 53 58 61 62 64 64 68 73 69 37 29 27 27 26 29 29 24 17 14 15 16 16 13 11 10 9 9 9 13 30 37 48 60
42 42 41 44 48 52 57 59 56 54 58 61 60 58 55 65 68 66 39 31 28 30 28 32 31 26 18 16 18 19 17 14 12 11 10 10 10 12 16 24 32 75 100
45 43 48 50 52 56 59 57 54 58 61 55 48 46 54 56 52 37 31 29 33 30 34 35 29 20 19 23 21 17 14 13 12 12 11 11 13 18 23 24 39 90 100
41 46 52 54 56 60 57 54 60 60 49 35 36 47 40 36 32 30 31 35 31 36 37 33 24 23 26 23 19 16 14 12 12 13 14 14 15 24 35 64 90 100 85
49 53 58 61 60 56 57 62 58 38 23 26 34 33 29 29 32 33 35 32 38 39 37 28 29 29 25 20 17 15 13 12 12 13 15 20 27 35 71 100 100 82 52
56 58 59 56 58 60 62 52 29 21 23 26 27 28 31 33 34 36 35 42 44 41 34 33 30 25 22 19 16 15 15 14 14 14 17 24 36 39 96 100 88 66 64
56 58 60 61 64 60 45 26 22 23 23 23 25 30 32 35 36 39 46 46 42 40 36 33 28 27 22 18 15 15 18 20 20 20 24 31 40 82 91 84 72 71 68
65 64 65 66 53 33 24 22 20 19 20 23 28 31 36 35 42 46 46 48 45 37 35 31 30 25 19 15 14 15 18 22 33 32 35 39 56 66 64 69 66 62 64
70 69 58 41 26 24 21 18 16 19 22 26 31 35 36 44 46 48 50 48 40 37 34 31 27 21 14 12 14 15 17 23 35 43 45 55 66 67 68 64 64 68 66
59 44 29 26 23 18 14 14 16 20 24 31 34 38 43 44 52 55 54 45 41 36 31 27 20 14 12 12 13 16 23 32 39 48 56 67 69 72 65 60 62 70 100
32 28 25 17 13 13 14 15 17 24 32 35 40 42 46 55 56 55 53 47 39 31 27 19 14 14 13 14 20 34 40 44 57 66 65 70 69 57 55 58 81 98 99
27 19 15 16 15 12 12 18 25 32 36 42 43 50 58 59 58 54 49 45 34 28 19 15 16 16 20 23 34 40 42 52 64 65 75 70 60 58 62 89 95 99 98

GFSMW_700_rhum_021.txt.gz
RH
42 39 34 29 26 23 24 30 36 36 33 30 27 29 29 30 33 32 32 32 31 33 36 40 42 42 38 33 28 17 10 9 8 7 6 6 6 6 7 7 6 6 6
48 41 37 32 31 31 36 36 35 32 28 27 28 30 31 32 33 32 31 34 38 41 44 43 40 36 25 15 11 9 9 8 7 6 6 6 6 6 6 6 6 6 6
52 50 38 33 38 36 37 36 32 29 29 31 32 33 34 32 30 32 36 41 44 45 45 39 30 18 12 10 10 9 9 8 7 7 8 7 7 6 6 6 6 6 6
53 51 39 35 37 39 38 35 32 30 32 33 34 33 30 27 27 33 41 47 49 46 42 34 24 13 11 10 9 9 8 7 7 8 8 10 10 10 8 7 7 7 7
57 51 40 35 37 38 37 34 33 34 35 35 34 29 28 29 32 40 50 53 52 47 40 29 17 11 10 10 9 9 8 9 9 9 9 9 10 11 10 8 8 9 9
56 52 43 36 38 37 36 35 35 37 37 36 32 33 36 38 42 49 53 51 46 41 35 27 17 12 10 10 10 9 9 10 11 11 11 12 13 12 11 9 9 10 9
54 47 43 37 39 38 37 36 37 38 38 36 36 38 41 43 49 52 52 50 44 42 37 29 17 13 11 10 10 10 11 12 12 13 14 16 15 12 9 8 9 10 10
46 42 41 39 40 39 38 37 39 40 40 39 41 42 44 46 50 54 54 53 53 48 43 32 19 14 12 12 12 12 13 13 14 15 17 16 14 10 8 8 8 10 11
37 39 45 42 42 40 39 39 41 42 42 44 45 45 47 49 52 57 58 57 58 56 50 34 20 15 13 13 14 14 14 15 16 17 16 14 11 9 8 8 8 8 11
33 38 42 43 42 40 40 41 43 43 44 46 48 48 49 52 56 62 63 63 63 59 47 32 19 16 16 15 16 16 17 18 18 17 14 12 11 11 11 10 10 9 8
30 37 41 43 42 41 42 42 45 45 46 48 51 51 52 55 60 65 65 66 62 52 40 26 19 17 16 18 18 18 18 19 18 15 13 15 16 17 14 12 9 9 8
33 36 40 41 40 41 42 42 46 48 49 52 54 53 54 57 64 67 65 62 56 43 34 22 18 18 20 20 20 20 21 19 16 17 20 23 21 17 12 10 9 9 9
39 37 39 39 40 42 42 42 46 50 54 57 58 55 56 61 66 65 62 56 48 42 27 21 21 22 20 21 22 22 19 18 21 25 26 21 16 14 11 10 10 10 11
42 40 38 40 43 43 43 43 48 54 59 63 58 56 60 65 66 63 58 52 45 30 24 24 23 22 23 25 24 21 21 25 27 25 20 16 13 11 10 11 12 14 18
37 39 39 41 43 44 43 44 50 58 66 61 57 59 65 67 63 57 54 46 30 25 25 24 23 26 27 26 23 25 27 28 25 20 16 13 12 11 12 14 15 20 25
37 40 41 43 45 47 47 48 55 64 63 59 61 65 67 61 52 49 41 29 26 26 24 25 27 30 28 27 27 29 27 26 22 18 15 13 11 12 13 16 20 35 83
42 45 45 45 46 48 51 54 62 64 62 63 66 66 56 43 39 36 29 26 27 25 26 30 31 29 28 29 30 29 28 26 20 16 13 11 11 14 15 15 25 45 93
39 41 41 45 51 52 55 61 66 64 64 66 59 42 34 36 33 29 28 27 27 28 31 33 32 30 31 31 30 29 26 21 16 12 10 11 12 16 25 36 57 96 99
52 50 48 54 58 63 68 65 62 64 63 46 30 29 30 30 30 30 30 27 29 35 36 34 31 33 33 32 30 24 18 14 11 10 12 16 21 28 42 90 100 89 64
56 56 59 63 66 66 64 66 65 55 36 26 27 26 25 28 30 30 28 31 36 40 35 33 36 34 32 29 22 16 12 10 10 10 13 21 35 44 90 100 83 66 65
64 64 66 67 66 66 67 60 45 29 25 24 22 25 27 30 29 29 34 39 41 36 36 37 37 34 29 22 15 11 10 12 14 16 20 28 45 73 76 72 70 67 63
64 65 67 68 69 66 53 34 26 23 20 21 23 25 28 28 31 37 44 45 38 39 42 40 34 30 22 16 11 9 11 17 28 30 34 44 64 69 67 67 63 62 67
70 71 71 70 57 39 28 24 20 17 18 21 24 28 29 34 40 46 44 41 45 47 44 37 32 24 18 11 9 10 12 20 35 42 45 60 65 67 62 60 67 86 99
74 70 59 42 29 25 19 14 15 16 19 23 27 29 37 44 49 48 48 50 52 48 39 33 24 19 12 9 10 12 20 29 36 45 50 62 67 67 62 69 95 99 98
55 40 30 26 19 14 16 16 14 16 23 27 31 38 45 47 47 53 54 56 53 41 34 24 18 12 9 10 17 27 34 39 49 52 56 61 60 53 69 95 98 99 98
38 29 20 16 17 17 15 14 17 22 26 33 40 45 47 48 52 54 56 56 43 35 25 18 12 10 14 18 27 34 40 50 55 55 61 63 54 71 93 93 94 99 98

GFSMW_700_rhum_024.txt.gz
RH
50 52 50 40 34 25 25 27 28 26 26 38 37 35 30 33 36 35 38 35 35 34 38 44 44 43 41 32 20 11 9 8 8 8 8 8 7 7 8 7 7 7 7
55 50 45 40 38 28 26 25 27 35 38 36 33 30 31 34 34 34 35 34 35 39 44 47 46 41 31 18 11 9 8 8 9 9 9 9 9 8 8 7 7 7 7
52 53 50 46 42 31 32 35 38 37 33 29 29 30 33 34 34 33 33 37 41 46 50 49 45 37 26 14 10 9 8 9 9 9 9 9 9 9 8 7 7 8 8
54 55 53 51 50 34 38 37 37 34 31 30 32 35 35 33 30 30 34 41 50 53 54 50 42 31 19 13 10 10 10 10 10 9 9 9 8 8 7 7 7 7 8
55 54 52 53 51 37 38 40 37 33 32 35 36 35 32 30 34 38 43 50 55 54 49 45 36 27 18 13 12 11 11 10 10 9 9 9 9 9 9 8 8 9 9
57 53 54 55 54 39 39 39 36 34 34 36 36 34 32 38 41 44 50 54 53 52 48 41 35 27 19 15 13 12 11 11 10 10 11 11 10 9 9 9 9 10 10
50 53 55 56 50 43 39 38 36 35 36 38 37 35 39 42 44 47 50 52 53 52 48 45 41 29 19 15 14 12 12 12 12 13 12 13 13 13 13 12 11 10 10
58 54 56 56 50 47 40 38 37 37 39 40 38 40 42 44 47 49 52 58 59 57 54 48 40 26 20 16 14 13 13 13 14 14 13 12 13 14 14 13 13 12 13
50 58 57 57 54 50 42 39 38 40 42 41 42 43 45 48 50 54 57 62 63 63 60 52 37 26 19 16 13 14 14 14 14 13 14 14 14 14 16 19 22 22 19
48 56 58 57 54 50 43 40 41 43 44 44 45 47 50 52 54 56 58 63 67 66 63 49 34 24 18 15 14 15 15 15 15 15 15 16 17 20 22 23 23 21 18
50 53 52 55 57 50 43 42 42 44 46 46 47 51 55 56 57 58 61 68 70 68 57 42 29 21 17 16 15 16 16 15 16 17 18 20 21 21 22 23 21 17 13
42 47 53 54 52 48 43 43 44 46 48 48 51 55 60 61 59 60 67 72 72 63 46 32 22 18 17 17 17 16 16 16 17 19 20 21 22 24 23 21 17 14 12
47 47 46 44 45 45 44 44 46 47 50 52 56 61 65 64 61 65 73 74 69 51 36 24 20 18 18 18 18 17 17 18 20 20 22 24 25 24 22 18 14 12 11
44 42 42 42 44 45 45 46 47 48 52 56 61 68 70 64 65 73 76 71 53 40 27 21 20 19 19 19 18 17 18 20 20 22 25 25 22 18 15 12 12 13 14
45 46 43 43 45 46 47 48 49 49 53 59 66 72 67 67 73 75 71 53 39 28 22 21 20 21 20 19 18 19 20 20 24 26 22 18 15 12 11 12 15 20 25
43 47 49 47 48 48 48 49 50 52 56 65 73 70 68 73 72 69 52 40 30 24 22 21 21 22 21 21 23 23 23 26 25 19 17 14 10 9 9 13 18 29 86
37 41 44 47 48 49 52 53 55 58 64 73 71 69 71 71 62 44 36 29 24 23 23 24 24 23 23 24 25 27 28 25 20 17 13 8 8 10 12 16 28 46 91
36 43 47 48 50 54 57 59 59 64 74 71 70 69 66 52 41 34 27 23 24 24 26 26 26 26 28 29 30 30 26 21 18 12 8 8 10 17 27 39 61 79 64
53 50 48 53 57 62 67 68 69 75 71 68 67 54 39 35 31 26 24 24 25 28 27 27 29 31 33 34 32 27 22 20 13 8 8 14 22 31 44 99 76 56 57
56 58 58 61 67 69 71 74 72 70 68 58 42 32 30 25 24 23 25 25 28 27 27 31 35 38 37 34 28 22 19 13 8 6 9 20 33 42 60 64 61 55 51
64 65 67 72 73 72 71 70 68 62 48 33 28 25 24 22 23 25 27 29 27 28 33 35 39 39 36 29 23 17 10 8 8 11 20 29 42 50 59 61 55 52 59
67 69 70 71 70 70 70 64 52 38 29 24 22 21 20 22 25 30 32 29 30 36 38 39 40 37 30 25 18 10 8 13 21 25 31 41 49 55 59 53 54 73 91
67 69 70 72 72 66 55 41 30 24 19 18 19 19 22 27 31 30 30 36 40 39 41 40 36 32 27 19 11 8 9 20 28 34 39 47 52 57 53 59 92 97 93
70 72 73 72 62 44 31 24 16 16 18 16 19 24 29 32 31 34 39 41 41 44 40 37 33 28 21 12 8 8 18 27 33 37 42 50 55 57 60 93 95 95 95
74 69 58 42 30 22 16 17 17 15 17 20 25 29 31 31 36 40 41 43 49 44 39 35 29 22 14 8 10 19 27 33 37 40 45 48 51 51 85 90 97 96 96
54 42 31 20 17 19 20 18 17 18 21 25 28 28 30 36 38 42 46 55 47 41 36 29 22 13 9 10 17 26 31 37 42 41 47 52 53 86 89 91 92 97 95

GFSMW_700_rhum_027.txt.gz
RH
52 59 52 49 48 46 42 32 28 32 35 37 35 32 44 45 43 41 45 44 38 36 33 37 39 41 45 42 34 23 12 9 8 8 9 9 9 10 10 10 10 9 8
48 57 53 52 50 47 41 35 32 31 32 32 32 45 46 42 41 40 38 37 35 35 37 42 47 50 47 37 25 15 11 10 10 11 12 13 13 12 11 11 10 9 8
57 60 54 54 50 46 43 37 34 31 32 36 42 40 36 37 38 37 35 34 35 38 44 51 56 52 40 29 20 14 13 14 14 15 15 14 14 14 13 10 9 9 8
56 59 57 55 53 52 49 39 37 40 40 38 34 33 38 38 37 35 32 35 39 48 55 57 51 42 33 25 18 16 16 17 17 15 12 11 11 11 12 11 10 10 10
56 60 56 54 53 55 53 41 40 39 36 32 31 34 36 36 33 32 38 43 49 54 55 50 43 37 31 26 20 18 18 17 16 13 11 11 11 11 11 11 13 14 12
39 57 56 54 55 54 54 46 41 39 36 33 34 37 36 33 36 41 45 48 52 54 54 53 49 42 36 27 21 19 18 16 13 12 12 12 12 12 12 13 13 10 6
41 49 56 54 57 54 56 50 41 40 36 35 38 38 35 37 43 46 48 50 54 57 60 60 56 48 37 26 22 20 18 14 12 13 14 14 13 13 13 12 9 6 5
43 49 55 59 60 53 57 51 42 39 36 38 40 38 38 43 46 48 50 53 56 57 62 65 62 52 37 25 21 19 15 14 14 14 14 14 15 14 14 14 11 6 6
50 51 56 56 55 55 58 51 44 39 38 40 41 40 43 46 49 50 52 54 57 60 64 66 62 50 31 24 20 17 14 15 15 15 16 15 15 14 14 15 17 18 10
50 52 57 55 55 56 58 53 46 39 40 43 44 44 47 50 54 55 56 58 60 62 66 69 62 43 28 22 18 15 15 16 17 17 16 15 13 12 14 16 19 21 21
42 44 50 58 59 60 57 55 45 41 43 46 47 48 51 55 58 61 63 63 63 67 71 70 56 33 25 19 16 16 17 18 18 17 15 13 12 13 16 18 18 17 17
44 45 53 56 60 60 59 55 45 43 46 48 49 51 53 58 63 68 70 66 67 70 72 66 40 28 21 18 17 18 19 18 17 15 13 14 17 18 18 17 17 16 13
45 50 55 61 62 62 62 54 46 47 48 50 51 54 57 63 70 74 74 69 69 73 73 49 31 22 19 19 20 20 19 18 16 16 17 19 20 19 18 18 15 10 7
49 56 60 61 62 64 64 52 48 49 51 52 55 57 62 69 75 79 73 71 75 78 56 34 24 20 20 20 21 20 19 18 19 21 22 22 20 20 18 12 8 8 9
50 52 56 60 60 59 57 52 51 52 53 55 58 62 68 73 80 76 73 77 80 58 35 24 22 21 21 22 20 18 18 20 22 23 24 22 21 15 10 8 8 13 20
47 54 58 57 54 52 51 51 53 54 56 59 63 68 72 78 79 75 78 79 54 34 24 22 21 22 22 21 20 20 22 23 24 24 23 21 14 8 7 11 17 29 50
50 56 62 62 57 54 54 56 59 62 63 66 68 72 77 80 76 76 71 46 31 24 24 22 22 24 23 22 22 22 22 25 26 25 20 13 7 8 12 18 26 35 54
48 55 61 62 62 64 67 70 69 71 70 70 73 78 79 77 74 58 38 28 25 24 22 25 26 25 23 20 22 23 25 26 25 18 10 6 8 16 25 30 37 43 53
53 58 60 64 68 70 72 73 72 72 72 74 79 78 74 66 46 32 26 24 24 23 28 28 26 22 23 24 24 26 27 25 18 10 6 12 20 27 34 42 42 45 43
56 59 61 63 67 71 73 76 76 75 77 80 75 68 51 35 28 23 22 23 25 29 28 27 26 27 26 28 30 28 25 18 11 6 11 20 29 34 39 45 47 40 45
59 60 63 69 73 75 77 78 80 78 74 69 55 38 29 23 21 22 24 26 30 30 27 26 29 31 32 32 30 25 18 10 6 10 18 24 31 35 42 47 45 55 81
63 64 67 71 75 77 77 74 71 68 57 41 30 24 20 20 22 26 27 30 29 28 26 27 30 33 33 30 25 18 9 7 10 18 23 28 32 38 44 44 62 85 85
66 70 74 76 76 73 72 69 59 45 31 24 18 19 20 23 26 28 31 32 29 28 30 32 33 33 31 26 18 10 7 9 17 26 29 33 36 42 45 66 89 92 92
70 71 73 73 74 70 62 46 31 23 17 19 19 20 24 26 30 30 29 28 31 33 34 33 33 32 27 19 10 7 8 15 25 29 32 36 42 49 68 90 95 94 95
71 73 74 72 62 44 30 21 18 19 19 19 22 25 28 30 29 29 30 34 37 36 35 36 33 28 21 11 8 9 14 25 31 32 34 37 43 64 85 90 95 96 93
72 69 56 41 30 20 19 21 21 19 21 24 28 28 27 27 29 32 36 41 39 40 40 34 29 21 11 9 9 12 23 33 33 32 36 43 61 85 86 87 89 95 94

GFSMW_700_rhum_030.txt.gz
RH
36 45 41 47 57 38 36 46 43 36 34 37 43 45 48 49 41 53 52 76 55 60 44 36 36 39 44 47 46 35 23 15 13 13 14 15 15 15 15 14 13 12 11
34 32 40 53 58 46 47 47 44 39 35 34 37 45 54 55 50 57 47 54 56 52 38 39 41 47 50 45 34 27 20 16 16 18 18 17 16 15 14 14 14 12 11
39 38 51 56 57 53 51 48 43 41 36 33 38 47 50 49 50 48 49 50 50 38 39 43 50 51 43 36 29 24 19 18 19 19 19 17 15 15 14 13 12 12 11
30 36 50 57 58 52 52 48 45 42 38 34 34 40 52 58 49 50 43 38 37 40 45 50 50 46 42 38 32 24 20 20 20 20 18 16 15 14 15 15 14 14 14
24 34 49 61 59 57 52 54 51 43 40 42 43 44 45 46 43 42 38 36 42 46 50 52 52 53 52 46 36 27 22 21 21 20 16 14 13 12 13 16 16 15 12
21 31 52 64 62 58 53 55 55 45 41 40 37 36 40 45 42 38 38 45 48 51 53 55 55 57 58 54 42 30 23 21 20 16 14 13 14 13 14 15 14 8 5
28 26 48 60 61 58 54 54 55 50 42 39 35 37 42 45 41 41 46 50 52 54 55 56 55 56 61 61 48 29 22 21 18 14 14 14 14 15 14 12 8 6 5
23 30 29 42 57 60 54 54 56 55 43 39 36 38 40 39 39 46 50 52 55 56 58 58 57 60 64 63 46 25 22 19 16 15 15 15 16 15 13 10 7 6 6
57 47 34 44 47 60 57 57 56 57 45 40 38 40 41 40 45 49 52 54 57 59 60 60 61 64 66 64 36 24 20 16 16 16 16 16 15 13 12 12 13 12 7
39 44 44 47 50 60 62 58 57 57 46 40 41 43 43 43 48 52 55 58 60 62 64 64 65 68 70 54 27 22 17 16 17 17 17 15 13 12 14 15 17 17 17
21 55 52 52 51 62 59 57 59 57 48 43 44 46 45 47 52 56 59 61 66 70 71 67 69 74 68 34 23 19 17 17 18 18 16 14 13 13 16 18 18 20 20
17 24 48 51 53 60 57 61 61 56 49 45 48 50 49 51 54 58 60 66 72 76 73 71 76 74 43 25 20 18 18 19 19 17 14 13 14 16 18 19 20 19 15
29 46 48 51 58 62 64 65 62 57 49 48 51 53 54 56 58 61 66 71 78 80 74 75 74 50 28 21 19 19 20 21 18 15 13 15 18 18 19 19 16 12 6
58 53 51 54 61 68 68 65 62 58 50 52 55 57 58 60 62 66 70 76 81 78 75 73 54 30 23 20 19 21 21 18 16 16 18 19 19 19 18 15 8 6 9
61 53 54 58 66 70 68 67 66 57 53 56 59 60 62 64 67 71 75 79 80 77 75 55 31 23 21 20 23 21 18 17 17 20 20 20 19 17 11 6 8 14 21
60 58 62 68 69 70 70 69 66 56 58 61 62 63 66 68 72 74 77 81 80 79 51 31 24 22 21 24 23 21 18 19 21 20 20 19 17 9 6 11 19 26 30
54 59 64 68 71 70 67 66 61 60 62 64 66 69 71 73 74 77 82 81 77 44 30 25 22 22 26 24 21 19 20 20 22 22 20 17 8 6 13 18 20 23 38
60 64 69 72 69 64 61 63 65 67 69 71 72 72 74 76 79 83 80 66 39 30 25 23 23 27 24 21 20 20 20 22 23 22 16 7 6 12 19 19 22 31 41
69 75 80 81 75 68 67 69 72 75 78 78 78 78 79 84 84 76 50 33 29 24 23 25 28 23 22 21 21 21 22 24 23 17 7 6 12 21 24 28 29 34 36
70 77 76 71 72 72 75 80 83 83 82 82 81 84 86 76 58 38 31 27 24 23 27 29 25 22 21 22 23 25 25 23 17 8 6 13 22 24 27 33 35 36 55
64 65 68 68 69 74 81 83 85 86 84 86 86 76 58 41 31 28 24 23 25 28 27 26 25 24 24 25 27 27 24 17 9 6 10 18 25 27 30 36 40 61 72
59 60 63 66 71 77 83 85 86 86 81 74 60 44 32 27 24 24 24 26 27 27 26 24 24 28 30 30 27 24 18 9 7 8 17 25 26 30 36 43 68 77 79
65 66 70 75 79 82 83 80 77 72 60 46 31 26 22 24 23 25 26 27 27 25 21 21 25 28 29 27 25 18 8 7 8 15 25 28 29 35 42 74 81 84 86
68 73 76 78 78 76 76 70 60 44 30 24 21 23 22 23 26 27 27 26 23 21 24 25 26 27 26 25 18 8 6 8 13 22 27 29 34 43 74 86 92 94 93
73 74 76 76 74 70 57 39 28 20 20 22 22 22 24 26 26 25 24 23 23 25 26 28 27 27 25 16 8 8 9 14 24 27 28 30 36 65 85 90 94 96 95
73 74 73 66 50 36 25 19 20 22 22 21 23 26 25 23 23 23 24 25 29 33 32 30 28 25 13 7 7 8 13 22 30 28 28 34 51 83 86 86 93 98 95

GFSMW_700_rhum_033.txt.gz
RH
28 31 40 58 56 55 54 48 44 36 40 51 54 52 49 50 61 61 61 54 98 66 61 50 43 39 41 46 47 38 30 22 18 16 18 19 19 18 16 15 15 14 14
28 29 29 41 46 49 52 44 45 47 48 42 38 38 44 52 64 76 62 62 90 100 64 56 42 43 49 46 40 36 31 26 20 18 20 20 20 18 17 15 15 14 14
23 28 30 31 33 42 46 50 51 49 46 43 37 36 42 63 71 76 69 95 86 66 68 44 46 51 48 46 50 49 42 31 22 19 21 22 21 20 17 15 16 16 15
19 22 25 35 36 35 48 53 53 52 46 44 36 33 42 56 68 85 91 86 61 48 45 46 52 51 53 56 56 56 51 36 24 20 21 22 21 19 18 17 17 18 17
14 17 21 27 38 49 54 57 53 50 47 43 39 37 42 60 77 80 77 99 46 43 46 52 54 54 55 55 56 57 55 43 25 19 21 21 18 16 17 19 19 18 15
14 14 22 28 35 55 55 55 54 55 52 42 41 44 52 56 83 94 76 74 43 46 51 54 55 56 57 56 56 57 57 48 26 20 21 19 17 18 18 18 17 14 8
15 15 22 31 36 52 57 57 55 58 56 44 42 41 44 48 95 99 53 42 46 50 54 55 58 58 60 58 58 59 60 46 24 21 18 16 16 16 16 15 10 7 6
25 23 24 33 43 51 62 60 56 58 57 49 43 39 38 96 95 55 46 44 51 53 56 58 61 63 62 61 61 63 59 34 22 19 16 16 16 17 14 10 7 6 7
25 28 24 38 40 63 63 62 56 56 59 56 45 39 46 95 86 52 45 50 52 54 59 63 66 68 66 65 66 66 46 25 20 17 17 17 17 14 10 8 8 8 8
24 21 49 47 40 54 56 61 60 58 62 58 47 41 55 73 47 46 49 52 54 59 65 70 72 74 70 69 69 57 31 21 18 17 18 18 14 11 10 10 10 12 11
26 30 49 51 47 37 42 55 63 62 61 59 49 44 44 47 48 48 53 55 59 65 70 73 77 78 73 72 66 40 24 18 18 19 18 14 12 11 11 12 14 14 14
22 21 32 57 46 42 51 61 66 66 63 59 52 48 48 49 51 53 56 60 64 68 71 76 81 78 76 72 49 26 20 18 19 19 15 12 11 12 14 15 15 14 12
34 22 31 59 60 54 60 64 68 64 66 61 57 52 50 52 54 57 61 64 67 69 74 80 82 79 78 55 30 21 20 21 20 15 12 11 12 14 16 16 14 11 6
57 22 26 22 56 62 64 69 66 66 68 64 63 58 56 58 60 63 65 68 70 73 78 83 82 83 60 33 22 20 22 20 16 14 13 14 16 18 17 14 11 6 6
69 46 49 52 58 68 70 71 70 71 69 68 68 61 61 62 65 67 70 72 74 78 82 84 84 63 34 22 21 22 20 16 13 13 16 18 20 18 15 10 6 8 16
72 60 58 62 67 74 73 74 73 68 67 66 66 66 66 66 68 71 74 76 78 83 87 84 64 34 23 22 23 21 16 14 13 16 20 21 18 15 10 5 10 20 21
65 64 65 69 76 78 77 73 72 71 68 67 69 68 68 70 72 75 78 80 84 88 85 62 31 24 23 24 21 16 14 14 18 21 20 18 16 10 5 8 15 18 24
69 69 71 75 79 79 80 81 79 73 70 71 72 70 70 72 77 81 84 89 88 86 46 27 24 24 25 20 16 14 14 19 22 21 19 16 9 5 7 13 17 19 30
72 74 78 84 83 85 82 81 78 73 73 72 70 71 76 82 86 88 92 87 64 36 25 24 25 26 19 16 14 15 20 21 20 19 15 7 5 7 16 20 20 24 34
78 80 85 89 88 79 75 75 76 76 76 77 82 86 87 87 92 88 68 44 28 25 25 26 24 17 15 13 19 22 20 19 18 15 6 6 9 17 23 22 26 32 51
70 74 83 89 85 83 81 86 92 90 87 87 88 88 93 86 66 46 31 25 24 25 26 21 18 15 15 20 22 22 20 18 12 5 6 9 15 23 24 27 35 55 71
64 73 78 80 84 90 94 94 90 88 89 91 90 81 63 47 32 25 24 25 26 24 19 17 15 19 22 22 20 19 16 7 5 6 8 13 21 24 26 35 61 76 77
67 71 79 79 82 85 89 93 93 90 85 75 62 46 32 24 24 24 26 26 21 19 14 13 17 20 20 19 17 11 4 4 6 7 11 22 25 26 32 60 82 84 84
70 72 74 80 82 84 87 83 80 72 60 43 31 23 24 24 26 26 22 20 16 13 15 18 19 18 18 15 7 5 6 6 6 9 18 26 27 33 53 84 91 92 93
74 79 83 86 84 80 76 69 55 39 28 22 23 24 25 26 23 20 17 14 14 16 18 20 18 16 13 6 6 7 6 7 11 18 24 26 28 43 82 89 94 97 96
78 78 78 79 73 63 47 34 24 22 24 23 24 25 22 19 17 14 14 16 19 23 23 21 19 12 6 8 8 7 8 15 21 22 24 27 36 78 85 88 93 99 96

GFSMW_700_rhum_036.txt.gz
RH
22 24 26 33 43 55 57 55 50 51 51 47 43 47 55 55 55 54 55 63 56 58 100 84 76 53 40 39 46 41 35 36 36 31 24 20 20 21 21 20 18 17 16
25 26 26 27 32 38 51 54 50 51 51 46 42 48 59 62 63 58 62 68 77 80 99 93 69 47 41 47 45 43 49 49 47 39 28 20 18 20 21 21 19 17 16
22 22 24 23 26 32 39 49 52 51 48 45 46 51 45 44 48 52 68 72 83 72 99 94 59 43 47 51 49 50 50 47 50 48 38 23 19 19 20 21 19 17 17
18 18 19 23 24 26 31 42 49 46 42 48 51 46 45 43 48 57 72 90 98 92 100 64 63 47 52 52 51 50 49 51 52 50 46 32 21 20 20 20 19 19 19
21 18 15 20 23 28 29 32 37 41 42 54 49 47 45 39 44 66 88 89 100 90 72 65 47 52 54 54 54 54 54 55 56 56 50 38 24 21 20 20 19 20 19
27 21 16 16 20 27 31 38 42 44 52 53 51 46 42 42 46 75 89 99 99 96 71 49 52 55 57 58 58 58 58 58 59 58 48 30 22 20 19 20 20 19 15
29 27 17 14 19 25 29 47 56 53 57 53 50 47 42 50 68 78 84 100 82 98 59 51 55 58 60 62 63 64 63 62 61 57 40 24 20 19 19 18 18 13 9
23 25 23 16 19 26 32 48 59 59 55 54 54 46 43 47 56 90 93 100 70 54 50 54 58 61 64 67 70 70 68 65 63 50 29 20 19 19 18 16 12 8 8
34 24 28 22 20 30 34 50 59 61 56 57 57 48 43 43 91 63 100 91 89 56 55 60 63 66 69 73 76 73 71 69 60 38 22 19 19 18 16 11 8 8 9
46 30 25 28 24 36 41 58 64 65 58 57 59 54 45 46 66 99 100 97 64 56 60 63 67 72 76 77 79 75 75 69 47 26 19 19 18 16 11 8 8 8 10
31 40 33 31 28 40 43 57 67 64 62 60 61 58 48 44 100 98 100 59 55 59 62 67 73 76 77 79 80 77 77 54 30 20 19 19 16 11 9 9 10 11 11
33 51 33 35 48 45 48 64 63 62 66 63 63 60 49 53 90 99 59 54 58 62 66 73 76 77 79 81 80 81 63 36 20 19 19 16 11 9 10 11 12 12 11
41 51 29 32 57 52 49 58 56 60 67 68 66 60 53 100 70 63 58 60 62 66 72 76 77 78 80 82 84 72 43 21 20 20 16 12 10 10 12 13 12 12 11
46 66 30 27 41 49 52 48 52 66 70 71 66 62 66 73 63 63 64 64 67 71 75 77 78 80 85 86 78 50 22 20 20 15 12 11 12 14 14 14 14 11 6
56 74 43 26 41 54 53 59 70 75 76 73 70 79 71 74 66 68 68 70 73 76 77 78 80 86 89 83 47 21 20 20 15 13 11 13 15 14 15 14 9 5 4
81 73 40 35 60 66 64 76 79 80 80 90 100 97 99 80 72 73 74 76 77 78 80 82 88 90 88 33 21 21 20 15 12 11 15 15 15 15 13 6 4 6 11
86 66 40 25 29 72 80 82 87 90 97 100 100 100 93 76 77 77 78 80 81 82 86 93 92 78 27 22 22 18 15 11 13 16 16 16 15 9 4 4 6 10 18
76 72 72 70 76 89 95 99 100 100 100 100 98 84 79 79 79 81 84 85 88 92 97 93 43 24 22 22 18 13 12 14 16 16 16 12 5 4 4 5 7 16 22
80 83 87 98 96 97 96 91 87 88 83 83 81 80 80 81 84 88 93 95 98 96 61 28 23 23 21 16 12 12 15 15 15 14 7 4 4 5 6 10 17 21 22
85 86 90 92 87 85 86 87 87 83 81 80 79 81 84 90 98 99 100 98 73 36 24 22 23 18 14 11 14 16 15 14 12 6 5 6 6 6 12 23 24 21 29
85 83 87 89 90 89 89 88 83 79 79 82 88 99 100 100 100 97 71 39 25 23 23 21 16 13 12 14 15 14 14 10 5 6 7 6 6 10 21 25 25 31 61
87 93 92 88 86 89 87 83 84 92 99 100 100 100 99 94 68 40 26 24 23 23 18 15 12 14 15 15 14 13 8 6 7 7 5 7 12 18 23 25 34 67 78
85 85 92 88 88 90 99 100 100 100 100 99 100 94 64 40 26 24 24 24 19 16 13 12 13 15 15 14 12 7 6 8 8 6 8 16 18 21 24 33 74 81 81
82 86 90 91 90 96 99 100 100 100 100 92 61 37 25 24 24 24 20 17 14 12 13 14 15 13 13 12 7 6 8 9 7 10 15 18 19 23 34 76 86 89 94
82 88 95 98 99 98 98 99 98 83 56 35 24 24 24 24 21 18 16 13 13 14 15 14 13 13 10 7 6 9 10 10 14 16 18 19 22 35 75 84 95 97 93
88 91 98 100 96 89 84 72 50 30 23 24 24 24 22 19 17 14 13 14 14 15 15 14 14 11 7 7 10 12 14 16 17 17 20 24 40 78 81 88 90 96 94

GFSMW_700_rhum_039.txt.gz
RH
28 23 22 23 41 48 52 55 53 49 49 50 52 53 54 48 49 51 56 62 63 62 62 62 65 85 62 47 38 38 44 39 45 46 45 43 40 32 22 18 19 20 21
25 25 25 21 23 25 41 52 55 54 50 49 52 55 50 44 45 52 63 66 74 70 70 80 97 97 82 48 38 46 43 46 42 42 45 46 43 39 33 25 19 19 19
19 22 26 24 22 24 25 36 54 58 55 51 53 56 49 43 41 51 64 64 69 79 74 99 87 95 97 45 46 48 48 43 47 50 53 52 50 48 41 35 24 21 20
25 23 24 24 23 24 25 25 38 53 54 55 51 51 48 46 46 51 53 60 66 71 76 88 90 100 72 46 50 51 50 50 51 52 55 56 55 51 44 32 23 22 20
36 31 25 20 21 26 28 27 31 36 47 51 49 50 48 49 48 46 47 56 70 81 83 90 100 75 59 50 53 54 53 56 58 60 59 58 57 54 39 26 22 21 20
44 41 28 23 19 19 25 31 31 35 36 44 48 49 50 50 47 46 46 52 73 93 90 94 88 61 51 54 56 57 58 62 65 64 63 63 60 52 32 22 21 21 20
35 37 33 28 22 17 19 24 27 37 34 39 47 44 57 52 49 46 45 62 82 90 81 88 91 67 54 58 59 61 63 68 70 68 67 66 61 45 24 21 21 20 18
25 17 28 27 24 19 17 22 26 38 40 42 45 56 58 52 49 47 50 72 95 86 99 93 95 56 57 61 61 64 69 72 72 70 71 68 56 30 21 20 20 17 12
52 34 25 25 31 22 18 17 27 36 52 55 59 62 54 53 50 54 60 79 81 99 100 70 60 56 59 62 65 70 72 73 72 73 73 65 39 21 20 19 15 11 10
61 49 40 38 30 39 25 21 30 40 60 67 65 57 58 55 51 48 61 93 87 99 88 99 59 59 62 66 70 72 73 73 75 76 72 48 22 20 19 15 11 9 10
60 41 35 39 35 33 35 32 36 45 69 69 62 60 60 57 48 53 94 67 100 99 100 69 63 63 66 70 72 72 74 76 78 77 60 22 20 19 14 11 9 10 12
67 39 29 41 42 43 42 48 44 51 71 69 62 63 62 58 50 57 69 100 79 100 81 67 65 67 70 73 74 74 76 81 81 66 22 20 19 13 10 10 11 12 9
74 38 32 49 45 48 51 54 51 63 72 68 66 66 64 61 56 66 98 100 99 78 66 65 68 71 74 76 76 79 83 82 65 22 21 19 13 10 11 12 11 9 8
77 39 42 57 50 55 64 59 57 69 68 69 71 70 67 63 73 94 97 99 80 70 66 68 72 76 78 79 82 85 85 61 22 21 18 12 11 12 12 10 10 8 4
80 43 58 68 48 40 61 62 61 72 69 73 73 73 71 64 88 100 98 78 70 68 70 75 77 80 83 86 89 88 48 22 21 16 12 12 13 11 10 8 5 4 4
48 64 80 72 40 37 51 54 68 70 71 76 80 77 89 99 100 94 96 75 74 89 83 80 84 88 91 94 92 27 22 21 14 11 12 12 11 9 6 4 5 5 6
77 94 91 61 35 35 38 60 73 72 81 86 99 96 100 100 99 94 85 95 96 83 85 90 95 96 96 66 23 22 19 13 12 13 12 10 9 5 5 6 6 6 7
96 99 78 50 35 64 74 84 93 99 97 100 97 100 100 100 99 98 96 89 87 91 96 96 98 90 30 23 22 16 13 12 13 12 10 8 5 6 6 5 5 6 10
99 93 69 46 70 91 98 100 100 100 99 100 100 100 100 99 92 87 86 92 95 96 98 96 42 24 23 20 15 12 13 13 11 10 7 6 6 7 5 5 8 10 17
96 87 73 81 100 98 98 100 100 100 100 100 99 93 86 86 87 96 94 97 98 97 55 25 24 23 17 14 13 13 13 10 9 7 6 7 7 6 7 14 14 17 19
100 100 100 100 100 100 100 100 100 99 94 90 87 86 90 93 96 100 98 96 60 26 24 24 20 15 13 13 13 13 11 9 6 6 8 8 7 10 14 18 20 22 33
94 99 97 96 95 98 98 94 90 88 90 94 95 95 99 99 97 93 54 25 24 24 22 17 14 13 13 13 12 11 9 6 6 8 8 9 12 14 17 19 24 45 78
96 93 94 90 88 93 97 98 96 94 97 99 99 98 96 84 47 24 24 24 23 18 15 13 13 14 14 12 11 8 7 7 9 9 11 12 13 15 19 28 61 79 81
92 93 95 98 98 97 98 99 100 99 98 96 93 72 39 24 24 24 23 19 16 14 14 13 14 13 11 10 8 7 7 9 9 11 12 12 15 21 42 73 81 87 89
91 94 100 100 100 100 100 100 100 98 89 61 34 24 25 25 23 19 17 14 14 14 14 14 12 10 10 8 8 8 8 9 10 10 11 15 27 59 74 78 85 89 90
89 90 90 95 100 99 99 91 72 47 29 24 26 25 23 20 18 15 15 15 14 15 14 11 10 10 9 8 8 9 10 11 11 11 15 32 65 75 80 82 85 92 93

GFSMW_700_rhum_042.txt.gz
RH
21 24 22 20 20 32 58 64 58 55 51 53 51 48 46 55 56 53 52 48 48 59 64 62 59 57 57 67 67 48 39 39 41 42 35 35 42 45 46 45 43 39 36
16 19 22 23 23 20 31 64 74 72 52 50 53 55 55 54 55 53 50 43 54 63 68 72 72 69 68 70 89 55 40 45 44 40 39 42 41 45 47 48 49 45 39
16 16 16 20 25 24 24 39 60 70 67 54 52 56 56 55 52 49 50 46 49 63 72 75 81 78 88 85 97 80 45 47 45 43 47 48 49 51 52 52 51 48 38
21 22 22 20 23 30 28 25 44 58 68 67 60 55 56 52 52 53 54 50 53 65 72 70 76 85 84 80 95 59 45 49 48 48 53 57 59 59 58 56 54 50 36
30 28 30 29 31 34 43 37 31 47 57 72 63 56 59 59 56 57 54 50 58 64 67 76 83 87 89 97 72 62 50 52 52 53 57 62 63 62 61 57 58 49 29
37 41 42 40 35 28 36 35 38 41 68 77 70 54 58 62 60 56 51 54 54 56 62 74 88 94 94 98 71 52 54 55 56 58 62 65 65 64 62 60 60 47 26
38 36 31 34 28 25 25 26 39 48 55 73 63 37 53 63 64 54 53 54 50 52 60 81 93 96 88 89 74 53 56 58 60 64 65 66 66 64 66 65 53 30 23
41 42 38 33 28 27 30 24 38 52 59 61 47 45 39 48 57 53 57 52 50 55 77 93 99 95 87 85 72 57 60 62 65 66 66 67 66 66 69 60 29 22 21
32 44 47 47 42 30 31 28 24 42 43 40 47 56 57 47 48 52 59 52 53 65 89 98 100 96 96 92 60 60 63 65 67 66 67 68 68 71 65 30 22 20 16
42 47 47 45 49 40 42 30 32 25 31 30 55 61 59 51 51 63 55 54 61 73 98 88 99 100 82 65 60 63 66 68 69 69 70 71 74 70 35 22 19 14 12
53 54 53 38 40 34 43 39 42 41 42 30 56 65 59 59 68 60 56 58 74 94 88 93 94 97 98 68 62 66 68 72 72 72 74 77 72 36 22 19 13 12 12
58 63 64 44 43 33 53 45 39 58 50 39 53 72 75 74 64 61 64 65 92 93 83 99 90 95 95 72 66 68 72 74 76 77 80 76 33 22 18 12 12 12 10
61 69 80 50 39 36 63 62 59 98 38 40 55 79 78 70 66 64 73 94 97 72 100 100 100 93 78 71 71 73 76 77 80 84 78 26 22 16 12 12 12 9 8
77 86 78 54 40 46 98 100 74 94 55 52 64 78 76 72 71 65 84 97 77 100 100 100 98 76 73 82 82 80 83 86 89 72 23 21 14 12 12 11 9 7 5
87 92 80 53 44 59 99 82 58 61 66 67 80 81 81 86 80 78 71 92 100 100 100 99 76 74 92 94 92 93 94 91 51 23 19 13 13 12 10 8 6 5 5
87 97 86 66 66 83 83 44 68 77 73 81 83 82 81 79 90 96 100 93 100 100 96 94 95 98 94 96 97 96 90 27 23 16 13 13 12 10 8 6 6 6 6
95 93 82 57 87 81 46 47 67 78 81 86 88 91 97 98 95 99 100 100 99 98 95 99 96 96 99 97 97 56 23 21 14 13 13 12 9 7 6 6 6 6 6
100 96 88 94 92 72 49 51 62 92 94 96 100 100 100 100 100 100 100 98 98 99 97 95 98 97 97 74 24 23 17 14 14 13 11 9 7 6 6 6 6 7 9
98 98 100 98 72 52 53 57 82 100 100 100 100 100 100 100 100 100 98 98 91 89 95 97 97 86 28 24 20 15 14 13 13 10 8 7 6 7 7 8 9 10 13
100 100 90 64 73 80 95 100 100 95 100 100 100 99 100 99 98 97 88 91 96 97 97 88 28 24 22 16 15 14 13 12 9 8 7 7 7 8 9 11 11 11 14
99 100 100 100 100 100 100 99 100 100 99 99 98 99 96 91 95 94 95 97 98 77 26 24 23 18 16 15 14 13 10 8 8 7 6 6 7 9 10 11 14 20 46
100 99 98 100 99 99 99 98 99 99 98 92 93 96 100 99 97 99 97 56 26 25 23 18 16 15 15 14 12 9 8 8 7 6 6 8 9 9 11 19 42 68 71
100 100 100 99 99 98 97 97 95 97 98 98 100 100 100 100 84 43 26 25 23 19 17 16 15 14 14 10 8 8 8 7 6 7 8 9 9 12 31 61 70 73 74
100 100 100 100 100 100 100 100 100 100 100 100 98 94 67 36 24 25 23 19 18 16 16 14 14 11 9 8 8 7 6 6 7 8 8 9 14 42 61 68 74 76 77
100 99 100 100 100 99 100 100 100 99 93 84 53 29 25 25 23 20 19 17 16 15 15 13 10 8 8 7 6 5 6 8 8 8 9 16 48 62 66 70 73 79 82
100 100 100 100 100 100 100 93 83 63 40 25 25 26 23 20 20 17 17 16 15 14 11 9 8 8 6 5 6 8 8 9 8 8 13 49 61 66 64 66 72 82 87

GFSMW_700_rhum_045.txt.gz
RH
17 20 22 19 15 16 29 65 68 74 71 59 56 48 49 52 49 48 50 45 48 52 48 53 53 60 66 62 59 60 74 55 43 40 42 40 37 41 42 45 47 48 47
14 19 23 27 28 26 26 35 74 78 80 78 66 62 56 58 58 58 58 51 47 55 50 56 62 67 71 75 71 70 82 75 44 44 46 42 42 44 49 52 52 51 50
14 14 13 15 24 29 35 41 48 70 79 80 79 78 69 65 65 64 61 53 49 57 62 59 65 72 71 81 80 91 88 98 61 46 47 44 45 48 52 53 53 52 52
14 15 17 18 18 20 32 39 49 62 68 83 87 84 77 66 58 58 56 56 61 62 67 62 65 74 71 85 89 84 85 93 55 51 52 50 53 55 56 56 55 55 53
17 15 15 20 25 23 22 24 32 50 65 66 79 85 82 75 67 66 66 64 62 60 65 64 67 79 79 84 94 94 97 78 69 53 54 54 56 58 59 58 59 57 58
27 22 19 18 24 30 32 31 36 34 48 64 66 74 83 76 71 67 70 66 64 60 63 63 63 74 78 86 96 98 99 82 57 55 56 58 60 60 61 59 56 54 56
30 36 44 41 37 44 42 37 41 45 41 43 54 66 77 74 76 72 72 73 72 68 62 61 57 70 81 94 97 98 93 81 57 58 59 61 63 63 63 62 61 58 58
37 39 40 36 34 37 30 25 25 32 43 44 41 62 81 78 90 72 76 75 73 70 63 56 59 70 88 100 100 95 95 96 61 61 62 65 66 65 65 65 64 64 60
37 39 38 34 32 32 31 32 23 24 31 42 46 48 63 68 74 64 69 77 74 70 63 55 58 80 99 99 100 98 100 82 64 65 66 69 69 68 69 69 71 65 40
47 51 51 40 37 35 36 36 38 25 31 34 48 50 63 71 64 62 65 74 68 63 62 55 60 96 99 100 100 100 90 71 65 68 70 71 72 72 71 74 64 26 21
69 64 55 52 48 46 43 34 37 33 36 34 51 55 61 63 59 71 80 75 69 67 58 64 86 95 100 98 99 100 94 71 68 71 74 76 76 78 79 66 26 20 15
72 64 60 57 56 50 44 35 33 40 36 46 40 49 51 51 60 78 80 74 72 62 58 94 99 100 99 100 99 100 99 73 74 77 79 83 85 85 67 24 19 14 14
87 71 64 63 64 55 48 37 37 39 52 42 53 54 36 45 83 87 83 76 67 65 81 100 100 100 100 100 100 95 78 76 89 90 91 96 89 54 22 17 14 14 12
85 72 71 69 66 65 47 39 47 59 54 64 75 96 57 85 88 86 81 73 78 79 100 100 98 99 100 100 92 93 90 96 93 96 96 91 38 22 15 15 13 11 8
82 79 75 77 72 69 49 46 88 98 99 99 96 63 73 90 96 94 89 89 99 100 100 100 100 99 98 91 94 98 98 96 97 97 68 24 18 15 14 12 9 7 6
96 87 86 95 83 76 57 62 99 100 100 98 97 82 97 100 100 100 97 100 100 100 99 100 99 99 98 98 99 99 97 97 93 28 22 15 15 13 11 8 6 6 6
98 100 93 98 100 83 99 100 100 100 100 100 87 98 100 100 100 100 100 100 100 100 100 99 99 95 95 98 98 98 96 49 24 17 15 14 12 9 7 6 6 5 6
96 99 98 99 99 100 100 100 100 100 100 96 98 100 100 100 100 100 100 100 99 100 99 97 94 98 98 98 97 54 24 19 16 15 14 11 8 7 6 5 5 5 6
98 95 97 99 99 100 100 99 85 100 100 100 100 100 100 100 100 100 100 100 98 99 97 94 97 99 98 45 25 20 16 15 14 12 8 7 6 6 5 5 5 6 7
100 100 100 100 100 95 82 71 78 100 99 100 99 100 100 99 99 99 99 98 97 94 98 97 88 29 25 20 16 16 15 14 9 8 7 6 5 4 5 6 6 6 26
90 84 71 80 87 79 78 91 100 99 99 98 100 98 98 98 98 99 97 88 94 95 60 28 25 20 17 16 15 14 10 7 6 5 4 4 5 6 6 6 14 41 47
100 94 95 99 99 99 99 99 99 97 98 98 99 99 100 98 94 93 95 80 37 26 25 20 17 16 16 15 12 8 7 6 4 4 5 6 6 6 7 24 49 52 53
94 97 99 99 98 96 98 98 99 99 98 98 97 97 97 97 77 42 29 27 24 19 17 16 16 15 13 9 7 6 5 4 4 6 7 7 6 8 33 50 52 52 49
98 98 99 99 98 97 96 98 97 98 95 93 98 88 48 31 29 27 23 20 18 17 16 15 14 10 8 7 6 5 4 5 6 8 8 7 8 39 49 52 52 52 56
100 99 99 98 99 99 99 99 100 99 99 78 43 31 29 26 22 20 19 18 17 16 14 10 8 7 6 6 5 4 5 6 8 8 7 9 38 53 54 52 56 62 69
100 98 99 99 100 100 100 98 87 63 44 32 29 26 23 21 19 19 18 16 15 12 8 7 7 6 6 5 5 6 8 9 9 8 8 32 52 50 49 54 60 66 72

GFSMW_700_rhum_051.txt.gz
RH
16 17 18 18 31 45 47 49 65 69 61 62 58 47 45 52 54 50 49 55 54 58 60 56 56 54 55 60 59 60 65 72 77 74 78 80 66 49 47 46 45 47 50
23 24 29 30 25 19 18 31 46 72 74 75 73 67 56 58 66 61 57 62 61 58 61 62 59 60 60 57 59 69 74 76 81 81 90 87 76 65 52 50 50 53 53
12 13 15 22 30 32 29 21 25 40 65 77 79 77 77 62 64 54 58 50 57 59 66 71 68 64 64 63 66 70 76 81 78 88 92 92 96 92 67 56 55 55 57
17 17 16 13 12 19 27 33 36 34 33 36 40 51 78 76 67 63 72 76 62 61 64 72 77 71 70 73 75 83 75 83 83 86 93 95 96 89 75 67 58 58 59
15 16 18 17 17 17 17 19 28 35 42 47 48 44 58 78 81 78 77 85 83 77 61 64 77 77 80 87 82 80 74 80 91 91 91 92 87 97 100 81 61 61 61
21 20 21 22 22 23 22 24 25 25 28 35 50 54 54 59 68 77 80 98 92 83 76 71 72 78 90 94 78 75 76 83 92 96 97 98 90 99 100 77 63 65 67
28 29 29 30 30 30 30 30 32 33 32 32 33 56 61 65 63 61 68 80 87 90 86 81 73 73 80 87 82 75 77 85 93 99 100 100 90 99 100 81 67 67 70
34 34 34 34 34 36 39 40 41 41 39 35 33 36 47 64 67 66 68 66 73 87 95 94 80 74 77 82 86 79 75 79 98 99 100 99 94 100 100 99 89 70 72
38 38 38 38 40 39 40 41 42 42 42 39 36 28 29 33 39 50 60 64 69 76 81 86 87 81 73 89 93 84 80 93 96 100 98 100 96 98 100 93 74 72 72
46 44 43 43 46 49 45 50 47 43 48 49 47 44 40 33 26 26 41 51 60 63 75 86 83 82 81 90 93 87 98 100 96 100 100 100 97 98 99 95 80 77 78
67 64 60 57 51 46 50 69 71 67 62 52 52 47 36 27 23 23 28 46 54 62 79 87 86 88 86 87 92 94 100 99 96 98 100 99 99 98 100 98 91 95 95
92 85 72 59 60 68 74 82 77 73 64 60 53 49 33 30 25 30 33 46 57 62 75 87 90 87 71 78 90 100 99 97 100 100 98 100 99 100 100 98 99 97 95
99 99 76 86 68 62 80 76 77 82 70 61 52 40 39 47 39 40 50 54 59 68 87 87 77 73 92 93 96 100 89 100 100 100 99 99 99 98 98 97 97 97 51
94 88 71 79 68 63 76 91 81 76 84 66 54 51 56 59 58 57 69 86 86 89 83 77 87 100 100 100 95 100 99 99 99 99 99 99 98 97 96 96 53 21 17
84 81 80 82 79 87 90 87 83 79 69 66 62 68 78 74 74 67 65 87 89 81 74 74 100 100 100 98 100 100 100 99 99 99 100 99 98 98 54 21 17 16 13
88 82 93 90 88 81 70 72 69 63 57 54 67 77 85 74 73 92 66 85 88 73 70 100 100 99 100 100 100 99 98 97 98 98 98 97 70 21 17 16 14 9 6
94 81 100 99 100 100 100 96 75 86 71 82 86 99 100 94 100 100 84 96 74 84 96 99 100 100 100 98 99 98 98 97 98 88 42 21 18 17 14 10 6 5 4
95 92 92 93 96 100 100 100 88 98 97 98 99 99 99 99 100 98 100 100 100 100 99 99 100 99 98 98 98 96 97 93 59 24 18 17 15 10 7 6 4 4 5
98 97 99 99 100 100 100 100 100 100 96 95 96 98 100 100 99 99 98 100 100 98 99 98 98 98 99 98 96 69 25 20 19 18 15 11 7 6 5 4 4 5 6
95 100 100 100 100 99 98 89 84 85 100 100 99 100 100 98 91 95 97 99 98 98 98 98 98 97 62 26 23 20 19 17 14 11 8 7 6 5 5 5 5 6 6
100 100 98 100 97 90 82 87 81 96 100 93 100 100 100 99 99 99 98 97 96 97 96 62 27 23 21 20 18 15 12 9 7 7 6 6 5 5 6 7 7 6 10
91 98 99 100 97 98 85 88 99 99 100 98 98 99 98 98 97 97 97 87 43 27 23 21 20 18 16 12 9 8 8 7 6 6 6 6 6 7 8 8 6 12 34
93 90 88 93 99 99 93 98 97 96 98 98 96 96 97 95 63 33 26 23 22 21 19 17 13 10 9 8 7 7 6 6 5 6 6 7 9 9 9 7 19 40 40
87 92 91 87 83 83 89 95 92 94 96 91 66 38 28 27 24 22 22 21 18 15 12 10 9 8 7 6 6 5 5 5 7 8 10 11 11 10 9 37 46 44 44
97 88 91 90 89 90 93 91 84 59 34 28 28 25 23 23 22 20 18 15 11 9 9 8 7 6 4 4 4 5 5 7 8 10 13 13 11 11 48 53 48 46 51
97 99 98 88 75 67 57 38 30 29 27 24 24 24 23 21 18 15 11 10 10 8 7 6 4 4 3 4 4 4 5 5 8 10 11 10 21 58 57 52 52 53 59

GFSMW_700_rhum_054.txt.gz
RH
15 16 18 23 28 35 50 56 58 56 60 59 51 44 35 37 48 50 58 53 54 53 59 62 64 61 60 59 61 59 58 65 67 68 71 74 75 81 78 61 51 48 47
23 25 25 26 22 21 24 31 48 58 64 69 70 59 57 53 50 51 64 67 63 56 61 63 68 67 61 63 64 63 65 70 75 75 79 76 84 82 85 82 70 57 51
17 17 23 28 28 26 27 28 26 29 41 42 54 68 75 70 63 51 52 57 69 67 61 66 68 71 69 66 69 69 72 81 86 87 87 83 88 90 85 92 87 66 59
23 19 18 17 16 17 24 29 32 33 31 28 30 48 70 75 76 78 77 73 66 64 66 64 67 74 77 74 72 75 77 88 97 96 94 93 92 96 89 85 85 84 84
22 20 19 19 20 19 20 18 20 30 39 39 38 34 39 54 70 64 60 67 77 71 74 85 70 73 76 79 81 80 84 84 88 98 93 97 100 99 92 98 92 98 95
24 23 23 22 21 21 21 20 22 28 32 36 45 53 54 52 49 44 48 53 68 76 73 80 83 79 76 68 76 87 88 92 88 88 85 98 100 100 99 95 94 98 97
25 25 26 29 31 31 30 29 28 30 37 40 38 39 38 37 52 69 63 53 63 76 75 82 88 90 92 81 78 82 92 94 91 85 83 96 100 99 100 95 100 97 98
33 33 33 32 33 34 35 35 35 36 38 40 40 40 37 38 41 52 64 71 68 65 68 75 83 95 78 84 76 78 84 94 96 84 88 94 94 100 98 99 100 100 99
36 37 38 37 37 37 37 37 37 38 38 38 39 39 39 40 36 34 38 49 61 69 69 66 70 80 87 93 87 82 84 90 98 98 100 98 99 98 100 100 99 100 99
45 43 43 42 42 43 42 40 42 44 43 41 42 42 43 49 48 46 40 32 34 47 57 64 66 69 80 87 83 87 90 92 99 99 97 99 100 99 96 99 100 100 100
73 66 65 61 56 60 57 54 53 49 54 58 53 50 56 54 51 47 38 32 30 29 45 61 64 72 78 85 96 97 92 88 95 100 100 99 100 98 100 96 99 99 99
80 85 79 66 57 58 66 63 46 47 71 77 73 71 64 58 53 45 34 31 26 26 41 59 63 69 73 93 100 100 99 98 93 100 96 100 100 100 100 100 98 99 97
80 80 77 69 59 52 57 49 46 70 83 82 78 72 67 58 51 44 38 39 32 32 45 58 67 72 90 100 99 99 94 80 100 99 100 100 99 99 98 100 98 100 98
74 71 69 46 60 58 48 60 66 67 82 85 77 75 85 65 51 44 42 54 52 50 58 72 72 78 90 87 84 86 92 100 99 100 99 100 99 99 98 98 96 96 86
73 80 47 62 68 59 70 71 81 81 77 80 74 84 72 67 60 56 66 81 81 83 80 87 97 94 93 89 86 100 100 100 97 98 98 99 97 98 98 96 51 19 18
90 74 37 59 49 60 71 86 92 70 63 58 59 60 63 75 90 92 100 100 84 100 100 100 100 100 91 97 97 100 100 99 100 97 98 98 97 97 73 23 18 16 11
87 85 55 40 62 90 100 98 100 100 90 68 71 94 100 88 81 95 97 98 87 85 99 99 98 81 99 100 100 100 99 98 100 96 96 86 47 21 18 15 11 8 7
99 95 88 95 99 100 100 100 100 88 96 95 97 99 98 99 85 98 99 100 100 100 99 99 99 100 99 98 99 97 98 97 90 41 20 18 17 14 10 8 7 6 6
80 100 97 99 100 100 100 100 95 79 90 92 99 98 99 95 99 99 98 99 99 96 100 100 100 98 98 99 98 94 39 22 20 18 14 11 8 8 8 7 6 6 5
99 99 88 96 99 100 100 99 100 83 98 100 100 99 99 99 100 100 100 100 99 98 98 98 97 98 92 56 22 20 19 13 10 9 8 8 7 7 6 6 6 6 7
81 96 100 98 97 68 85 97 99 99 98 99 98 99 98 98 97 97 97 97 97 97 89 60 31 21 20 17 12 9 8 8 7 6 6 6 6 6 7 8 9 9 8
80 73 95 99 90 85 97 100 97 94 94 94 92 93 96 97 97 97 81 46 27 23 21 20 16 11 9 8 8 6 5 4 4 4 5 5 6 7 8 10 10 8 18
80 78 76 88 99 98 93 97 93 93 94 93 96 97 86 47 30 26 22 21 20 17 13 10 9 8 7 5 4 3 3 3 3 3 3 4 6 8 10 9 8 29 37
80 84 84 83 87 87 89 96 94 94 87 59 34 29 27 23 22 21 19 16 12 10 9 8 6 4 4 3 2 2 2 2 2 2 3 5 6 8 8 25 41 40 39
94 89 86 87 88 85 88 88 64 36 29 28 25 23 23 22 20 16 12 10 10 8 7 5 4 3 2 2 2 2 2 2 2 3 4 5 6 21 36 37 37 39 45
98 99 85 74 73 66 50 33 29 28 25 24 24 22 21 18 14 11 11 10 8 7 6 4 3 3 2 2 2 2 2 2 3 4 5 17 30 33 35 37 42 44 52

GFSMW_700_rhum_057.txt.gz
RH
15 15 15 17 21 30 37 44 53 54 51 49 48 46 44 45 43 42 53 60 59 54 56 54 58 59 59 60 61 64 64 64 64 65 66 72 70 70 74 79 78 73 62
17 17 17 15 14 14 17 27 40 48 51 54 58 57 56 54 55 51 46 52 53 64 66 60 57 62 63 63 62 66 69 69 68 70 80 76 74 72 81 85 83 83 84
20 23 24 22 24 23 20 19 21 21 20 24 40 52 58 57 68 64 42 40 49 50 66 71 66 61 62 64 66 68 69 70 73 77 91 87 80 80 85 91 89 84 87
23 22 21 20 19 17 22 28 28 28 29 28 25 25 30 40 49 57 75 80 80 77 66 66 65 74 71 69 71 76 78 78 76 82 88 86 86 77 84 92 97 91 85
23 25 26 25 25 22 20 19 19 20 26 35 39 41 37 37 33 38 62 76 78 78 79 77 70 66 70 72 73 78 84 84 84 85 89 99 97 98 98 83 98 97 94
31 29 28 27 26 25 24 22 21 21 21 24 34 44 52 54 54 55 52 50 50 52 56 63 71 69 71 88 75 75 78 91 92 89 92 98 98 96 98 99 96 94 100
22 24 25 27 29 31 33 32 32 31 26 24 28 35 41 43 46 49 53 58 61 63 61 61 60 56 67 78 89 88 83 84 92 96 100 100 97 92 92 99 96 97 100
32 32 31 31 32 33 34 34 36 36 36 35 33 34 37 39 40 38 36 35 41 59 69 67 66 73 79 80 95 99 91 98 89 90 97 100 99 96 99 90 100 98 99
42 41 39 38 36 36 36 36 37 38 38 38 39 38 38 39 40 40 39 38 42 47 58 70 70 67 66 80 91 96 99 98 94 94 99 99 98 100 91 100 95 87 99
50 52 54 53 52 49 48 48 45 42 44 43 43 45 43 42 42 45 49 46 41 36 38 46 59 64 66 66 72 84 97 100 90 90 98 97 98 100 100 100 92 98 100
58 60 59 55 53 52 50 50 48 51 54 55 53 56 58 50 49 49 51 52 50 47 43 35 44 58 67 70 73 75 85 98 99 100 94 95 99 99 98 97 99 100 100
68 61 54 47 44 47 51 44 48 54 50 44 43 47 64 70 71 69 59 55 54 49 45 34 33 42 55 65 72 83 87 90 99 92 100 100 99 100 100 99 99 100 98
65 54 49 42 33 41 42 36 27 25 24 28 38 50 72 78 73 71 66 60 55 50 39 32 32 32 47 67 74 71 77 86 96 100 100 100 95 97 100 100 99 98 98
75 68 42 28 33 34 23 26 30 29 29 36 48 55 66 74 78 76 71 65 56 48 37 38 41 44 53 74 72 80 99 100 100 98 100 100 99 99 98 98 100 98 98
84 63 42 28 30 32 31 28 28 31 31 39 48 55 60 72 79 84 81 83 67 77 79 47 76 82 85 87 93 99 99 97 97 100 99 98 98 96 95 98 98 97 90
76 61 39 28 31 26 27 27 33 50 50 57 44 51 57 67 80 78 96 96 89 99 100 100 99 100 100 93 98 100 99 100 99 99 99 99 100 98 99 94 50 20 19
79 54 48 56 64 54 64 67 74 68 73 80 86 75 87 92 91 94 98 98 97 98 93 99 100 100 99 99 100 100 100 99 97 95 97 97 96 65 21 20 17 14 10
76 50 59 74 78 88 83 81 77 81 78 80 88 93 90 100 87 98 96 99 99 98 100 100 100 100 98 100 100 98 96 96 96 77 40 22 20 16 12 10 9 9 8
89 76 83 88 80 75 79 78 80 83 92 92 99 100 98 96 98 98 99 99 100 98 98 100 99 99 98 97 98 97 82 28 21 19 15 11 9 8 8 7 6 6 7
83 98 100 100 82 80 69 79 85 86 88 97 99 99 96 100 99 99 98 98 96 97 97 97 97 98 94 67 26 21 19 12 10 9 8 7 6 4 4 3 4 6 7
75 72 100 100 98 68 82 85 95 94 88 96 99 97 96 96 96 96 96 97 99 86 55 28 22 21 18 15 11 9 8 7 5 4 3 2 2 2 2 3 5 7 8
71 67 93 100 97 87 95 96 94 90 89 90 91 91 91 91 78 51 31 24 22 21 19 14 11 9 8 6 4 3 2 2 2 2 2 2 2 3 4 5 6 8 22
75 73 73 86 91 89 90 90 87 84 87 90 87 50 29 26 23 22 20 18 15 11 10 8 7 5 4 3 2 2 1 1 1 2 2 2 3 4 4 7 19 26 29
77 79 79 83 86 87 87 90 88 77 47 30 27 24 23 23 21 18 14 11 10 9 8 5 4 3 3 2 2 1 1 2 2 2 2 3 4 6 15 20 24 29 31
84 82 84 87 86 85 85 68 38 29 28 25 24 25 23 20 17 12 10 10 8 8 6 4 4 3 2 2 2 2 2 2 2 2 3 5 14 20 22 25 28 31 36
95 79 78 75 76 67 46 30 29 26 24 26 25 23 20 16 12 11 10 9 8 7 6 4 4 3 2 2 2 2 2 2 2 3 9 19 22 25 28 30 34 37 41

GFSMW_700_rhum_060.txt.gz
RH
12 12 12 11 11 13 15 18 32 43 48 44 40 42 36 36 37 43 50 47 44 52 53 56 53 57 56 59 59 61 59 59 62 65 63 64 63 63 66 68 68 71 74
13 13 13 12 12 13 15 16 19 25 38 44 42 45 47 44 44 45 50 56 51 55 60 60 60 60 59 58 58 60 61 63 67 70 69 68 66 66 70 73 72 73 77
14 14 16 18 18 17 15 14 14 15 16 20 31 39 45 42 34 36 38 44 51 56 50 54 56 63 69 63 61 64 66 66 68 72 79 73 67 67 76 82 82 81 80
25 24 26 27 23 20 18 19 20 23 26 29 30 27 24 24 27 43 53 60 61 57 64 65 68 63 70 78 73 68 69 73 69 75 75 76 75 78 79 81 83 81 86
30 30 29 26 23 22 22 21 21 22 23 23 26 31 32 34 34 36 38 38 41 59 78 78 78 67 65 66 65 71 74 74 76 77 81 83 85 87 91 83 87 93 97
32 30 29 27 26 25 24 22 20 20 19 19 19 21 27 38 43 45 48 53 51 47 54 64 73 74 71 72 70 68 68 75 86 84 87 91 92 92 94 98 95 93 90
31 29 28 27 26 23 22 23 26 26 27 26 24 24 21 28 39 44 44 48 52 57 61 59 58 64 72 70 73 77 75 77 94 95 89 95 100 99 99 98 98 98 86
29 30 28 27 27 29 30 31 32 33 34 35 35 35 35 31 33 39 42 43 41 39 41 47 55 61 67 75 72 69 72 74 96 95 97 96 99 100 99 98 100 100 99
44 42 40 39 36 35 33 34 36 36 36 36 38 38 39 39 40 41 41 41 41 40 37 40 45 61 70 69 71 66 73 81 86 100 98 100 99 99 100 89 93 92 99
50 51 47 46 44 44 44 44 44 44 45 47 45 44 45 43 43 42 42 42 42 43 42 38 39 52 65 73 73 74 71 79 87 94 99 99 100 100 97 97 98 100 100
52 52 51 48 46 44 40 38 40 45 46 45 47 48 50 55 55 53 48 47 49 55 55 49 43 36 39 60 73 73 74 77 82 92 97 98 98 93 99 100 99 98 100
60 58 56 41 32 29 27 31 28 22 20 19 21 23 25 32 39 45 57 65 66 64 62 56 51 48 45 37 46 63 76 76 79 80 82 90 95 100 100 92 99 100 100
70 64 55 43 30 25 32 30 21 23 25 24 23 23 24 25 27 34 55 71 73 71 68 58 56 52 44 40 35 44 55 68 79 86 88 95 86 100 99 98 99 99 98
75 68 51 44 23 30 35 25 20 22 21 21 22 25 28 31 41 50 61 70 71 72 71 67 60 54 45 44 40 36 53 77 79 84 84 99 100 99 99 98 98 98 97
79 68 58 38 24 26 27 21 19 20 24 29 29 30 33 43 53 53 62 70 77 77 78 70 64 54 59 51 54 46 94 100 97 79 83 99 99 98 99 96 94 91 90
86 66 56 44 34 29 31 30 28 35 41 48 54 61 41 49 53 60 78 88 78 97 98 96 98 100 97 97 100 99 99 87 96 96 99 97 93 96 90 86 96 100 97
98 57 57 50 43 36 37 37 40 50 56 64 70 77 82 78 93 94 82 96 99 96 99 99 99 99 99 99 99 95 98 99 99 99 98 96 83 87 92 81 31 20 15
84 79 68 49 43 37 39 43 48 52 68 76 80 79 81 82 86 91 93 91 83 98 98 99 100 88 99 98 98 98 98 98 97 86 68 63 38 22 18 13 10 8 7
78 77 75 73 50 42 42 41 57 63 72 80 91 81 81 86 92 93 88 94 98 97 98 98 98 100 99 98 99 98 95 71 41 24 20 15 11 9 8 6 4 3 2
72 71 74 93 64 63 43 48 68 73 78 86 81 91 95 99 92 95 95 92 88 95 97 97 97 97 95 78 40 22 19 13 9 9 8 6 5 3 2 2 2 2 3
68 63 68 92 89 59 54 69 75 78 84 87 84 82 84 87 84 85 89 83 64 42 31 23 20 18 14 10 9 8 6 4 3 2 2 2 2 2 2 2 3 3 4
70 65 64 79 73 71 78 89 81 80 83 81 80 81 78 58 38 27 24 22 20 16 12 10 9 7 5 4 3 2 2 2 2 2 2 2 2 2 2 3 3 6 14
73 71 69 68 69 74 81 81 82 83 82 81 55 28 25 23 24 22 18 14 11 10 8 7 5 4 3 3 2 2 2 2 2 2 2 2 2 3 3 4 13 19 21
86 75 75 75 77 80 82 81 86 78 40 28 25 24 24 23 19 15 11 10 9 8 7 5 4 4 3 3 3 2 2 2 2 2 2 2 3 3 8 18 21 23 26
97 80 77 81 82 83 80 63 38 29 27 24 25 25 23 20 15 12 11 10 9 8 8 6 5 4 3 4 4 3 2 2 2 2 2 3 4 12 19 22 24 27 33
98 96 77 75 79 74 56 33 29 27 25 26 26 24 21 17 13 12 11 10 10 10 9 8 6 4 4 4 4 3 2 3 3 3 3 7 17 21 23 25 28 33 39

GFSMW_700_rhum_063.txt.gz
RH
15 11 10 10 10 9 11 15 22 28 38 46 47 33 39 43 43 42 41 42 46 50 50 50 56 58 58 56 54 56 60 58 61 61 60 59 62 62 58 60 58 61 66
11 11 11 10 10 10 10 11 11 14 18 27 36 38 25 29 35 40 41 43 42 50 52 52 52 60 67 69 65 60 60 61 64 63 65 64 64 63 62 63 64 66 70
13 11 11 11 11 12 12 12 13 13 14 15 19 30 22 20 21 22 28 33 42 46 50 54 57 56 65 68 71 73 68 66 67 70 71 69 65 67 67 68 71 73 73
17 14 14 15 16 16 18 18 18 18 18 19 19 21 25 26 24 26 28 31 35 40 56 59 61 65 72 74 65 71 79 79 70 73 75 74 70 70 70 71 72 77 80
28 28 28 28 28 27 24 20 18 17 17 18 22 27 31 32 30 30 33 34 32 34 43 66 75 74 73 72 71 74 73 72 83 80 80 80 81 81 80 80 79 81 84
30 32 31 30 28 26 25 22 21 20 19 18 18 18 18 18 20 24 34 41 46 46 42 40 41 58 77 79 81 77 76 77 77 76 76 75 77 81 89 94 96 96 96
35 32 31 29 28 27 25 23 21 20 19 20 20 22 25 26 25 24 29 44 51 56 55 55 56 51 50 60 70 77 78 78 81 83 78 78 79 83 89 99 100 100 97
33 27 23 24 23 23 22 23 25 28 30 31 32 32 32 34 35 36 34 34 35 37 38 36 38 42 51 62 67 68 69 66 68 75 85 84 84 95 99 96 99 100 100
31 34 37 38 38 37 37 36 36 35 34 34 34 35 36 37 38 38 39 40 40 41 42 41 40 38 37 39 54 68 74 74 75 77 79 76 82 92 100 100 98 100 95
44 45 43 41 41 41 40 40 41 41 42 43 44 44 47 48 45 44 43 42 43 43 44 45 44 44 42 42 47 57 71 82 82 78 80 84 92 96 96 100 98 100 100
48 47 46 46 45 43 39 36 35 29 31 40 46 47 45 46 47 50 52 53 49 47 47 48 49 48 51 50 43 41 52 70 78 83 82 83 86 90 99 100 100 99 98
57 55 53 52 50 38 27 22 24 23 18 15 14 14 17 18 19 21 27 36 37 44 51 60 62 60 59 58 54 52 44 40 54 71 80 85 90 97 99 99 93 100 100
65 60 59 57 45 33 22 20 21 18 18 16 18 18 18 20 22 25 26 26 30 37 48 64 72 71 69 64 60 61 56 44 43 51 60 73 82 83 100 89 100 94 100
82 74 67 55 41 26 24 24 19 20 19 18 18 23 26 26 25 28 29 32 40 49 65 67 71 70 70 71 69 67 54 46 47 52 54 73 98 96 99 85 98 92 95
90 79 64 53 42 29 27 23 23 23 22 25 33 33 34 44 42 32 38 45 53 72 81 82 76 76 74 74 73 70 62 73 68 78 91 100 100 92 93 100 90 85 92
84 82 65 54 47 36 35 35 34 34 36 39 40 42 47 56 54 53 52 58 64 67 70 89 82 95 99 98 85 80 82 100 98 73 96 100 100 100 94 95 93 91 88
79 70 53 48 47 42 38 38 36 43 46 49 53 54 49 57 58 62 66 75 74 72 77 83 87 89 97 95 99 99 99 98 93 98 99 100 98 98 94 83 83 41 24
71 73 70 65 47 42 44 42 42 41 47 52 55 51 53 64 68 70 69 68 72 81 95 99 99 99 95 98 97 97 98 98 99 99 97 76 72 79 46 22 16 11 8
70 70 72 74 69 63 47 43 39 41 58 60 59 55 60 64 68 68 74 77 81 83 88 91 90 95 95 94 97 96 84 82 86 68 35 23 16 11 9 7 5 3 2
65 62 62 78 81 55 50 39 43 62 63 68 68 65 66 72 70 75 80 77 78 85 89 90 85 73 58 43 25 19 14 10 7 7 4 3 2 2 2 2 2 2 2
65 60 60 70 73 64 50 52 64 67 70 70 70 70 72 73 76 73 60 37 25 22 19 16 12 9 7 6 4 3 3 2 2 2 2 2 2 2 2 2 2 2 2
68 65 64 70 72 68 69 73 73 71 71 71 71 72 57 35 25 24 24 21 15 11 10 8 7 4 4 4 3 2 2 2 2 2 2 2 2 2 2 2 2 3 4
79 67 70 67 68 71 71 70 73 73 72 74 56 28 24 24 25 23 18 13 11 9 9 7 6 5 5 4 4 5 5 4 3 3 2 2 2 2 2 3 3 4 13
92 73 74 73 72 72 74 75 75 75 52 30 26 24 25 25 21 17 13 11 10 9 9 9 8 7 6 5 5 6 6 5 4 3 3 3 2 2 3 4 11 19 21
99 86 76 77 76 76 77 74 54 35 29 26 24 26 26 22 18 14 12 11 10 10 11 12 12 11 9 6 5 6 7 6 5 4 4 4 3 4 6 15 20 24 27
94 91 96 80 76 74 71 58 34 29 26 25 27 27 25 21 17 14 13 12 12 12 13 14 14 13 12 9 7 6 6 6 5 4 5 7 8 14 21 24 27 29 34

GFSMW_700_rhum_066.txt.gz
RH
19 18 16 15 17 19 20 23 27 30 32 45 54 37 32 42 46 49 50 47 43 42 44 42 48 53 52 52 54 63 62 59 58 62 65 64 63 65 63 61 61 59 60
34 20 13 12 12 12 12 11 11 12 15 18 29 47 32 25 28 34 44 50 42 37 46 46 43 50 55 58 57 59 65 69 66 63 67 68 69 67 66 65 66 66 65
15 13 11 10 10 10 10 10 10 11 12 12 12 13 17 13 13 13 16 20 30 42 44 47 46 47 57 60 63 64 63 71 74 75 74 74 70 74 73 70 70 70 71
16 13 12 11 11 11 11 12 12 13 14 14 14 16 18 22 19 18 20 24 24 25 41 55 59 56 59 63 72 83 76 75 73 70 67 79 81 80 79 77 76 74 71
17 16 15 14 15 16 17 18 19 20 20 19 18 17 18 22 32 33 30 29 28 28 30 31 39 51 60 70 72 74 73 74 74 73 70 72 84 90 90 89 83 89 95
28 28 28 27 28 28 27 26 24 22 19 18 17 17 18 18 20 21 20 19 22 31 41 40 46 47 49 53 56 62 71 80 84 79 80 77 80 84 98 98 100 99 100
36 32 30 30 29 27 26 24 22 20 18 17 16 15 16 18 20 23 25 25 25 25 30 37 45 49 53 56 58 62 63 64 71 74 77 81 80 80 93 100 99 98 99
37 35 33 30 27 23 20 18 17 16 16 19 22 24 25 27 29 31 32 32 33 34 34 34 34 36 39 39 44 47 55 69 74 78 80 80 77 74 80 85 98 99 99
38 34 29 26 31 33 34 33 33 33 33 35 36 37 38 40 40 39 39 39 39 39 40 41 41 42 42 42 42 42 41 42 46 56 75 87 86 84 84 86 90 97 100
36 33 33 33 32 32 33 35 37 37 38 39 40 41 43 44 45 46 47 48 48 46 45 44 45 46 46 46 46 46 44 44 46 51 63 74 86 90 91 92 94 97 98
40 38 36 35 34 38 40 41 38 33 32 33 29 30 38 45 47 44 42 42 41 45 47 48 51 51 54 55 54 56 54 53 55 53 49 51 68 83 99 99 100 100 98
47 45 44 45 45 46 46 41 27 24 26 26 19 15 14 14 14 15 16 17 20 21 22 25 27 33 40 47 59 64 67 62 64 63 64 53 52 66 83 90 98 100 100
55 54 50 52 52 53 44 30 23 23 22 16 16 16 15 15 17 19 22 24 25 27 28 29 36 52 58 59 64 68 69 70 66 70 75 81 54 62 75 99 99 96 99
69 66 58 58 60 53 36 23 23 22 19 17 17 17 21 30 33 36 40 32 29 31 32 41 56 60 62 63 67 69 70 76 78 76 93 89 58 98 95 82 91 99 94
78 78 72 62 60 50 30 27 27 28 28 26 29 34 35 37 40 40 42 34 40 40 45 49 58 62 68 72 78 78 70 72 80 77 96 94 90 94 94 93 98 96 92
76 75 80 73 56 49 36 35 37 35 34 37 42 46 46 45 43 43 42 48 47 54 57 59 56 65 68 68 89 93 78 85 95 84 93 98 97 91 98 99 95 100 100
74 72 70 58 50 50 43 40 41 37 39 38 44 51 45 42 48 49 47 55 54 55 62 61 56 61 65 67 86 90 98 93 98 94 97 97 99 100 100 98 97 88 78
71 69 67 67 64 54 43 46 42 38 39 44 54 52 43 47 50 46 55 60 58 58 60 71 77 80 80 82 90 97 92 92 92 96 96 95 95 79 60 38 22 14 9
65 62 58 59 63 67 66 62 45 43 42 56 60 56 56 61 56 58 64 60 59 63 71 79 79 76 69 55 52 51 40 26 27 26 20 14 8 5 4 3 2 2 2
66 61 58 60 73 70 58 54 44 47 61 63 67 59 58 61 62 62 63 56 43 50 56 33 15 11 8 5 4 4 3 3 2 2 2 2 2 2 2 2 2 2 2
72 64 60 64 67 66 64 54 61 66 68 71 66 64 65 66 58 39 26 24 23 16 11 10 8 5 5 5 5 4 4 5 4 4 3 3 2 2 2 2 2 2 2
80 66 63 63 66 69 71 73 72 71 70 68 69 67 48 28 24 24 25 20 13 11 10 9 8 6 6 6 6 6 7 9 9 7 6 4 3 3 3 2 2 3 3
89 74 69 70 68 68 70 71 72 70 70 71 62 30 25 24 26 25 19 14 12 10 10 11 11 11 12 11 8 8 7 9 10 11 9 6 5 4 3 3 3 3 4
99 87 70 70 71 72 73 74 72 71 66 40 29 25 24 27 26 20 16 14 12 11 11 12 13 14 15 16 15 14 13 12 12 12 10 7 4 4 4 5 6 11 16
98 90 86 72 72 75 76 75 69 51 35 29 25 24 27 27 23 18 15 14 12 12 12 14 15 17 18 18 18 18 17 15 12 11 7 5 5 6 10 12 18 23 26
92 95 84 89 74 74 75 71 61 40 30 27 25 27 28 25 22 18 16 14 14 14 15 16 18 20 21 23 23 23 21 16 12 8 6 7 7 10 16 21 25 28 29

GFSMW_700_rhum_069.txt.gz
RH
39 32 28 23 21 21 22 28 40 44 38 33 29 28 30 42 48 50 50 49 52 52 49 45 42 40 45 48 51 54 55 57 58 67 65 63 64 60 62 68 66 65 65
27 24 22 22 21 18 17 18 19 22 25 27 30 22 14 14 23 34 42 55 57 52 51 49 43 41 47 52 54 55 61 61 65 67 71 74 69 64 66 71 76 75 73
23 20 17 14 14 14 16 15 14 13 12 12 11 12 13 12 12 13 14 16 23 37 49 44 42 42 48 52 61 61 63 79 73 74 77 76 69 72 70 72 75 78 79
20 17 15 15 14 13 12 12 12 12 13 13 13 13 14 14 13 13 15 17 19 19 22 29 30 28 36 47 49 56 57 61 61 74 86 82 81 87 79 74 78 82 83
18 17 16 14 12 12 12 12 12 13 14 15 16 17 18 18 19 19 18 18 22 24 27 32 38 42 46 50 52 55 56 61 73 69 73 87 92 84 82 86 80 84 96
18 18 18 17 16 16 16 16 18 21 22 23 21 19 18 18 17 17 18 18 17 16 14 14 17 31 41 45 48 52 54 56 59 62 75 75 72 72 94 88 87 97 99
23 28 28 25 25 26 27 27 26 24 23 21 19 18 17 16 16 17 19 21 22 23 24 26 26 24 33 50 46 48 54 62 64 66 65 69 86 98 81 94 97 95 98
33 33 33 32 29 29 27 25 23 20 18 16 15 14 14 15 17 20 23 26 30 32 33 34 35 36 37 37 37 37 39 40 43 44 49 52 63 72 83 83 98 99 99
35 34 34 33 32 28 24 23 22 21 22 22 22 24 24 26 28 31 36 40 42 42 42 42 42 42 43 43 43 44 44 44 44 44 45 44 46 54 66 98 98 99 99
36 36 36 33 30 28 27 26 25 24 24 26 30 32 34 35 37 38 41 43 43 44 47 48 48 45 45 46 46 47 48 50 50 51 50 49 53 53 56 58 66 82 98
40 40 38 36 33 30 28 25 25 30 34 35 32 28 27 24 24 30 38 42 37 25 18 17 18 20 21 24 27 32 38 41 46 50 63 63 63 66 62 57 67 65 81
47 44 42 39 37 35 34 37 39 40 38 26 22 22 20 14 13 13 13 12 12 15 21 19 17 19 25 34 39 48 54 58 58 64 66 69 68 73 71 74 71 97 98
59 57 54 53 50 48 47 49 47 35 25 22 19 16 14 15 14 15 19 22 26 27 26 25 27 29 36 46 50 55 62 59 56 60 62 72 71 75 80 89 83 100 100
58 65 66 62 61 58 56 56 38 24 21 18 16 17 17 18 23 30 32 35 37 38 31 35 36 38 44 51 51 51 56 68 64 64 67 74 78 77 74 79 98 100 98
66 72 68 67 66 63 55 45 28 25 26 28 28 31 33 34 33 36 42 45 44 39 40 43 44 48 46 49 54 54 58 71 77 64 98 81 94 83 100 98 94 98 99
75 73 72 69 69 66 52 40 31 35 35 37 39 42 43 47 47 43 48 46 44 46 45 48 52 54 51 56 58 65 71 77 95 99 93 100 100 97 96 95 99 98 99
75 71 70 70 61 51 50 48 42 39 39 40 38 41 50 46 45 49 48 47 51 50 50 57 62 57 56 58 63 71 78 79 84 93 92 87 88 96 94 90 84 71 61
71 66 67 66 68 68 68 48 49 45 44 41 41 54 52 46 50 51 52 56 56 51 56 60 57 51 34 27 29 22 17 12 12 14 15 15 13 10 10 6 4 3 3
71 66 62 61 60 64 70 70 69 55 48 45 51 58 57 58 59 57 59 58 55 58 62 52 27 14 8 6 6 5 4 3 4 4 4 3 3 2 2 2 2 2 2
74 67 62 58 57 66 75 66 61 54 46 52 63 65 60 61 61 62 53 35 32 30 21 15 10 7 6 7 8 8 8 10 11 11 10 9 7 5 4 4 3 2 2
88 74 64 63 67 66 65 63 53 57 65 66 67 64 65 65 49 29 25 24 18 12 11 10 9 8 9 10 11 11 11 12 14 16 16 16 14 11 8 5 4 3 3
95 86 68 68 65 65 65 63 64 67 71 70 68 67 56 29 24 25 24 18 14 11 10 11 11 12 13 15 16 16 16 16 17 17 18 17 15 10 6 5 4 4 4
100 94 75 67 67 65 66 69 71 72 70 70 69 41 26 24 25 25 20 15 13 11 11 12 13 14 16 17 18 19 20 21 21 21 20 18 13 7 5 4 5 6 8
99 96 85 66 68 71 72 72 73 73 73 66 36 28 24 25 26 23 18 15 13 12 12 12 14 16 18 20 22 24 26 28 28 24 20 14 8 6 6 6 8 11 15
100 98 90 80 70 76 76 75 73 70 55 35 28 25 25 27 26 22 18 15 14 14 14 14 16 19 22 25 28 32 37 37 33 25 18 9 6 7 7 8 12 17 21
94 96 99 91 83 75 76 79 73 66 44 31 28 25 26 28 26 23 19 16 15 15 15 16 19 22 26 29 35 44 46 42 35 25 13 6 7 8 8 9 15 23 27

GFSMW_700_rhum_072.txt.gz
RH
33 32 31 29 29 28 26 24 23 23 27 32 36 41 42 44 45 39 40 42 46 49 48 46 54 54 53 50 48 47 50 52 51 57 58 61 61 60 64 68 70 71 74
34 33 31 30 29 26 25 23 23 25 26 26 27 28 30 32 37 38 35 34 36 39 40 45 48 49 51 55 56 55 53 59 60 65 73 78 70 61 63 72 77 79 81
35 32 31 31 29 27 25 23 21 19 20 20 20 18 17 15 13 12 13 16 20 23 27 31 33 28 26 26 33 36 53 60 65 64 64 80 76 74 76 76 77 78 81
32 31 30 26 24 21 17 16 17 16 14 14 14 13 12 10 10 11 11 12 14 16 19 21 23 23 22 24 28 30 38 51 59 68 72 91 72 72 86 95 93 76 81
34 29 28 24 21 18 17 16 14 13 12 12 12 12 14 15 14 14 14 16 18 19 22 25 40 45 41 41 38 43 59 71 64 64 69 67 68 72 74 68 73 74 86
29 26 24 20 17 17 16 14 14 15 16 16 16 17 17 18 19 18 18 17 16 15 15 17 18 19 20 22 25 32 46 49 50 55 59 59 62 65 69 72 68 88 90
37 40 33 23 19 18 19 20 20 23 26 26 25 24 22 21 20 19 18 17 16 15 14 17 22 26 27 30 31 30 32 43 44 44 44 46 52 56 60 66 63 80 82
38 37 29 23 25 27 27 26 26 27 27 25 24 23 22 21 19 17 16 18 22 25 27 29 31 33 35 36 37 37 38 39 41 42 44 45 46 47 47 50 62 65 65
40 37 38 34 32 31 29 28 26 24 22 19 19 20 21 22 23 24 25 27 29 33 38 42 44 45 44 42 41 39 38 38 37 39 43 45 46 48 49 52 59 62 63
43 41 39 38 35 33 30 28 25 24 25 24 23 22 23 24 27 28 30 33 36 38 41 43 43 41 35 29 23 23 20 21 25 31 35 38 38 42 52 60 61 63 66
42 40 40 38 36 34 32 30 27 26 24 23 25 30 33 33 30 27 25 23 25 32 32 24 14 11 15 17 17 19 26 35 41 48 52 53 54 55 54 60 65 70 68
49 45 43 40 39 37 34 31 29 27 27 33 38 38 30 23 23 19 13 12 12 11 10 13 20 22 20 21 24 31 38 42 43 49 55 50 52 57 63 69 70 78 84
48 48 49 49 46 44 41 37 35 36 40 43 38 26 22 18 15 14 14 13 15 21 26 30 31 25 30 32 34 37 43 43 43 45 50 45 49 58 65 72 77 84 87
58 53 55 62 65 61 56 51 48 47 49 37 25 21 17 16 17 18 20 26 29 30 31 36 31 35 37 39 39 43 47 44 43 46 49 52 55 59 64 80 82 100 98
50 53 69 72 71 69 64 59 57 54 37 27 24 25 26 31 33 34 33 36 40 38 39 39 40 43 46 47 43 48 49 50 54 56 58 59 69 78 96 97 97 95 100
48 66 73 70 70 69 66 65 56 42 30 31 34 35 40 42 44 46 42 42 42 40 46 47 51 51 52 50 53 53 53 46 35 37 49 58 67 72 77 87 94 92 93
62 78 74 71 70 68 61 54 51 44 37 39 38 41 37 45 47 42 46 44 43 51 52 52 56 59 57 49 29 14 8 6 5 4 5 6 6 4 4 7 10 8 7
82 81 72 69 65 63 66 66 56 46 44 44 43 41 44 52 45 48 51 51 57 56 52 55 56 39 14 9 8 7 6 7 8 8 9 8 7 5 4 4 3 3 3
85 79 70 67 63 62 62 65 68 67 53 48 46 44 57 58 59 60 59 57 56 52 54 46 22 11 8 8 10 11 12 14 15 16 17 17 16 14 11 9 7 5 4
86 81 71 65 61 59 63 66 68 68 71 66 49 50 67 65 64 62 58 45 43 41 27 16 9 8 9 10 12 13 15 16 17 19 20 22 22 22 20 17 13 9 6
93 88 80 66 63 63 66 63 63 58 48 49 63 76 70 66 65 49 26 24 21 14 11 10 10 10 11 13 16 18 19 20 21 23 24 25 27 28 25 18 13 8 4
99 95 88 69 65 63 64 63 58 56 66 72 76 74 70 67 37 24 25 22 15 12 10 11 12 13 14 16 17 18 20 21 24 26 29 32 31 27 18 11 6 5 4
98 99 96 79 66 65 64 67 70 71 73 74 72 72 62 28 24 25 24 18 14 12 11 11 12 13 14 16 18 21 24 28 33 37 37 32 26 18 10 6 6 5 6
99 100 99 88 71 69 68 67 68 70 71 73 74 50 28 24 25 26 22 17 14 12 12 12 13 14 17 20 24 28 33 40 42 42 39 33 25 14 7 7 7 6 6
96 98 99 95 85 74 74 74 74 76 74 70 47 30 25 24 26 25 21 17 15 14 14 14 15 17 20 24 28 33 40 45 46 45 43 35 22 9 7 8 7 7 8
95 94 95 98 100 88 80 78 78 78 70 52 34 29 25 25 27 26 23 20 17 16 16 16 17 19 22 25 29 33 42 48 49 49 47 40 22 9 7 8 8 8 9

GFSMW_700_rhum_075.txt.gz
RH
44 48 47 44 40 35 30 26 27 31 34 34 29 29 33 41 42 42 41 42 41 41 43 45 49 46 44 52 54 59 57 57 55 56 55 57 60 65 68 67 68 67 67
40 38 38 38 36 34 31 29 28 27 26 24 23 25 29 34 38 40 43 41 37 36 35 39 42 48 54 46 42 39 38 36 40 55 69 67 70 67 71 64 65 68 80
38 31 36 36 36 34 32 32 31 28 24 22 22 22 20 20 21 22 23 21 17 15 15 18 30 33 25 23 24 25 24 24 31 35 55 66 70 72 69 75 79 71 76
39 37 36 37 36 36 36 32 29 26 25 23 21 19 18 16 16 14 14 14 15 16 17 18 19 20 22 23 26 28 28 33 38 47 53 61 68 66 66 70 65 67 74
48 46 44 35 34 34 31 27 23 19 17 16 15 14 14 14 13 13 13 14 16 19 24 26 25 25 28 30 41 49 37 36 32 39 52 59 54 54 56 55 53 57 63
50 46 43 41 36 34 32 27 22 17 16 13 13 13 14 14 14 15 15 18 19 20 19 17 18 19 20 22 23 24 24 28 42 39 48 58 57 55 55 50 52 52 51
45 46 43 40 36 32 29 22 18 15 14 14 16 17 18 21 22 22 23 22 21 19 17 16 16 17 21 25 29 32 35 36 37 38 39 41 42 43 44 45 49 46 45
32 36 38 38 38 34 26 20 20 22 24 25 25 25 26 25 25 24 23 21 20 18 16 17 20 24 28 31 35 37 40 41 41 43 43 44 42 42 43 46 46 46 50
36 36 40 45 45 37 30 30 30 29 28 27 26 25 24 22 20 19 20 20 22 25 28 31 34 36 40 43 45 46 44 42 40 36 28 26 25 29 35 39 44 46 43
42 47 48 45 40 39 37 35 33 30 28 26 24 25 26 26 25 24 24 26 31 34 37 39 41 43 43 43 42 36 26 20 19 19 26 35 40 45 51 54 52 50 48
46 47 44 44 40 39 37 35 33 31 28 26 25 24 22 22 24 29 31 31 26 23 23 24 29 30 23 14 15 19 18 18 23 32 40 39 41 48 52 47 44 43 49
51 47 41 39 38 38 38 37 36 34 32 29 26 25 25 32 37 35 26 22 19 14 13 12 11 11 18 24 24 24 26 30 36 40 39 40 43 46 42 40 44 47 53
55 52 47 43 43 44 45 45 42 40 36 34 34 37 42 41 29 23 19 15 14 14 14 18 21 28 32 29 31 36 38 38 39 38 38 38 40 41 43 45 49 54 62
54 51 50 53 54 55 59 60 57 54 50 49 49 49 43 27 21 17 16 17 19 23 28 30 31 33 34 34 40 42 39 41 42 43 43 44 48 48 50 53 63 60 67
52 55 52 51 64 72 71 67 64 62 58 57 56 44 26 22 24 30 33 34 32 32 37 38 39 37 39 44 47 44 46 46 46 40 43 52 56 50 46 44 50 46 35
56 53 50 61 74 71 69 69 68 63 63 59 44 29 31 34 37 41 44 45 44 43 42 41 42 46 50 52 49 48 42 13 8 8 6 6 6 5 4 4 3 3 3
57 54 54 76 75 69 68 69 67 58 59 50 35 37 37 41 36 43 46 43 46 44 45 49 50 54 58 51 39 15 8 9 10 11 11 11 11 11 10 9 8 8 7
58 56 71 80 73 68 66 64 64 70 59 53 43 42 39 38 40 49 43 48 48 51 53 53 59 60 38 14 8 9 12 12 14 17 18 18 19 20 21 21 21 20 18
58 64 84 79 71 67 64 61 62 67 72 68 51 50 43 39 48 54 54 54 56 52 54 61 50 19 11 8 10 12 14 16 17 19 20 22 23 24 25 26 27 26 23
60 84 86 82 72 66 62 60 63 68 74 74 72 52 44 45 58 58 60 60 56 56 57 34 18 10 8 9 11 13 16 18 20 20 21 22 24 27 29 31 30 25 18
83 92 91 86 77 67 64 64 66 67 60 62 69 64 50 64 65 66 65 56 51 43 23 15 10 9 10 11 14 16 18 18 19 21 24 29 33 35 35 31 25 18 10
91 94 95 87 82 68 67 65 66 60 57 58 63 67 73 69 70 69 39 25 23 16 12 11 11 12 13 14 15 16 17 20 24 30 36 38 38 36 33 30 21 11 8
88 99 94 96 87 70 69 68 69 71 71 72 75 77 72 71 71 39 25 24 19 15 12 11 11 12 13 14 15 18 22 27 33 39 40 40 39 37 35 30 18 10 9
99 93 100 99 94 78 73 71 69 69 70 70 70 70 71 67 33 24 25 23 18 15 13 12 12 13 14 16 19 23 28 32 38 42 43 44 43 41 36 30 17 10 8
94 97 98 99 100 97 78 76 74 73 72 71 72 72 57 31 26 25 26 23 19 16 15 14 14 15 17 19 22 25 29 32 36 42 44 46 46 45 43 36 22 12 9
95 96 98 99 98 99 99 83 77 78 78 76 68 52 34 29 25 25 26 25 22 19 16 16 16 17 18 20 22 24 27 29 31 37 43 45 47 50 49 44 33 16 10

GFSMW_700_rhum_078.txt.gz
RH
59 55 50 46 42 40 37 34 32 29 28 28 29 32 31 32 32 36 42 45 45 44 44 43 42 44 45 44 48 57 64 58 58 43 36 39 39 51 63 69 74 68 67
60 56 49 45 44 42 41 40 38 33 28 28 28 27 26 24 26 30 34 40 41 44 45 40 34 36 32 28 35 48 44 27 26 31 33 26 28 33 49 66 77 70 67
54 55 54 49 44 36 37 36 34 32 30 30 29 27 24 22 21 22 24 25 26 27 25 21 17 16 16 19 19 20 20 22 27 38 40 39 40 46 53 62 68 64 63
50 43 47 53 47 34 33 34 35 36 35 34 31 29 26 24 22 21 19 19 19 20 18 16 16 18 19 20 24 27 29 33 37 52 45 43 41 47 44 49 46 49 56
44 41 42 41 38 36 36 37 36 34 32 30 26 22 19 17 15 15 15 16 15 15 16 18 18 21 23 23 22 24 27 30 35 26 24 42 36 33 37 37 44 48 44
46 46 48 46 44 42 38 35 33 32 29 25 22 18 16 15 13 13 13 13 13 14 16 19 22 21 20 20 20 21 22 23 24 27 30 32 33 34 35 37 38 39 38
48 50 52 54 53 47 44 42 40 33 27 23 18 16 14 14 14 15 16 17 18 20 22 22 21 20 18 18 20 23 27 30 33 35 37 39 41 42 42 42 34 32 30
32 38 48 58 57 51 47 44 38 32 26 20 16 15 17 19 20 20 20 22 23 22 20 19 18 16 16 20 25 29 32 37 42 45 47 46 45 43 35 28 31 36 38
31 31 37 43 49 48 39 35 33 31 24 20 21 22 24 25 25 25 24 22 20 18 18 20 23 26 28 31 34 39 45 48 49 46 38 32 25 22 28 37 42 47 46
32 29 30 37 45 49 45 42 34 31 32 32 30 28 26 25 24 23 23 23 22 21 21 24 28 32 35 38 41 45 45 43 25 18 18 18 24 34 41 42 45 50 47
33 40 47 53 55 53 47 41 38 37 36 35 32 30 28 26 25 23 21 21 24 30 32 28 24 23 24 27 31 24 15 20 21 21 23 30 35 37 38 42 42 41 39
53 59 61 58 51 46 45 42 39 37 35 34 32 30 28 26 24 23 26 33 35 29 23 20 15 14 13 12 14 22 26 25 30 33 35 36 34 36 39 38 41 42 38
56 57 55 51 46 44 41 42 42 40 38 36 34 31 29 28 29 32 38 35 24 19 16 15 15 16 21 24 32 32 30 37 38 38 38 38 39 41 44 46 46 44 55
58 63 60 54 49 48 53 51 52 52 51 48 45 43 43 43 44 43 31 21 17 17 18 20 25 30 31 34 35 34 40 42 40 41 41 40 44 48 50 51 50 52 49
50 58 52 63 65 60 63 67 66 62 61 60 58 54 52 53 46 28 22 26 33 35 34 32 34 42 40 38 40 44 46 44 42 26 16 17 17 13 9 8 5 5 5
52 54 62 57 54 60 71 68 66 66 64 63 62 62 57 45 30 32 37 41 42 44 44 45 44 44 44 49 51 50 48 27 10 9 9 10 10 12 12 14 14 14 14
48 58 58 57 56 73 77 71 68 67 66 62 58 60 45 36 39 42 40 40 46 42 45 45 47 53 54 54 51 49 21 8 11 13 14 17 18 19 20 21 22 23 24
59 60 59 59 62 82 78 70 67 64 63 65 66 57 44 43 42 41 41 50 46 47 47 53 55 58 58 52 28 9 8 12 14 17 18 20 20 21 22 23 24 26 28
64 62 61 61 83 83 75 68 65 64 64 67 71 70 55 48 46 44 49 57 55 55 57 57 61 62 41 15 8 10 12 14 16 18 20 20 20 22 25 29 32 32 31
66 63 63 65 86 85 77 66 64 63 67 70 75 76 72 54 51 48 59 63 63 61 62 61 57 26 11 8 9 10 12 16 18 19 19 21 26 32 35 34 33 31 28
66 63 63 89 92 86 78 66 65 65 66 68 64 68 75 70 54 57 66 68 67 63 61 43 22 12 9 9 10 12 15 16 17 18 24 30 36 36 36 35 33 31 27
65 86 94 92 92 86 79 68 68 66 67 62 65 55 60 65 65 72 69 67 64 59 37 19 12 10 10 12 13 14 15 16 20 25 32 37 38 38 39 38 36 33 27
87 91 94 98 95 95 80 70 68 68 69 69 65 70 71 75 75 73 70 49 31 23 16 12 11 11 12 12 13 14 17 20 25 30 34 37 38 40 42 42 40 37 31
92 91 97 94 100 97 90 74 71 69 69 70 73 76 78 75 74 74 51 25 24 21 17 14 13 12 12 13 15 17 20 24 28 31 33 35 38 41 42 46 46 44 40
98 98 97 94 100 99 100 97 76 72 71 70 70 71 72 74 72 46 26 25 25 22 18 16 14 14 15 16 17 19 22 24 26 29 30 32 35 38 40 42 46 50 51
97 95 97 98 100 99 97 100 97 78 75 74 75 76 76 64 40 29 25 25 26 24 21 19 18 17 17 17 18 19 21 23 24 26 27 29 30 32 34 36 39 46 58

GFSMW_700_rhum_081.txt.gz
RH
66 59 55 50 44 50 48 45 44 47 43 41 42 42 41 36 32 31 37 36 38 44 46 45 46 49 50 52 48 46 46 42 43 43 44 23 25 34 37 33 40 54 65
83 83 72 61 52 46 45 42 38 37 34 32 29 27 27 29 29 30 28 28 32 38 43 45 46 49 50 46 36 31 20 28 25 22 19 24 27 36 39 39 42 49 57
67 65 62 58 54 51 48 45 43 41 38 35 33 28 27 26 26 26 24 22 23 23 25 26 26 27 25 19 16 16 16 16 18 24 28 31 32 43 35 29 24 35 53
64 60 57 58 54 51 48 47 36 33 32 30 29 29 29 28 27 26 25 23 22 20 19 18 18 16 15 14 15 16 18 20 19 20 23 29 34 24 22 25 27 30 35
61 56 54 50 48 46 49 48 42 33 32 34 34 33 31 28 25 22 19 17 15 14 15 16 16 16 16 17 19 21 20 19 17 18 18 21 25 28 32 34 37 38 38
57 54 53 49 44 42 46 42 40 41 41 40 37 32 29 25 22 18 15 13 12 12 13 13 15 16 18 20 21 20 19 18 17 20 29 36 32 34 38 40 40 38 35
37 44 50 49 44 41 42 43 43 42 41 39 38 32 25 22 18 15 13 13 13 14 15 18 20 21 22 22 20 20 22 24 25 28 36 35 38 42 43 41 37 25 21
38 32 38 50 49 50 51 53 54 49 47 44 41 31 23 19 15 15 16 17 19 21 23 24 23 22 21 19 18 19 22 26 30 34 38 43 46 46 42 30 22 25 33
36 34 37 40 48 50 51 55 57 54 48 39 32 27 22 18 17 19 21 23 24 24 22 20 18 18 19 21 25 28 32 36 40 44 46 45 39 24 22 22 31 40 43
34 33 32 35 37 44 53 56 58 54 44 35 32 29 24 23 24 24 24 24 22 21 20 19 18 19 21 25 28 32 36 38 39 40 31 17 19 20 27 35 39 41 44
31 36 33 34 36 53 62 62 55 46 43 36 33 31 29 30 29 27 25 23 21 20 18 18 21 28 29 25 22 22 24 28 20 18 23 24 28 35 35 36 37 40 38
36 37 45 51 60 63 64 60 55 48 42 39 38 35 32 31 28 26 24 23 21 20 22 29 32 25 21 16 14 13 12 16 26 27 32 36 37 36 34 35 36 41 42
40 43 55 62 68 66 60 53 48 45 43 40 37 34 32 29 28 27 26 24 24 29 35 29 20 17 15 15 16 19 25 32 30 36 38 38 38 37 39 42 45 49 49
42 48 52 55 54 51 49 50 47 46 47 45 43 42 41 38 35 33 34 35 39 37 24 18 17 19 21 26 30 33 35 33 39 41 42 38 31 34 28 22 16 8 6
50 48 54 59 56 53 56 63 65 63 62 59 57 61 58 56 52 47 47 44 35 22 27 35 36 33 31 35 40 39 41 45 45 44 20 11 9 8 8 10 12 14 15
64 59 54 58 54 62 58 57 64 73 71 68 64 62 64 61 61 54 48 31 27 36 42 45 46 46 44 44 44 48 51 49 28 9 9 11 13 16 18 19 20 21 21
66 59 56 55 62 58 56 56 74 77 71 67 64 62 57 57 58 46 37 39 41 40 47 45 47 47 49 54 56 57 51 15 8 10 14 17 18 20 20 21 21 22 25
55 64 60 62 61 59 55 70 78 74 70 67 65 64 70 63 54 44 46 45 43 49 48 48 50 55 60 63 61 49 13 7 11 14 17 18 20 19 20 23 28 31 32
52 56 65 63 62 60 73 83 80 73 68 68 65 66 69 76 63 50 47 44 48 54 54 56 60 63 67 62 27 8 8 11 14 16 18 19 19 20 28 32 32 33 32
55 58 65 64 64 66 79 87 83 72 68 66 66 69 73 76 76 59 54 49 56 62 63 64 66 69 50 16 8 8 10 12 14 17 17 18 22 30 34 34 34 34 33
60 61 65 67 64 65 87 88 82 70 67 67 68 70 72 69 79 75 59 57 68 68 68 69 68 42 13 8 8 9 11 14 16 16 18 24 31 35 35 34 36 38 36
61 63 69 67 88 93 90 87 82 70 71 71 72 67 73 69 80 82 66 73 74 70 70 57 30 16 10 8 9 11 14 14 15 18 24 30 34 35 34 37 40 42 42
67 66 67 89 88 95 95 96 77 72 70 72 75 74 67 68 64 70 77 77 74 72 53 31 16 11 10 10 12 13 13 15 19 23 27 31 33 34 36 39 40 42 45
72 73 96 97 93 88 99 99 87 76 73 71 71 74 77 79 82 80 79 75 57 39 23 17 13 12 11 12 12 13 15 18 21 24 27 29 31 32 34 36 38 39 41
91 98 96 89 99 91 100 100 100 92 77 74 71 70 72 76 76 77 78 62 30 25 23 19 16 14 13 13 14 15 17 19 21 23 25 26 28 29 31 32 34 36 38
97 99 98 98 98 99 96 98 97 96 93 78 75 72 71 72 75 73 57 32 25 25 25 22 19 17 16 15 15 16 17 19 20 21 23 24 25 26 27 30 33 34 36

GFSMW_700_rhum_084.txt.gz
RH
75 66 69 78 77 78 74 65 58 54 47 43 40 38 38 40 40 40 39 37 35 38 37 38 44 48 48 50 51 53 51 47 45 44 26 28 24 20 20 28 33 40 33
81 75 65 63 64 74 78 79 74 71 63 58 49 45 44 43 41 36 32 33 33 31 29 31 39 48 49 49 53 56 53 38 22 18 18 18 19 25 21 33 44 44 47
83 77 67 60 58 60 62 58 62 71 60 53 49 40 33 30 28 27 27 27 27 25 24 24 25 28 29 28 27 28 26 20 27 19 21 24 22 20 21 22 20 21 28
79 82 77 74 71 60 54 52 51 52 50 50 43 38 34 31 28 27 27 28 27 26 24 23 21 20 19 19 20 19 19 18 19 20 21 21 22 21 20 22 26 29 33
80 82 74 69 63 59 55 52 49 46 45 39 36 34 32 31 30 30 29 27 25 22 19 17 14 14 14 16 17 17 18 20 22 21 19 18 18 20 34 32 34 38 40
85 70 65 60 59 56 53 51 48 47 48 44 35 35 38 36 34 31 28 25 22 19 15 13 12 12 13 15 17 20 21 21 20 19 22 20 25 26 34 35 40 43 43
97 94 75 64 60 55 52 52 50 42 38 37 41 40 39 36 33 30 24 21 18 15 13 12 13 14 16 19 20 22 22 20 19 18 20 29 30 33 38 44 46 43 34
63 54 83 75 72 58 55 49 45 45 44 44 44 45 44 43 41 34 25 19 16 14 15 16 17 19 21 22 21 20 18 18 20 25 31 35 38 42 49 52 49 35 22
41 44 63 65 44 43 51 52 48 51 54 54 53 52 50 43 36 30 23 19 17 17 19 21 23 22 20 19 18 19 21 23 26 31 39 43 46 48 47 36 22 20 29
33 38 41 43 43 34 44 54 54 54 55 56 57 56 51 41 31 27 23 20 20 21 22 22 22 21 20 18 18 20 24 28 30 31 33 38 40 24 21 22 28 37 39
33 33 36 35 34 34 40 47 54 58 60 60 58 48 38 33 30 27 26 25 25 25 24 22 20 18 18 19 26 29 27 23 22 23 26 18 23 25 30 36 38 38 37
34 29 34 37 36 39 49 54 62 67 66 58 49 43 40 34 32 31 30 28 27 25 23 21 20 19 22 30 28 23 18 15 14 13 19 28 31 38 39 39 40 42 43
45 41 35 34 36 40 50 65 67 65 62 57 51 45 41 37 35 33 31 29 27 26 25 25 25 29 31 24 18 16 16 16 18 26 32 36 40 41 40 42 41 38 29
51 48 46 49 51 57 64 67 64 59 52 46 44 42 41 40 40 40 38 38 34 34 33 36 38 31 20 17 18 20 24 28 33 35 39 43 42 34 28 12 10 9 9
55 52 50 48 54 55 54 51 49 48 47 50 51 49 49 54 52 53 52 49 50 48 47 42 27 24 32 34 31 31 37 38 39 45 47 35 16 9 9 12 14 16 18
60 61 55 57 52 58 56 53 57 60 58 54 56 61 58 60 61 58 58 58 58 53 42 28 36 43 47 46 45 46 44 46 51 50 20 8 11 14 17 19 19 20 21
63 66 64 64 61 59 61 62 55 52 52 63 67 64 60 60 60 61 58 58 52 41 38 42 45 48 48 49 52 51 54 54 40 9 8 13 17 18 19 19 19 22 26
60 59 61 67 66 59 59 57 54 53 65 73 70 68 65 59 59 65 64 53 45 47 48 47 51 48 51 56 58 60 59 30 7 8 14 16 18 19 19 20 26 31 31
57 52 62 66 68 68 63 61 59 74 81 79 72 66 63 61 64 68 71 53 51 50 52 54 54 58 62 64 66 63 32 7 8 13 15 18 18 18 21 28 32 32 30
56 51 54 62 67 63 65 63 64 74 83 79 69 65 63 67 71 75 79 72 60 55 58 63 64 67 71 71 64 17 7 9 11 13 17 18 18 21 30 33 33 31 32
35 56 55 58 64 67 66 65 73 89 85 78 68 64 66 72 77 78 79 86 69 59 67 71 71 74 75 48 13 7 8 9 12 16 16 17 22 28 33 34 32 34 38
39 57 62 61 65 69 67 71 83 82 82 73 69 71 74 72 74 74 78 90 72 69 78 77 77 76 32 9 7 7 9 12 14 15 17 21 27 31 33 33 34 38 39
50 58 66 65 69 65 79 82 87 93 80 73 71 72 75 75 66 65 75 86 73 80 80 82 68 30 12 9 8 10 12 13 14 16 19 24 28 30 32 32 34 36 38
68 69 69 69 68 87 87 84 91 99 87 77 73 72 73 78 79 78 77 82 83 83 81 48 28 18 12 10 10 11 12 13 15 17 21 24 26 28 29 30 32 33 36
70 70 73 72 88 96 88 98 99 100 100 90 78 74 72 75 82 86 83 83 81 73 57 34 20 14 12 12 12 12 13 14 16 18 20 22 24 25 26 27 28 30 33
95 96 96 94 98 91 98 96 98 97 98 99 89 79 76 75 75 76 78 80 73 38 25 24 22 18 16 14 14 14 14 15 16 18 19 20 21 22 23 24 25 27 29

GFSMW_700_rhum_087.txt.gz
RH
63 59 57 61 68 68 74 76 75 62 63 61 60 62 62 47 44 43 39 38 39 39 38 37 40 38 33 39 46 47 49 52 57 55 56 35 26 20 18 19 24 27 34
71 51 61 62 67 73 72 75 72 74 65 61 59 58 55 52 48 47 45 45 43 38 33 33 33 30 29 35 43 47 46 44 43 39 37 32 30 28 24 19 21 29 31
62 69 56 66 66 76 75 77 74 73 67 62 60 59 60 63 56 48 43 37 32 30 28 28 26 26 24 24 25 27 28 29 27 26 34 27 38 25 24 19 18 22 22
59 73 49 56 67 73 75 78 81 79 78 74 72 70 68 58 59 42 34 31 29 28 28 28 27 26 25 22 21 21 22 22 21 26 24 42 30 28 20 22 17 27 30
44 81 72 65 60 68 68 59 62 61 67 75 77 76 79 62 60 48 36 33 31 30 30 28 25 22 19 17 15 16 17 18 18 19 34 44 44 20 22 21 27 32 33
59 96 90 82 77 72 73 59 55 53 53 52 51 48 44 39 37 38 39 35 33 31 28 26 23 19 15 13 13 14 16 18 20 22 24 24 22 26 24 30 30 35 42
70 82 88 84 80 75 71 60 58 58 57 54 50 51 49 43 40 40 39 35 33 33 23 20 17 14 13 13 14 16 19 21 23 23 23 23 22 23 29 34 38 45 50
49 54 79 82 71 66 58 56 68 72 58 56 56 53 48 43 41 41 42 43 40 36 27 21 16 14 15 17 20 21 22 22 21 20 21 25 31 35 44 46 56 52 48
40 43 70 90 77 66 66 67 74 68 67 68 69 64 53 44 51 51 50 46 40 32 27 21 17 16 18 20 21 20 20 21 22 23 25 30 36 42 46 48 48 41 23
38 39 45 70 96 87 84 73 72 70 72 51 50 50 53 53 53 54 52 46 39 30 24 21 19 20 21 21 21 20 19 19 23 29 32 31 32 36 39 38 23 25 32
33 37 43 50 61 78 92 88 87 72 56 54 54 55 56 54 54 54 49 36 31 27 25 23 23 23 23 22 20 19 21 26 31 29 24 22 24 25 20 27 32 39 38
33 34 34 36 40 52 69 64 45 47 48 56 58 59 59 58 57 50 40 36 32 29 28 28 27 25 23 22 22 22 28 30 24 19 16 15 16 25 30 38 41 40 40
45 42 36 33 37 38 38 39 38 46 58 65 66 65 63 58 51 46 41 37 34 32 30 28 28 26 26 25 27 32 28 20 17 17 17 19 29 33 42 42 40 41 34
36 36 46 43 39 38 38 40 47 56 63 66 63 60 58 52 45 40 37 36 35 35 34 33 31 30 31 34 37 26 19 20 23 25 26 34 36 45 44 40 19 9 9
32 33 39 48 46 48 49 48 51 58 62 60 55 47 42 41 41 41 43 44 43 46 45 44 44 44 43 39 25 30 34 32 35 37 39 41 48 43 21 8 11 15 17
52 42 46 51 50 49 52 58 58 54 51 49 49 53 53 52 53 54 54 53 55 53 53 52 51 48 37 31 42 46 46 45 46 43 47 55 34 8 10 16 18 18 18
52 54 51 59 55 58 60 58 56 53 53 56 54 53 55 62 65 62 62 57 56 56 53 54 48 38 38 47 51 51 53 53 49 52 54 24 8 14 18 19 18 18 21
55 59 58 61 65 63 69 65 60 60 56 53 52 61 70 69 66 63 60 61 60 62 54 48 47 49 50 53 51 56 58 63 61 44 10 9 15 18 19 18 18 22 29
50 64 60 56 58 65 72 68 61 60 57 57 70 76 76 71 66 64 62 63 64 69 59 49 53 56 58 56 58 65 68 66 27 6 8 14 16 18 18 18 23 30 32
39 52 57 54 55 66 71 63 59 59 59 59 61 75 77 70 65 63 65 70 73 74 68 56 55 59 61 65 72 72 71 40 7 7 12 14 18 18 18 23 30 32 32
33 32 54 52 62 65 59 60 59 62 60 56 60 78 77 67 67 68 67 69 76 80 77 61 61 68 70 74 79 76 37 7 8 10 13 16 17 18 23 29 32 32 33
39 38 58 59 61 64 64 64 66 65 63 73 76 80 73 69 70 71 70 73 74 75 86 71 68 76 78 83 75 35 7 7 9 11 14 16 17 21 27 31 32 33 34
48 45 48 62 64 66 67 68 69 71 81 86 87 77 72 70 69 74 73 67 66 88 86 74 82 84 86 64 18 7 7 8 10 13 15 15 18 23 27 29 30 32 33
65 58 55 67 68 68 69 70 77 88 88 94 92 78 74 71 70 75 79 78 71 83 78 84 87 84 61 21 9 8 8 10 12 13 14 16 20 23 25 27 28 28 30
75 74 74 72 71 71 72 76 91 95 93 95 96 94 79 74 72 74 82 84 81 82 84 84 74 40 20 14 11 10 10 11 12 13 14 17 19 21 23 24 24 25 26
92 88 81 77 82 80 77 81 98 98 99 99 98 97 96 80 75 75 76 78 79 79 78 73 57 31 18 13 12 12 12 12 12 14 15 16 18 19 20 21 22 23 24

GFSMW_700_rhum_090.txt.gz
RH
66 44 53 54 53 53 56 57 52 49 54 63 52 49 51 61 62 45 42 47 39 38 36 40 40 39 36 34 30 29 30 36 45 42 38 31 27 25 27 22 22 24 24
64 62 43 52 53 56 62 64 60 62 64 61 59 64 69 73 74 62 56 51 52 48 53 45 41 34 34 32 31 34 28 28 31 34 34 34 26 28 30 37 25 24 24
62 64 62 48 51 55 56 63 67 72 73 68 63 72 80 86 83 77 64 66 68 57 50 43 36 32 29 29 28 28 27 26 23 22 24 24 26 22 32 42 27 22 24
42 63 68 61 47 48 56 59 68 72 75 71 70 74 79 82 91 79 79 85 64 38 33 32 31 31 30 29 27 24 23 20 18 17 17 25 41 29 49 49 26 22 22
30 47 59 67 62 44 47 58 62 75 75 76 70 71 72 75 76 75 79 87 75 66 38 34 33 32 30 27 25 22 19 16 14 16 16 19 22 24 27 28 28 40 31
31 30 69 66 73 49 47 47 56 73 80 84 79 76 81 78 81 84 85 79 57 61 44 36 34 30 26 23 20 17 14 14 15 17 21 23 23 24 22 24 56 30 37
52 35 58 55 68 63 67 74 72 74 73 68 64 75 63 54 52 50 45 42 42 40 38 37 39 36 28 21 16 14 14 16 18 21 23 24 25 25 24 27 80 66 65
63 63 51 62 58 70 80 89 84 77 66 56 55 56 54 55 55 51 46 43 42 39 44 45 39 33 29 24 18 16 16 18 20 21 21 21 23 26 29 37 46 86 49
62 71 74 65 61 77 81 72 68 71 62 59 62 60 57 60 60 60 59 59 54 48 47 45 43 37 28 24 20 19 18 20 22 22 22 22 22 27 31 35 40 40 51
40 50 44 50 53 68 81 82 89 87 79 74 79 70 71 79 83 72 65 62 51 48 49 48 41 35 29 24 21 21 21 21 22 21 20 22 29 32 30 30 34 39 29
36 35 34 39 47 61 67 88 97 98 93 82 87 93 89 68 58 52 54 54 52 51 50 45 34 30 27 26 25 25 24 22 21 22 23 30 30 25 20 23 22 25 31
36 37 38 41 43 45 46 54 93 100 99 99 92 86 93 83 62 56 57 56 53 49 45 37 33 31 30 30 28 26 26 25 24 26 28 27 21 18 16 18 29 36 43
36 38 37 38 39 36 43 45 70 81 91 72 57 64 79 79 66 60 55 46 47 44 42 37 33 30 29 29 29 27 27 27 30 32 24 18 18 17 20 31 40 44 43
43 42 37 37 44 40 41 46 47 58 58 50 55 70 70 68 66 61 55 52 46 39 34 32 32 31 32 34 34 34 35 36 33 22 20 20 23 24 35 42 46 44 22
54 42 39 33 31 43 40 41 41 45 46 55 66 73 76 68 61 55 46 42 42 40 37 38 41 43 43 44 46 44 43 33 28 33 32 32 36 39 46 47 32 8 12
66 52 44 37 34 40 44 44 51 53 58 64 67 68 63 51 48 51 50 50 51 53 51 49 50 47 48 50 51 45 34 40 46 42 39 43 44 49 51 18 9 16 19
44 41 37 33 49 50 52 50 53 56 58 57 54 53 55 55 51 48 49 56 60 58 56 53 53 50 49 50 43 39 45 53 53 51 50 50 57 46 10 11 18 20 20
30 28 26 42 57 59 56 56 57 57 55 53 56 57 53 50 50 62 67 65 62 60 58 56 57 57 48 46 46 52 55 54 57 55 58 61 39 8 13 18 19 19 19
24 25 30 54 58 63 64 61 62 63 60 57 58 55 52 54 65 71 68 64 61 61 60 60 63 66 49 53 57 58 60 64 65 66 51 16 7 14 17 19 19 19 25
41 32 29 49 61 60 60 64 72 73 64 62 61 58 54 51 57 69 69 62 59 60 63 67 72 71 55 58 67 66 70 75 73 41 7 6 12 15 18 19 19 25 31
50 37 32 47 61 56 56 63 74 75 68 66 65 61 60 58 62 74 68 64 64 66 68 74 76 81 65 70 76 75 79 79 62 12 6 10 13 16 18 18 22 29 32
52 44 40 46 59 59 66 78 78 70 67 68 66 67 69 75 80 74 69 69 73 74 69 74 76 88 78 81 82 83 86 62 14 6 8 11 14 16 17 19 26 30 32
48 48 45 50 62 69 79 77 69 69 71 71 74 86 87 86 76 71 68 69 74 73 68 70 92 90 82 89 87 86 68 21 6 7 9 12 15 16 17 22 27 30 30
68 59 53 50 61 71 80 75 73 73 75 82 91 91 92 93 80 74 70 69 76 78 71 82 90 84 90 92 90 54 13 6 6 8 10 13 14 16 18 22 25 27 27
78 76 72 68 68 74 77 78 77 77 83 91 97 94 95 97 97 83 74 70 74 82 83 81 83 88 94 80 51 14 7 8 8 10 12 13 14 15 18 21 22 23 24
98 95 86 82 82 81 80 80 81 81 83 85 98 96 94 95 94 92 83 74 73 77 80 83 87 88 59 28 17 12 10 10 10 11 12 12 13 15 17 18 19 20 21

GFSMW_700_rhum_093.txt.gz
RH
40 43 49 58 50 48 52 50 52 59 52 49 51 49 48 54 56 54 50 44 41 40 44 35 37 40 41 39 34 34 30 30 30 24 26 27 24 28 32 26 26 30 29
58 42 41 48 57 56 47 46 53 58 58 58 54 53 56 58 63 68 72 74 72 63 48 46 52 58 53 40 32 29 28 27 27 26 24 21 18 18 22 24 20 37 31
48 46 43 42 45 51 52 49 51 59 65 65 65 65 66 64 74 81 83 86 88 94 88 86 88 65 45 33 30 30 29 28 26 24 22 20 16 15 20 30 25 42 48
47 49 48 39 38 41 47 52 52 55 60 69 69 75 76 76 84 88 88 88 83 82 84 84 84 69 44 34 31 30 29 27 25 22 19 16 16 18 29 27 23 31 31
53 46 47 46 35 36 34 41 47 52 55 60 67 78 81 80 84 86 88 86 86 87 87 95 89 79 57 36 33 30 28 25 22 18 15 15 16 19 37 26 25 26 32
27 44 52 57 55 48 42 43 47 49 50 59 71 79 84 85 79 81 82 79 79 81 86 92 86 58 53 36 33 32 24 20 16 15 15 16 18 20 23 24 27 32 29
52 30 32 44 56 61 58 46 58 56 55 64 69 76 82 81 86 88 86 82 81 71 61 50 46 43 40 40 38 34 29 23 18 17 18 21 23 24 25 24 24 40 35
58 60 35 33 36 51 69 76 57 57 54 63 80 80 87 90 89 83 61 58 54 54 53 48 46 43 49 42 40 38 30 26 22 20 21 23 23 23 25 28 32 51 38
51 57 58 51 55 59 67 77 78 76 68 68 86 84 81 70 75 70 64 64 61 57 62 67 72 55 48 46 43 38 34 28 23 22 21 22 22 23 23 26 26 38 40
38 51 61 63 54 51 55 74 91 80 82 88 83 73 63 65 66 66 67 68 70 72 78 78 71 50 48 47 44 35 30 27 24 23 23 22 22 22 23 26 32 33 31
35 35 48 57 57 43 42 54 87 75 74 73 73 72 78 81 81 81 87 89 86 82 76 58 55 51 42 41 38 31 28 25 25 24 23 23 22 23 29 31 26 25 28
32 35 36 36 37 39 46 56 82 86 87 87 84 92 98 99 98 94 89 91 84 76 63 61 55 47 42 38 34 31 28 26 25 24 25 25 25 28 28 23 20 21 20
44 42 40 39 38 37 39 47 49 51 75 70 90 100 100 98 96 83 98 95 88 84 77 70 57 44 39 34 29 28 30 28 28 29 28 29 32 28 20 20 19 22 33
43 45 44 41 36 37 42 36 35 44 47 63 80 83 77 84 93 82 74 72 72 70 63 53 45 38 36 35 34 33 36 36 38 37 36 35 27 21 21 22 23 34 44
61 51 43 43 44 39 33 40 37 43 48 55 72 65 58 69 76 74 74 73 68 57 46 42 41 42 42 42 45 45 46 45 46 44 38 30 32 33 32 32 37 48 48
63 63 53 43 43 43 37 34 40 40 42 47 52 58 73 80 80 77 65 54 52 51 47 44 49 52 53 51 50 49 48 50 47 39 36 45 42 39 41 42 51 47 9
55 57 54 46 45 40 35 41 46 44 46 54 60 67 72 65 57 58 59 56 52 53 58 61 59 58 56 54 52 50 47 46 42 44 52 55 52 50 51 58 44 9 15
39 38 37 34 34 29 28 53 54 51 50 54 56 58 58 61 58 54 53 62 67 70 68 63 62 62 59 58 57 51 46 49 53 58 59 58 58 60 62 35 9 17 20
32 29 29 28 27 27 52 60 61 61 62 63 63 62 63 59 57 60 61 64 68 69 67 62 60 60 61 64 65 52 52 60 62 62 64 66 69 68 20 10 17 20 20
45 38 36 28 27 31 61 60 67 70 71 73 70 67 64 62 61 60 58 54 56 71 66 63 62 64 69 74 73 56 60 66 68 74 77 63 39 9 10 16 18 20 20
40 39 42 37 32 42 61 62 68 74 80 83 74 70 67 66 64 64 65 67 75 70 66 68 71 72 76 81 79 66 73 74 78 83 62 12 5 10 13 17 19 20 24
43 44 46 45 39 52 64 62 65 74 84 84 74 70 70 73 78 83 85 80 73 69 66 70 74 72 79 85 86 78 82 87 84 81 36 6 7 11 15 18 19 22 28
51 47 51 48 45 51 64 68 75 87 86 76 72 74 77 83 86 86 91 80 74 71 70 76 78 74 77 96 89 88 90 94 96 64 15 20 9 13 16 18 20 25 30
73 66 57 55 56 61 72 86 91 84 75 75 75 75 80 85 93 93 95 90 78 71 69 78 80 75 91 92 93 95 96 88 89 53 37 14 10 14 16 18 20 23 26
83 80 76 70 67 73 85 97 92 84 80 78 77 81 86 88 99 94 92 91 89 76 71 78 84 86 90 91 96 97 72 34 16 10 7 8 11 13 15 16 18 20 22
98 99 92 86 86 84 85 86 86 84 83 82 82 89 92 98 100 93 93 91 96 90 78 78 80 85 89 93 87 68 48 39 15 8 9 10 11 12 13 14 16 18 19

GFSMW_700_rhum_096.txt.gz
RH
49 50 57 60 54 55 62 48 48 54 59 60 58 57 57 60 58 54 50 49 47 44 44 46 44 46 37 44 48 46 38 34 30 28 26 25 24 23 22 18 20 27 28
45 45 46 51 59 59 54 49 52 57 61 60 58 60 63 67 64 60 57 56 59 62 54 49 54 54 55 58 65 64 39 30 29 28 26 23 23 22 20 16 16 23 24
46 43 44 47 50 57 60 59 57 57 52 56 61 62 62 60 55 57 57 68 85 89 93 90 87 78 77 75 69 48 38 33 30 30 28 26 24 21 18 15 15 26 22
47 45 39 38 42 45 49 52 54 55 53 52 58 60 66 67 69 70 74 81 92 94 91 87 86 91 86 92 97 71 39 35 31 29 27 25 22 19 19 18 20 22 25
47 43 39 36 36 36 39 42 45 46 51 52 52 60 68 72 77 73 74 79 87 90 92 94 92 89 94 92 85 70 47 36 35 30 23 19 17 16 23 24 22 26 24
46 38 42 42 39 35 36 44 45 43 45 44 47 54 62 68 78 84 79 80 90 94 94 96 92 90 92 82 95 52 41 41 38 32 27 21 18 17 21 24 27 28 26
34 37 42 57 60 50 41 46 44 38 38 41 47 56 70 69 77 84 92 89 86 92 96 98 97 68 53 50 47 46 45 46 42 39 30 25 22 22 24 26 27 29 27
44 54 58 49 54 62 62 58 58 60 57 54 51 54 58 63 71 86 92 99 98 95 97 97 77 60 56 51 57 55 52 49 46 41 34 28 26 24 25 26 28 31 32
50 53 58 59 60 62 48 44 58 58 57 57 66 70 65 68 73 77 91 100 97 94 100 82 98 69 59 62 64 61 69 51 46 41 34 30 26 25 26 26 26 28 27
46 47 45 48 60 69 58 53 61 65 62 68 73 79 78 85 90 89 90 74 76 82 88 77 64 62 68 73 72 62 48 42 41 34 30 27 26 26 26 26 25 27 32
30 33 41 34 49 60 62 62 62 69 78 88 83 82 89 91 88 70 68 78 84 81 82 78 81 83 81 75 73 53 47 41 38 34 31 28 27 27 27 27 29 29 32
36 41 38 33 36 53 58 56 46 56 72 95 81 77 69 76 83 85 76 87 98 98 99 99 98 98 94 85 87 69 47 39 34 30 30 31 31 30 30 29 32 32 27
40 38 39 40 38 38 38 39 41 49 75 93 91 87 77 82 88 95 100 98 96 87 99 90 84 84 77 71 62 52 42 36 33 34 34 34 34 34 36 36 33 25 22
48 48 46 43 40 38 39 39 36 35 43 59 73 86 92 74 95 91 99 97 94 84 95 78 75 70 64 53 45 43 42 40 40 39 42 44 43 39 39 33 25 23 23
50 45 42 43 44 40 38 38 34 38 34 38 48 57 62 88 95 91 67 66 75 84 82 76 65 52 49 47 53 49 49 46 46 45 47 49 48 42 35 32 33 32 30
72 68 59 47 44 41 44 44 41 36 38 38 48 51 52 71 78 70 79 84 83 79 62 57 53 50 50 54 58 60 54 52 48 47 49 50 44 41 44 43 42 41 45
64 60 55 45 43 39 40 43 40 39 37 42 43 48 57 67 74 77 78 70 62 62 57 52 55 62 62 61 63 60 57 54 51 47 47 46 46 56 55 53 51 52 61
68 60 50 40 35 36 39 41 35 34 40 47 51 60 69 73 67 62 65 64 60 61 62 64 65 67 64 62 60 60 60 59 57 49 50 54 59 65 63 61 63 70 27
48 38 32 28 26 27 30 34 36 56 58 56 61 67 65 62 66 66 62 63 61 54 50 47 55 66 64 62 61 62 63 67 60 54 60 66 67 69 70 71 70 17 12
39 35 32 31 29 29 27 32 56 70 70 68 68 69 66 65 65 64 64 61 57 55 51 48 57 65 63 64 64 66 71 75 61 64 72 75 79 79 82 62 13 13 18
47 38 34 34 40 43 32 37 66 70 75 83 82 77 74 72 70 69 67 64 64 66 72 76 70 66 67 71 70 73 79 79 70 77 81 88 66 30 17 9 13 17 21
41 37 36 39 42 48 42 57 67 70 77 83 86 89 85 79 72 70 69 75 79 82 77 72 67 65 70 74 71 73 84 85 84 87 90 90 53 6 7 11 16 20 21
54 47 43 45 53 52 46 70 70 70 69 78 89 95 92 77 75 74 79 88 89 89 82 73 69 68 72 78 74 85 96 91 95 96 95 77 54 20 10 19 45 28 22
72 65 56 51 52 55 58 70 70 81 89 94 97 84 77 78 79 83 90 88 92 92 90 82 71 70 78 79 86 95 95 96 98 96 97 93 65 71 57 38 18 20 23
85 79 76 68 62 64 68 79 93 100 99 90 81 80 81 85 90 90 85 84 94 92 92 92 78 75 81 83 81 87 96 100 96 77 95 74 47 46 14 14 17 19 20
94 98 95 90 85 82 83 90 100 99 96 90 87 89 90 94 98 92 91 98 98 96 90 91 90 80 81 81 91 97 98 88 82 84 36 13 12 10 11 13 14 15 17

GFSMW_700_rhum_099.txt.gz
RH
60 65 62 59 75 75 67 75 81 72 71 57 44 48 48 46 46 54 49 41 43 45 44 43 44 44 46 46 45 43 45 43 40 33 30 27 27 26 26 25 24 20 18
61 54 59 70 66 62 58 62 67 69 68 69 68 66 63 64 64 67 68 61 55 53 56 60 55 50 52 54 51 58 52 57 56 37 34 31 27 27 27 25 23 20 20
51 51 50 50 54 61 59 56 54 58 60 57 56 60 59 56 58 58 54 54 55 58 64 84 87 75 80 88 79 82 77 88 83 38 37 32 28 26 23 20 19 19 21
43 40 42 44 45 47 54 62 60 60 59 60 57 57 59 61 63 63 69 70 68 68 74 87 93 94 95 93 96 92 97 95 94 69 41 41 35 28 23 20 19 18 21
41 36 35 38 41 41 43 47 55 57 60 63 60 62 55 58 67 68 72 76 76 74 79 91 95 98 97 100 100 99 99 93 87 47 43 41 36 31 26 23 21 20 21
46 44 38 43 46 44 41 40 42 48 56 59 59 59 63 61 61 62 64 75 82 83 84 95 99 99 98 97 93 97 64 85 88 51 63 60 46 40 30 26 25 25 24
39 40 41 43 47 44 48 47 40 36 42 49 51 53 57 59 59 64 70 72 80 88 95 99 98 100 100 98 74 59 57 55 57 61 62 54 50 44 36 30 28 28 28
25 31 42 46 38 47 56 65 62 52 46 49 49 48 50 52 54 61 70 72 82 89 95 99 98 100 98 94 91 85 64 60 63 62 64 68 50 43 36 32 31 31 30
33 36 44 42 49 52 49 58 67 68 62 63 63 60 53 53 53 55 58 64 75 89 98 99 91 100 98 98 79 81 71 69 68 69 57 43 42 39 34 32 33 36 34
45 43 46 48 54 56 53 57 53 50 54 51 63 70 71 72 69 64 60 69 80 87 99 97 85 79 88 78 80 81 79 77 70 59 52 44 40 37 34 34 34 35 35
43 46 46 47 46 54 65 64 53 49 45 55 63 64 67 77 79 83 85 89 90 91 89 83 79 78 78 80 78 77 80 83 72 72 76 49 38 35 34 34 33 36 38
38 32 30 34 36 39 51 66 58 54 54 50 57 58 80 78 78 78 81 87 84 85 83 79 75 76 82 85 85 88 88 88 88 76 60 43 38 36 37 41 40 38 39
43 38 39 43 44 42 49 58 56 56 48 42 45 54 75 86 80 72 74 84 96 94 96 93 98 95 93 84 77 69 70 66 56 47 42 39 44 43 47 49 48 46 45
46 47 44 41 40 41 41 40 40 40 41 43 51 63 85 91 89 87 91 93 89 76 100 100 99 92 78 74 75 69 57 48 45 43 42 44 47 50 50 53 52 48 42
50 50 48 47 44 42 40 40 38 38 41 40 39 47 70 82 84 96 81 74 96 78 79 85 80 76 77 68 57 53 49 46 50 48 52 52 48 50 51 52 49 42 37
63 58 53 50 49 48 45 42 42 42 41 37 39 40 42 50 63 62 78 98 78 78 79 73 75 62 60 59 52 56 54 54 54 55 56 53 51 48 49 50 47 49 46
67 59 54 54 49 48 46 39 37 40 41 39 36 37 40 46 54 64 84 78 82 77 68 61 61 55 57 61 66 65 62 60 58 58 58 57 53 47 48 54 59 61 53
71 64 55 51 45 46 41 37 38 42 42 39 38 36 42 46 51 59 72 81 72 62 61 56 57 57 50 45 48 57 58 57 56 56 58 60 54 51 61 66 67 66 61
69 61 53 47 43 40 34 30 31 34 39 36 41 52 55 58 66 72 71 64 65 60 58 58 54 51 48 46 45 56 59 59 59 60 65 65 57 66 71 72 73 73 77
53 45 41 35 30 32 29 28 28 32 33 47 65 72 73 72 67 66 68 67 67 66 64 61 58 55 56 58 62 60 60 65 65 69 76 69 72 76 78 81 87 85 59
53 47 41 38 35 34 39 39 40 37 57 73 77 80 77 72 72 73 72 72 70 66 64 64 66 70 71 66 60 57 62 68 70 76 81 78 83 88 79 80 77 34 12
50 46 41 37 34 35 38 48 48 63 81 80 81 82 80 78 79 79 76 73 71 73 80 79 79 79 71 66 61 62 71 74 73 83 88 90 93 73 35 20 23 24 36
70 58 50 46 42 43 50 54 57 82 76 75 80 85 90 90 93 91 82 74 74 75 80 87 86 88 77 70 66 70 76 74 86 94 95 98 92 92 38 16 11 14 17
80 68 64 60 50 49 58 56 61 77 73 75 76 85 98 100 98 89 82 83 81 78 76 85 89 88 85 76 68 71 75 80 93 95 96 96 97 64 57 49 34 25 49
85 83 74 73 66 64 67 68 75 76 78 91 94 96 100 98 91 87 92 89 80 73 77 87 89 87 86 80 72 76 80 84 89 98 99 93 94 94 66 60 58 65 61
86 92 92 87 80 77 77 80 91 100 99 99 100 97 91 89 90 90 92 97 97 96 85 91 92 88 86 86 82 79 79 85 95 97 82 72 88 50 48 38 24 18 16

GFSMW_700_rhum_105.txt.gz
RH
80 93 94 100 98 96 91 81 76 65 65 66 83 65 49 41 40 41 42 44 48 43 42 44 49 49 50 52 56 58 60 58 59 62 63 66 67 77 79 35 34 32 27
74 74 89 95 96 97 98 90 83 93 82 78 89 99 75 71 62 52 44 57 64 48 60 68 65 59 59 60 70 66 61 65 74 96 88 77 62 70 82 48 37 37 36
80 80 73 82 90 88 96 94 88 88 96 95 96 93 83 78 67 69 76 74 74 81 74 65 55 52 58 66 91 77 70 89 95 97 94 72 70 74 80 45 54 64 54
68 74 68 72 78 85 89 90 97 97 96 90 71 85 93 91 81 79 94 99 100 96 80 62 60 69 70 78 88 95 96 95 97 88 96 97 85 85 79 64 60 63 60
62 70 76 76 72 77 85 86 90 99 94 81 84 96 97 100 100 87 90 98 88 71 69 70 70 75 86 97 93 98 100 99 76 77 95 93 69 87 97 56 63 63 60
59 61 61 61 64 67 65 68 69 76 81 85 88 90 97 83 82 88 89 96 85 70 69 70 74 81 86 95 99 96 97 99 97 88 83 60 62 76 59 72 69 62 59
66 64 58 54 53 52 52 53 54 61 70 79 77 79 77 83 84 86 84 76 75 72 70 68 69 75 78 82 95 99 99 99 98 90 83 76 85 78 74 63 63 62 60
60 69 65 58 52 46 45 46 49 52 55 62 63 66 69 72 71 72 72 74 69 68 64 61 61 68 74 80 96 100 100 98 96 94 84 87 82 87 77 71 68 65 63
51 47 64 60 55 50 48 50 47 45 45 50 52 57 60 62 64 64 63 63 61 59 55 53 57 68 72 79 99 100 100 98 88 81 91 78 80 80 74 72 73 75 72
48 47 45 43 50 54 51 54 52 48 44 43 50 56 56 55 56 56 63 62 58 56 57 56 54 56 67 86 97 90 94 84 70 68 71 72 77 78 77 78 78 80 76
46 43 46 40 30 39 52 53 57 60 51 43 48 54 61 60 60 59 56 56 59 58 53 49 51 63 81 90 93 90 88 86 78 77 82 82 84 85 85 80 77 60 52
45 45 48 50 51 47 47 51 52 52 52 41 46 48 50 53 55 57 57 50 56 57 51 62 74 90 99 94 88 75 77 86 84 88 92 90 95 92 70 55 46 43 45
46 46 45 48 50 52 55 59 60 60 62 61 63 59 53 55 58 59 68 73 70 70 82 90 90 82 75 71 77 80 79 91 98 97 99 79 67 55 46 42 41 44 47
47 44 40 37 37 38 42 45 45 61 67 69 72 74 68 64 50 55 67 76 76 74 75 76 79 85 84 81 70 62 84 89 76 78 71 56 46 41 40 42 46 50 52
47 45 45 45 42 42 46 51 52 58 67 69 67 62 56 52 46 53 69 83 85 85 90 91 87 75 78 71 61 67 73 73 64 52 44 42 47 51 51 52 52 53 52
49 49 51 50 50 50 49 48 48 46 43 41 40 40 41 42 43 48 68 92 98 99 98 97 96 82 79 63 60 59 59 53 45 43 46 42 40 43 48 48 50 53 54
61 56 56 54 52 52 52 50 48 47 44 42 42 41 39 38 40 42 41 50 69 87 84 84 76 84 71 60 61 56 50 45 42 41 39 38 37 40 47 50 51 53 55
71 67 66 62 58 55 52 50 47 46 45 43 42 41 38 38 38 37 39 42 44 57 62 68 73 71 69 67 58 50 46 44 43 42 41 41 47 52 52 55 56 57 57
80 78 71 63 60 57 50 52 54 51 46 42 45 40 35 36 39 43 43 41 44 50 61 66 74 78 69 62 56 51 48 50 50 47 48 54 55 52 57 59 62 62 59
84 82 75 68 64 58 55 50 55 51 45 44 46 41 35 36 43 45 46 49 51 56 62 75 79 68 63 58 55 54 53 52 56 62 61 57 55 61 64 66 68 64 66
89 75 65 60 54 50 48 46 44 41 40 37 33 30 31 37 40 44 50 58 65 70 82 75 69 65 64 62 63 63 67 67 70 68 64 60 60 65 68 72 75 76 78
83 75 58 50 46 43 40 40 40 40 39 42 40 37 36 40 49 64 71 79 85 84 74 74 72 71 69 69 66 66 74 77 75 72 67 62 65 70 77 84 85 85 52
75 70 68 70 59 48 43 41 38 37 39 44 51 54 51 54 76 86 90 93 85 80 82 80 80 78 75 74 69 67 76 78 76 74 70 66 70 78 90 92 93 67 34
85 85 84 80 68 63 55 48 47 49 56 61 64 67 71 85 94 98 98 94 88 92 94 92 95 83 80 74 72 78 82 77 75 74 72 71 74 78 96 96 90 83 84
86 95 86 89 81 70 65 58 59 70 79 80 85 86 80 88 95 100 100 99 95 94 97 98 93 84 79 71 76 81 82 80 79 80 76 75 80 87 96 95 94 95 89
84 96 99 98 88 85 80 77 84 89 92 100 100 100 100 100 95 99 100 99 99 99 99 97 94 96 92 83 98 88 88 88 86 88 85 84 91 95 87 80 88 72 50

GFSMW_700_rhum_108.txt.gz
RH
96 93 91 93 99 93 97 74 91 70 41 35 32 33 36 39 43 46 48 48 48 47 46 45 44 43 44 50 52 57 58 61 61 63 68 68 64 66 63 67 82 68 36
93 97 96 100 98 98 97 90 86 90 75 39 36 39 41 45 44 44 44 45 44 44 56 61 48 54 68 61 60 68 70 70 72 76 77 91 81 86 79 84 81 50 55
67 72 80 78 98 99 99 91 82 85 80 63 40 56 58 52 64 59 49 46 52 60 80 75 76 86 78 69 65 71 79 82 84 86 97 66 82 82 80 77 84 68 64
68 70 67 78 64 72 93 94 92 73 61 72 54 58 73 66 68 84 94 74 70 76 89 90 99 92 80 78 84 85 100 89 97 95 85 76 86 93 93 62 79 74 54
58 61 58 75 73 90 80 86 96 99 95 80 79 96 84 99 93 75 78 90 80 86 90 92 88 87 83 84 89 93 92 99 97 90 82 90 81 100 85 59 66 60 61
64 60 61 62 66 75 89 93 91 88 94 98 94 93 89 98 100 98 87 90 89 88 96 93 94 98 92 82 84 77 86 91 100 90 94 95 86 72 54 75 79 74 68
68 64 59 57 62 68 75 77 87 89 91 100 98 99 95 93 92 85 89 74 90 87 91 86 91 85 78 72 74 77 85 96 86 98 96 88 80 74 75 79 88 85 78
68 74 76 68 69 70 73 74 74 73 69 77 84 90 89 94 99 98 92 89 88 89 89 89 82 73 65 65 72 80 82 90 93 96 91 82 83 79 80 81 81 78 72
68 71 71 71 66 66 62 62 62 60 64 63 64 70 78 83 85 84 84 83 82 81 79 74 67 62 57 56 64 72 76 86 95 99 93 85 73 82 68 70 74 78 75
75 66 75 75 74 67 64 59 63 63 60 56 54 57 60 65 69 71 69 69 70 70 68 63 58 53 53 56 59 65 81 82 88 89 82 78 73 75 78 78 80 82 83
49 54 55 54 62 82 77 59 54 55 58 54 51 49 52 56 55 54 56 57 60 61 63 62 59 57 56 54 60 77 100 100 94 88 82 80 79 83 85 87 88 90 78
47 46 47 48 45 44 58 62 61 58 61 58 52 52 47 54 63 64 64 64 63 60 58 60 64 62 62 68 89 97 99 86 72 67 77 87 86 92 95 96 75 63 51
51 48 49 53 49 40 38 54 64 66 62 60 53 53 49 53 54 57 59 62 60 59 57 49 53 61 73 92 92 82 68 71 70 73 83 84 93 86 78 67 53 44 40
55 49 46 48 53 54 53 54 53 50 53 59 59 59 63 62 53 53 55 55 56 53 53 59 70 86 92 83 80 76 75 70 65 77 76 70 67 59 49 42 44 47 48
52 48 44 40 39 43 51 53 58 61 63 64 67 69 69 66 63 56 55 49 52 70 73 73 74 79 79 81 69 76 74 60 65 68 62 52 46 42 46 46 45 49 51
55 55 53 54 49 44 43 40 42 52 61 67 70 71 67 61 55 50 48 44 52 72 85 84 84 88 92 92 90 73 62 62 67 54 48 43 42 40 37 37 37 42 45
62 58 57 58 56 53 51 49 49 48 48 47 45 42 41 40 41 42 41 43 53 70 88 93 97 99 96 90 87 78 65 63 53 46 43 42 40 39 38 39 42 48 49
69 64 60 59 60 60 58 56 54 52 49 48 46 44 42 42 40 39 39 41 46 55 63 81 88 87 85 86 85 79 66 53 49 48 47 46 47 45 43 46 48 48 50
82 75 67 63 62 60 57 57 57 55 53 51 50 48 47 44 43 42 43 46 46 50 52 60 68 78 91 85 85 68 57 56 52 50 49 50 55 56 55 52 51 51 56
96 87 84 76 70 66 60 57 54 54 56 57 59 55 50 51 48 43 43 49 55 53 50 55 80 90 86 86 70 62 62 59 60 59 61 63 64 60 58 56 58 61 62
96 96 91 87 80 73 67 62 60 58 56 54 55 49 46 47 46 39 37 43 47 53 62 70 75 81 85 74 68 68 64 61 59 61 69 71 72 66 62 62 65 66 70
97 96 95 73 63 57 53 49 46 44 44 43 42 39 37 36 36 36 40 47 64 69 72 84 88 89 78 73 72 71 68 64 58 64 73 73 74 71 68 71 73 78 80
96 87 82 76 75 63 60 54 49 45 40 38 37 38 46 52 53 51 57 74 82 85 90 96 92 82 78 77 81 78 71 67 62 74 75 75 74 72 68 70 80 88 87
88 85 81 78 79 74 60 60 55 49 47 45 45 48 59 71 72 68 82 90 96 100 100 95 92 89 86 87 92 87 78 70 67 76 78 79 76 70 69 72 87 92 84
80 80 89 86 82 84 77 68 62 56 59 66 70 77 85 89 90 98 100 100 100 100 98 94 93 96 98 97 92 80 76 70 74 78 83 80 75 71 74 80 86 88 89
78 81 82 97 100 93 91 84 72 76 82 99 100 100 100 100 100 100 100 99 99 99 99 98 98 98 97 99 93 83 89 80 85 88 90 86 81 79 81 86 86 80 84

GFSMW_700_rhum_111.txt.gz
RH
88 86 92 83 77 80 100 83 68 64 41 32 30 28 26 34 42 46 48 49 49 49 49 48 48 48 47 47 49 51 53 56 63 67 68 72 67 72 78 84 78 84 81
87 93 95 89 86 93 95 93 87 85 56 42 34 33 29 33 40 45 48 48 49 49 48 48 48 47 51 48 52 68 66 66 72 74 79 77 78 74 78 84 81 80 84
80 99 98 100 98 98 97 98 99 91 83 71 57 41 38 36 38 43 45 47 49 49 50 48 47 60 71 70 80 86 76 74 82 84 91 91 70 67 69 76 82 80 79
83 84 98 89 90 100 100 98 94 89 88 98 88 59 47 43 42 52 54 60 60 53 58 57 55 73 75 76 99 98 90 87 97 90 78 76 72 70 72 75 74 79 65
76 75 78 71 77 80 84 82 98 98 97 88 83 95 97 75 51 51 66 75 80 74 80 78 65 73 82 83 95 93 94 100 84 94 92 75 86 79 80 75 87 60 67
69 78 81 75 78 87 89 79 98 98 98 100 95 82 80 79 84 80 67 80 93 98 95 99 89 90 95 95 87 97 92 96 95 93 87 98 87 87 82 89 68 58 73
67 63 64 70 71 79 81 90 93 90 86 81 67 74 77 78 78 67 70 80 91 94 99 88 84 98 93 96 96 94 93 84 84 77 87 87 95 82 87 79 74 76 80
74 67 67 66 68 79 73 64 69 84 87 98 99 78 78 68 68 87 80 89 85 93 92 98 96 92 89 89 82 87 79 73 72 72 76 90 89 85 84 87 83 84 70
78 69 65 77 70 72 80 76 81 87 95 95 93 97 97 95 94 99 98 88 92 88 94 98 91 94 91 84 80 74 72 65 62 73 82 86 96 96 94 82 79 74 75
65 65 70 87 86 79 76 80 83 88 84 77 71 76 78 87 85 88 86 89 94 88 88 84 81 80 74 72 64 62 60 61 66 75 95 100 96 88 86 81 81 79 82
52 76 76 85 83 78 74 72 75 76 74 70 66 60 58 60 65 68 72 75 76 73 72 71 71 71 71 67 63 62 60 62 80 78 96 91 85 78 78 81 82 85 86
50 60 78 80 80 74 90 76 74 70 66 67 70 66 59 54 55 53 56 59 65 68 70 69 71 70 69 66 65 67 66 71 99 99 94 75 72 76 78 81 90 91 74
51 48 47 47 50 56 62 83 96 87 82 73 70 66 62 59 58 64 73 75 74 71 69 68 65 65 63 64 64 68 78 92 87 72 69 65 61 73 79 69 68 60 50
55 55 55 56 54 51 46 49 64 86 92 79 76 72 63 59 56 53 52 53 55 60 64 64 66 70 67 62 70 94 96 79 74 69 66 56 59 66 67 54 44 39 44
56 50 46 46 51 55 54 54 56 69 81 92 76 64 62 58 58 57 53 50 50 53 62 66 66 67 68 76 98 90 81 74 69 69 58 57 61 58 49 40 40 40 37
53 52 50 46 44 42 47 55 60 63 62 62 63 67 67 68 72 72 70 66 60 58 52 56 73 75 77 88 82 81 84 85 76 67 58 62 54 46 40 37 35 36 36
70 60 54 53 54 52 49 50 52 53 59 65 70 72 75 78 80 72 57 47 44 47 47 62 80 84 83 85 91 94 94 92 80 64 63 52 42 39 39 40 42 41 41
75 72 67 61 56 55 53 53 52 52 51 51 51 51 49 46 43 42 42 42 45 48 57 69 85 92 96 99 100 98 85 76 68 64 53 44 45 46 46 47 46 50 48
77 76 80 84 80 67 58 57 57 56 56 54 52 51 49 47 45 44 43 43 43 44 50 64 82 93 99 100 100 91 80 76 71 58 50 53 53 51 49 50 61 58 54
89 86 80 76 73 69 66 63 59 57 57 56 56 55 51 51 49 47 46 45 43 42 44 48 51 54 57 89 92 96 82 75 65 58 58 58 54 55 59 60 65 64 62
92 98 98 91 84 78 74 74 71 65 59 56 54 51 52 53 54 54 49 49 47 42 42 49 55 60 62 80 100 87 80 72 66 63 63 58 56 66 67 68 70 66 64
83 85 97 100 96 89 83 76 72 68 65 62 58 55 53 52 53 49 46 50 47 42 43 49 58 70 91 100 96 90 77 71 70 71 66 59 64 75 71 68 70 69 70
88 91 86 85 92 90 78 72 62 53 48 44 43 43 46 45 47 49 50 48 46 47 55 63 69 75 87 93 95 86 79 80 87 82 70 65 73 76 70 70 70 69 74
94 90 90 86 83 81 77 78 70 59 54 51 48 46 44 44 47 59 68 66 60 60 74 82 87 89 90 90 88 89 91 95 95 87 74 67 71 76 73 71 70 72 80
87 88 84 78 82 82 81 85 78 68 61 57 54 55 57 59 66 82 88 85 90 98 100 100 98 95 92 95 96 97 97 97 95 80 74 69 72 76 78 75 74 79 83
93 87 76 76 76 84 88 85 82 77 73 75 81 84 98 98 99 100 100 100 100 100 100 100 99 98 98 99 98 98 97 95 87 79 82 83 85 84 84 82 81 86 89

GFSMW_700_rhum_114.txt.gz
RH
96 86 76 79 67 68 85 82 92 100 62 72 54 29 22 24 20 26 40 44 49 50 50 50 50 49 49 50 48 47 47 51 57 58 60 68 70 68 68 78 86 81 84
95 91 80 86 80 86 71 66 94 99 77 59 82 44 41 26 24 34 44 48 49 50 50 50 50 49 49 49 47 49 51 65 74 68 76 76 73 74 72 69 72 73 77
88 91 97 93 86 86 78 75 94 99 83 45 43 46 39 31 29 37 44 48 49 50 49 49 49 50 50 57 57 65 68 77 78 89 77 73 52 52 70 72 74 83 86
84 94 92 86 95 88 98 100 82 99 99 73 40 38 36 31 29 36 42 46 51 52 51 51 52 61 61 79 74 78 90 93 83 97 83 63 68 61 61 69 78 75 90
80 76 89 77 99 100 100 99 100 97 100 98 70 56 50 44 36 35 39 43 46 47 50 52 63 74 93 91 95 88 88 91 90 100 84 86 82 75 70 74 78 72 82
81 87 86 78 81 89 90 91 99 100 99 98 100 93 81 74 71 62 46 44 49 54 54 61 66 76 82 85 91 95 98 95 95 84 84 98 97 90 87 82 78 74 75
79 87 76 76 73 81 89 98 89 96 99 99 98 99 92 88 87 95 95 90 83 73 58 62 67 69 89 98 92 94 87 97 89 98 88 82 96 86 91 98 84 77 78
80 79 85 91 85 83 95 99 86 82 92 97 99 97 88 96 96 79 63 72 82 72 73 78 79 68 96 93 89 87 93 97 88 84 76 78 86 76 100 87 90 84 84
81 77 78 81 86 90 79 80 71 80 87 98 98 98 96 90 72 80 83 83 70 65 69 88 75 88 82 87 97 98 95 86 74 67 69 73 75 80 83 91 93 86 90
83 78 76 71 73 80 81 84 88 91 88 96 99 92 91 94 88 92 88 77 73 76 83 82 84 88 89 96 100 97 92 74 62 57 62 66 65 70 85 93 89 89 86
76 81 76 75 65 84 88 87 91 91 90 93 100 92 92 84 88 96 85 93 96 92 95 87 92 93 95 99 93 85 77 64 63 66 66 80 74 87 89 88 80 69 73
58 61 74 76 88 89 82 83 84 86 82 86 80 71 68 62 58 63 67 68 76 74 75 74 80 82 79 75 72 72 70 72 73 74 74 88 98 99 84 73 65 74 74
62 59 59 80 85 88 95 94 96 93 83 81 86 81 75 66 62 58 59 62 58 59 59 67 68 67 70 69 73 75 71 74 72 76 100 99 87 71 66 56 70 68 62
61 59 59 58 55 52 52 54 64 81 95 97 91 88 80 79 76 69 64 61 60 66 68 70 71 70 71 72 77 76 73 76 88 98 84 79 73 66 57 60 62 56 45
58 54 52 52 54 57 56 55 49 64 85 88 94 99 96 90 85 70 60 60 59 56 57 64 67 75 80 84 78 70 72 86 99 85 81 74 70 60 61 58 51 43 37
58 58 54 48 45 45 50 56 60 60 59 79 90 99 95 92 87 70 68 69 70 68 65 60 56 56 64 72 71 74 98 98 90 88 92 84 69 57 56 50 42 39 38
68 64 61 59 56 54 53 58 66 71 74 75 77 88 94 86 79 75 75 73 69 66 58 52 53 49 58 71 76 84 89 88 92 90 90 79 66 59 52 46 46 45 45
71 69 68 66 64 61 60 58 57 58 61 69 77 84 85 84 82 78 75 64 47 44 46 46 47 51 64 78 87 88 92 97 100 93 74 67 64 54 48 50 51 50 48
74 76 75 75 70 70 69 64 59 57 56 54 53 53 52 51 50 48 46 44 43 42 42 45 51 62 80 92 94 97 100 99 99 84 74 67 61 53 54 54 51 52 54
66 60 67 72 75 74 72 63 62 63 61 60 59 59 58 57 55 52 51 50 48 46 45 45 45 49 58 78 76 81 86 76 84 83 74 66 56 58 59 54 50 64 65
81 77 64 65 72 72 73 72 68 66 64 63 62 63 61 58 56 54 53 54 56 52 49 47 45 47 56 67 66 76 72 62 95 88 79 67 63 64 60 53 53 64 63
84 90 83 76 75 75 77 79 76 72 69 67 64 63 60 57 55 55 56 56 57 57 57 58 53 48 52 62 69 72 71 84 100 89 78 69 70 70 62 55 53 63 67
83 85 88 84 75 73 78 84 84 78 66 57 52 50 50 51 48 49 52 54 55 55 53 51 48 49 52 65 67 82 97 99 98 88 78 75 77 81 65 56 58 69 70
88 84 88 97 89 83 85 83 75 76 68 65 58 50 48 46 45 44 49 55 64 64 60 60 64 71 75 77 83 92 96 100 98 87 80 82 84 76 65 58 61 75 73
73 85 82 86 84 80 81 82 82 77 70 67 62 56 50 50 49 51 54 58 77 80 77 75 78 85 85 91 98 100 100 98 94 90 91 88 84 70 60 62 72 82 80
55 73 87 84 80 72 76 80 90 86 79 72 72 66 65 70 70 78 86 90 99 97 91 86 84 95 97 95 99 100 99 98 97 95 96 85 67 64 76 85 89 90 89

GFSMW_700_rhum_117.txt.gz
RH
76 63 89 91 100 93 86 98 89 96 100 82 71 61 98 68 77 37 22 18 29 40 47 50 50 50 49 49 50 49 48 47 46 52 62 60 67 69 72 71 86 83 83
68 91 97 98 96 82 85 96 93 94 99 97 83 33 28 36 43 23 26 23 38 46 49 51 50 50 50 50 50 49 47 49 52 69 70 69 70 80 79 81 79 74 83
70 92 100 97 98 94 80 96 96 94 79 100 96 80 32 36 51 28 28 26 42 49 50 51 50 51 51 50 50 54 55 67 74 80 76 66 64 67 76 78 75 84 85
87 88 77 95 99 99 96 92 94 100 99 95 100 97 65 59 34 27 28 32 44 49 50 50 50 50 51 52 53 62 76 88 88 94 85 68 58 72 82 86 86 86 83
91 92 100 100 99 96 98 91 91 89 98 90 97 100 96 66 55 37 30 35 44 48 48 50 49 49 50 56 58 71 89 96 99 99 99 97 72 68 79 81 82 85 85
84 93 99 95 93 92 99 100 100 97 90 80 92 98 98 98 79 46 41 42 46 50 51 53 53 51 52 53 54 67 81 88 97 98 97 99 94 66 86 88 87 84 90
100 99 98 78 87 97 99 100 99 99 100 89 96 96 74 80 73 58 45 43 45 46 47 50 50 52 60 62 63 65 67 80 97 92 89 93 87 68 67 90 94 100 100
100 98 100 98 99 95 97 100 100 99 97 100 98 99 95 84 74 81 72 76 70 82 88 97 92 92 89 86 81 79 74 78 88 94 97 98 94 78 73 67 96 100 100
100 100 100 100 99 99 98 99 99 98 95 99 100 100 100 96 97 85 92 98 97 95 90 91 88 84 78 87 92 86 84 84 97 98 97 84 87 74 72 73 99 99 100
85 82 93 100 98 100 90 95 98 98 98 100 100 98 99 97 99 99 93 89 86 84 91 81 77 69 77 99 92 84 92 89 100 93 84 82 69 62 65 70 76 71 96
84 90 87 97 98 94 97 95 98 98 94 99 99 100 97 94 98 99 98 100 97 93 83 81 79 71 98 100 97 88 100 98 97 89 77 69 65 67 69 69 91 88 87
66 77 73 74 86 88 93 83 90 97 97 96 98 100 100 100 99 99 100 99 100 99 100 92 87 97 99 100 100 100 98 98 98 78 74 71 74 80 72 100 94 96 69
62 61 72 88 89 93 86 94 92 94 87 97 95 100 99 100 99 99 98 98 94 94 100 97 93 76 80 83 76 76 82 83 82 79 75 73 74 94 100 97 78 65 50
59 57 60 63 71 85 83 73 71 78 76 91 99 98 99 96 97 99 99 97 91 92 81 76 74 74 71 68 66 71 74 76 80 80 77 84 91 91 79 71 61 51 50
61 55 52 52 57 61 59 55 51 55 69 77 95 99 99 100 92 96 95 80 63 56 57 62 67 70 71 69 70 71 72 75 79 78 83 92 86 82 71 67 55 51 52
68 66 61 54 52 49 52 59 62 60 56 78 93 100 99 98 97 98 94 89 73 58 58 58 57 57 61 67 72 76 77 74 74 71 97 92 87 86 85 69 57 53 45
72 71 67 66 61 55 52 54 60 63 71 75 83 86 89 87 84 92 95 84 76 76 74 69 64 58 54 54 56 66 70 72 93 100 94 93 94 89 74 62 56 47 44
70 69 70 71 71 71 68 61 57 58 67 77 85 89 87 90 91 93 90 83 80 78 76 60 47 44 49 50 57 68 99 100 100 95 98 93 93 78 65 59 53 48 52
67 69 70 71 69 69 70 71 70 66 62 60 58 57 58 62 68 71 75 68 59 49 43 42 42 44 45 50 61 76 93 96 95 97 97 92 91 76 66 61 53 55 55
67 72 69 66 67 66 67 65 63 65 65 65 65 64 62 59 58 56 54 54 52 50 48 46 45 45 45 49 59 75 86 95 99 93 87 85 86 79 70 62 58 60 56
78 71 66 61 59 64 69 66 62 61 61 61 60 61 63 63 62 61 60 59 56 54 52 50 51 49 50 50 55 64 80 94 93 91 79 66 85 82 74 64 65 65 58
69 72 71 69 69 66 63 61 67 68 65 63 60 61 61 62 62 62 62 60 58 56 54 52 54 58 56 56 59 63 71 79 78 93 97 78 100 90 76 69 74 71 60
67 64 65 71 70 66 65 65 66 67 70 73 76 73 64 60 58 57 58 58 56 55 56 57 60 64 66 63 63 60 60 75 95 98 79 96 99 90 78 77 79 72 63
46 67 62 60 66 71 69 64 63 66 64 65 69 68 64 59 53 50 49 49 49 52 56 60 68 67 65 63 64 66 71 84 86 89 100 100 100 88 80 83 81 72 62
49 47 58 69 67 66 61 58 59 59 65 66 67 69 68 62 59 57 53 52 53 53 60 70 75 74 69 72 73 83 94 100 100 100 100 100 97 91 91 86 80 69 64
49 50 45 54 68 71 65 60 56 58 65 71 71 68 66 65 63 67 69 66 64 65 72 88 94 95 90 88 97 100 100 100 100 100 100 99 95 96 91 85 68 74 85

GFSMW_700_rhum_120.txt.gz
RH
91 82 73 76 86 98 98 100 100 100 97 100 91 82 68 74 94 83 88 40 25 21 21 36 43 48 50 50 49 49 49 49 48 49 52 60 62 63 67 72 76 88 78
62 65 68 70 78 99 95 97 99 96 94 86 90 95 96 88 70 76 80 78 25 22 26 42 48 51 51 50 49 50 50 48 50 54 60 68 66 67 74 82 82 78 76
86 79 70 79 88 75 74 87 88 99 93 93 84 87 92 99 100 98 95 78 26 25 34 48 51 52 52 51 50 51 52 51 54 65 73 75 70 71 79 73 84 86 78
97 88 98 89 71 71 90 77 83 97 93 85 97 94 91 89 86 70 99 86 28 28 38 49 52 52 52 51 51 51 52 58 58 69 75 81 78 81 74 73 78 81 84
99 97 93 78 81 88 90 92 96 98 99 95 99 92 94 68 91 99 78 84 31 31 42 51 52 52 53 52 54 51 52 63 65 69 89 93 93 89 93 83 73 80 85
98 90 97 89 97 97 100 96 99 99 98 100 97 99 98 86 75 54 67 82 35 34 42 50 51 50 56 56 52 51 56 63 64 80 92 92 97 98 90 85 73 91 89
99 84 88 96 84 92 90 94 85 97 95 100 99 99 100 96 94 89 64 61 35 34 42 48 49 49 50 52 72 56 68 80 91 81 83 86 81 91 99 87 80 99 100
100 100 100 99 92 94 99 97 100 100 98 100 99 97 98 92 95 97 91 52 50 42 47 50 49 54 67 72 76 75 76 86 88 82 78 86 79 90 97 88 92 98 96
99 100 100 100 99 96 100 100 98 99 100 100 100 100 100 100 98 98 99 92 93 74 70 80 70 74 82 98 100 100 97 86 87 85 82 86 92 100 99 94 92 95 99
99 100 100 100 98 96 96 99 100 99 98 100 98 100 100 99 100 99 99 96 95 86 81 77 82 94 99 99 88 86 79 78 92 94 98 96 99 98 99 93 93 81 84
85 98 100 98 100 100 100 97 99 100 98 100 99 100 99 99 98 97 98 97 99 98 92 98 99 100 87 82 85 84 91 88 90 97 98 99 91 97 85 74 69 72 74
72 89 96 100 97 99 99 96 100 99 100 100 100 100 100 100 98 98 99 99 100 100 100 99 98 100 98 89 86 83 93 97 100 100 100 98 87 80 70 66 76 78 92
63 71 79 96 92 93 92 95 100 99 97 100 99 100 98 100 99 99 98 99 99 98 99 99 98 99 99 100 100 85 98 100 100 99 98 87 81 77 76 70 67 94 91
58 59 68 74 80 97 96 89 92 96 94 98 98 99 100 100 100 100 100 99 99 100 100 99 100 100 100 100 99 99 93 94 90 91 91 86 85 80 83 85 99 78 70
60 55 53 58 63 62 58 57 54 54 72 87 89 91 100 100 100 100 99 100 100 99 98 100 99 100 100 99 99 90 88 82 81 80 79 84 95 89 97 98 81 72 69
66 64 58 55 51 52 55 60 60 57 51 58 81 90 100 99 99 95 100 99 98 96 97 93 88 87 83 77 73 70 70 73 74 77 82 89 96 98 99 88 84 81 68
72 69 69 65 61 57 52 55 57 61 64 64 65 85 97 100 84 77 99 99 96 91 88 80 73 68 64 59 56 59 62 70 73 74 94 95 99 98 98 90 85 75 63
67 71 69 66 64 62 60 58 55 57 64 71 75 79 84 85 90 93 87 88 95 97 98 96 78 70 66 58 55 54 56 62 75 77 82 99 100 99 95 89 81 70 63
64 63 64 67 68 65 60 61 59 57 59 62 61 64 72 82 94 100 99 97 84 95 98 85 72 49 42 45 46 50 54 60 75 98 98 99 100 98 91 98 90 75 64
65 64 62 60 60 61 61 63 63 60 58 57 60 62 65 64 62 60 59 60 68 72 64 50 46 44 46 45 45 48 57 72 92 100 100 100 99 99 80 96 95 75 66
61 62 62 64 62 58 55 53 54 57 58 59 59 58 59 60 62 63 64 63 61 60 58 56 54 52 51 50 48 48 52 72 93 100 100 100 97 90 84 92 95 80 68
49 60 62 62 62 64 64 60 55 53 52 53 56 57 56 56 58 59 59 56 56 58 59 58 58 56 54 56 57 55 58 70 85 100 100 100 100 100 99 73 98 86 72
36 52 62 57 54 56 59 60 59 59 60 62 68 72 73 73 73 71 64 60 58 58 58 59 58 58 58 60 64 67 68 72 78 88 100 100 100 100 93 80 100 88 76
34 36 43 59 64 59 54 55 56 56 55 57 60 60 60 61 66 68 62 56 51 51 52 55 59 66 67 71 73 72 68 69 76 85 91 100 100 100 85 99 97 88 80
21 33 35 35 54 61 60 57 57 54 52 53 53 61 63 64 63 62 63 60 59 57 52 53 53 57 69 84 87 80 77 78 84 95 100 100 99 100 100 98 97 89 87
12 20 29 35 35 40 53 54 60 61 57 54 54 58 64 66 65 64 64 71 71 67 67 66 64 68 75 89 86 83 85 85 97 95 100 100 99 100 100 100 98 92 89

GFSMW_700_rhum_123.txt.gz
RH
93 97 90 74 83 79 51 71 77 95 100 100 85 87 81 69 46 43 47 82 93 86 38 22 26 30 36 36 43 48 50 52 52 52 52 51 52 56 58 58 68 75 79
98 98 93 98 98 53 52 65 96 91 100 90 96 98 85 84 77 61 67 85 92 68 24 23 26 33 40 47 50 49 50 51 51 49 51 50 60 65 62 67 74 81 84
87 96 97 89 95 73 74 92 96 95 100 99 94 92 97 92 68 85 70 98 100 66 26 24 29 40 47 50 51 50 49 50 50 49 52 56 59 66 72 70 76 82 85
99 100 100 99 74 58 65 78 82 97 97 100 100 97 93 88 77 94 74 97 100 47 26 27 30 47 51 52 52 51 50 52 51 51 53 60 60 60 74 74 77 76 80
100 100 99 98 91 90 77 64 62 91 97 99 95 92 98 94 100 100 100 100 94 49 35 31 36 48 53 54 53 51 51 51 51 52 65 67 75 83 87 83 76 86 88
100 98 99 99 98 95 82 46 95 82 79 86 96 91 81 93 97 94 89 95 99 97 44 35 39 49 54 54 53 52 52 52 53 65 77 87 94 89 96 82 84 90 84
99 100 100 98 98 99 87 99 90 82 98 83 88 84 82 89 86 98 100 100 97 99 52 34 38 50 54 54 53 56 67 80 78 91 96 99 94 82 83 77 70 76 91
100 100 100 99 99 99 98 91 94 100 90 96 95 98 95 99 97 96 97 97 100 99 96 42 36 48 56 55 62 64 73 84 91 95 86 78 84 84 82 74 68 86 97
100 100 100 100 100 100 100 100 97 99 100 94 93 98 100 98 100 98 97 94 93 94 85 57 38 50 56 53 54 62 79 97 80 88 80 78 82 83 75 83 82 100 100
100 100 100 100 100 100 98 98 99 98 97 100 99 100 100 100 99 97 98 98 94 87 73 59 55 57 60 69 77 90 85 84 99 98 90 84 82 78 88 84 97 99 96
99 100 98 98 100 98 98 100 99 99 98 100 99 100 100 100 100 100 100 100 100 96 71 80 88 82 83 83 91 90 98 96 95 98 99 91 98 97 98 100 96 99 98
96 99 100 99 100 99 91 98 95 99 99 97 94 98 98 100 99 100 100 100 100 100 98 98 89 87 97 100 100 100 100 98 92 91 96 86 96 100 100 99 99 99 91
72 75 89 94 94 90 84 91 96 94 95 99 98 98 98 99 100 100 100 100 100 100 100 100 100 99 98 100 98 100 100 98 97 99 94 94 98 99 100 99 99 95 85
65 71 67 67 72 85 83 80 88 91 91 93 98 99 98 100 98 100 100 99 99 100 100 100 98 99 100 99 99 99 100 100 100 99 99 100 98 96 98 99 96 87 79
61 61 65 65 65 63 61 57 56 54 62 82 87 84 92 98 97 98 99 100 100 100 100 100 100 100 100 100 100 99 100 100 100 100 100 100 100 100 100 99 95 99 93
64 58 59 61 61 60 59 58 56 58 57 56 68 86 86 95 89 91 85 94 98 100 100 100 100 100 100 98 100 99 99 98 98 98 91 88 88 97 97 100 94 95 94
66 64 60 57 56 56 55 58 56 58 61 66 67 70 88 96 92 83 67 100 100 99 100 100 100 98 97 96 95 93 88 88 89 87 78 77 84 87 97 98 92 97 90
65 70 66 63 59 56 55 53 54 56 59 70 80 85 86 91 100 94 86 76 84 100 99 97 98 98 97 93 88 81 74 68 64 64 70 78 96 100 100 94 99 93 96
66 64 64 64 63 63 62 59 55 55 57 57 57 61 70 82 91 95 97 98 98 100 95 83 87 96 99 92 73 55 53 53 62 61 70 96 94 94 99 98 94 89 91
53 57 59 59 60 57 55 56 56 56 56 55 56 58 58 58 61 61 62 71 77 87 90 88 92 90 83 86 83 59 48 48 56 62 72 97 100 100 100 99 92 86 79
47 48 51 51 50 53 53 53 52 50 49 50 54 57 58 59 61 62 64 64 64 62 62 61 62 59 56 56 58 57 55 53 54 83 99 99 100 99 100 100 92 74 84
28 32 44 46 48 47 48 47 47 47 47 47 46 45 45 48 50 53 54 57 59 60 60 60 61 61 60 60 59 62 62 58 55 60 80 92 97 99 100 100 90 80 89
22 25 31 42 49 46 44 42 41 45 47 48 48 48 47 48 51 51 51 51 54 60 61 58 58 59 60 60 61 61 62 62 65 84 88 93 100 100 100 99 100 93 98
11 16 23 30 36 46 48 47 44 43 41 42 42 40 41 43 47 48 49 52 53 62 62 57 52 55 60 64 68 71 74 75 82 94 98 97 97 100 100 100 90 100 92
7 8 15 22 26 29 37 46 52 52 52 50 47 44 42 41 44 49 54 56 58 58 60 63 62 60 56 59 63 67 71 82 94 100 96 94 94 98 95 96 100 97 89
8 8 10 14 21 28 30 33 33 36 44 48 58 57 50 52 49 47 50 58 61 61 59 65 71 71 69 73 70 73 80 89 95 95 89 87 96 97 100 100 90 98 100

GFSMW_700_rhum_126.txt.gz
RH
40 38 45 45 48 62 46 26 39 70 74 86 89 96 97 88 96 85 61 29 26 68 88 82 31 23 22 25 34 37 36 41 46 46 48 51 51 50 49 52 55 64 66
90 85 81 68 76 73 53 44 24 42 70 81 91 95 97 84 100 89 66 29 35 81 90 86 32 25 26 30 40 38 42 49 50 52 54 53 50 47 54 61 63 64 79
99 99 98 82 89 74 65 68 41 69 82 96 94 95 94 100 91 97 50 42 67 68 79 94 30 25 33 34 43 41 48 51 51 53 54 52 49 50 58 64 68 75 78
80 94 94 74 94 99 82 94 80 81 79 90 84 98 96 96 95 96 71 54 73 86 96 98 31 30 37 41 48 47 52 51 50 52 53 51 51 60 64 66 77 81 79
98 88 77 90 100 98 98 98 100 91 69 100 92 100 100 100 98 100 88 92 88 86 84 96 33 32 43 46 53 52 54 52 51 53 53 53 56 70 75 92 90 76 82
100 92 98 100 98 100 100 98 97 76 76 93 79 90 100 92 100 100 98 98 97 96 99 98 47 40 38 49 54 54 54 53 53 56 57 61 73 91 95 94 82 78 72
100 100 100 99 100 100 98 98 77 69 64 55 65 68 96 100 100 99 97 97 100 97 100 84 81 54 39 48 53 55 54 53 52 54 62 75 84 98 99 93 87 86 79
100 100 99 100 100 100 100 100 78 66 84 79 74 94 98 97 97 99 100 98 98 95 95 99 97 51 45 49 53 56 55 53 55 62 75 88 89 100 98 94 92 86 81
100 100 100 100 100 100 100 99 89 76 61 71 99 94 96 97 94 99 99 90 96 100 100 100 100 100 92 61 62 64 58 58 65 82 92 97 100 98 95 92 88 86 87
100 100 99 100 100 100 93 82 70 76 84 99 87 98 80 90 96 98 97 90 97 98 99 100 100 99 66 46 60 67 66 69 78 90 86 98 94 98 96 93 89 92 89
100 100 100 100 99 99 98 100 100 100 99 99 100 99 96 97 96 100 100 99 98 98 99 100 98 98 69 70 78 73 86 84 95 93 96 98 99 99 92 88 92 94 92
97 100 100 99 98 98 100 99 100 97 98 92 98 100 98 100 100 100 100 97 100 99 99 98 99 99 97 72 80 84 98 100 100 99 97 97 99 99 94 96 91 89 98
89 88 98 100 100 96 96 95 98 98 99 90 99 99 100 100 99 99 100 100 100 100 100 98 99 98 82 72 94 94 98 99 99 99 100 98 99 98 100 92 98 100 100
70 80 77 74 81 86 68 65 76 86 87 88 96 99 98 97 99 100 100 99 98 99 99 99 100 100 99 98 97 93 93 99 100 100 100 99 99 99 97 100 98 100 99
64 61 65 72 78 75 67 64 58 57 61 72 80 81 83 95 95 99 99 99 98 98 99 99 100 99 98 98 100 100 100 99 100 100 99 100 98 99 99 99 99 99 99
62 61 61 60 57 56 56 59 59 59 58 58 69 78 80 74 84 92 68 82 98 100 100 98 99 99 100 100 100 100 99 100 98 98 99 98 99 99 100 100 100 100 96
65 64 61 60 57 56 53 52 51 55 62 67 66 69 77 92 95 85 73 63 71 97 99 100 99 96 99 99 99 100 100 100 100 98 98 98 99 99 100 98 99 98 95
51 59 64 63 60 59 58 55 53 51 52 56 64 72 76 88 96 90 85 87 83 78 87 100 99 98 98 98 99 99 98 98 98 98 97 99 99 98 95 89 85 92 100
59 58 57 57 59 59 58 56 58 60 58 54 51 51 52 58 67 74 83 93 97 89 95 81 90 85 93 98 98 98 95 95 96 92 87 94 88 83 86 85 100 99 98
52 51 56 59 55 54 53 51 48 46 51 54 56 58 58 58 57 55 55 56 56 58 63 63 77 88 91 91 96 87 79 89 86 78 80 78 98 96 88 92 97 90 100
24 42 44 47 46 46 47 46 45 44 42 42 42 42 44 46 51 56 59 60 60 59 57 58 58 59 61 62 63 62 62 65 72 82 83 80 81 90 98 84 98 98 98
15 18 22 34 40 41 42 44 41 42 42 42 40 41 41 42 42 42 42 44 47 49 51 55 58 60 60 61 63 64 64 65 70 76 80 82 80 87 91 95 98 99 90
8 9 12 16 24 32 43 39 38 39 38 37 37 36 37 35 34 34 36 38 40 42 47 53 58 61 67 64 62 62 65 70 69 75 89 90 85 84 85 82 79 84 92
7 6 7 9 13 18 22 35 35 35 35 38 39 36 36 38 38 36 34 34 32 34 39 44 48 50 60 65 60 59 63 70 77 82 90 95 92 98 99 99 99 99 98
6 6 6 6 7 11 15 18 19 20 25 26 33 29 25 25 30 40 42 38 37 36 37 40 44 48 50 58 64 66 65 66 73 97 97 95 98 98 97 97 96 96 98
6 6 6 6 7 9 11 12 14 14 17 19 23 24 24 23 25 26 35 35 34 42 44 43 41 43 49 57 62 74 78 78 80 90 100 99 98 100 100 98 98 95 94